[[{"header":{"parameterUnit":"m.s-1","parameterCategory":1,"la1":30.6,"la2":29.2853,"lo1":-89.7004,"lo2":-87.6739,"dy":0.0162,"dx":0.0183,"nx":112,"ny":82,"refTime":"2023-10-07T12:00:00:Z","depth":0,"parameterNumber":2,"parameterNumberName":"U-component_of_WINDS"},"data":[0.0,0.0,0.0,0.0,0.0,0.0,0.0,0.0,0.0,0.0,0.0,0.0,0.0,0.0,0.0,0.0,0.0,0.0,0.0,0.0,0.0,0.0,0.0,0.0,0.0,0.0,0.0,0.0,0.0,0.0,0.0,0.0,0.0,0.0,0.0,0.0,0.0,0.0,0.0,0.0,0.0,0.0,0.0,0.0,0.0,0.0,0.0,0.0,0.0,0.0,0.0,0.0,0.0,0.0,0.0,0.0,0.0,0.0,0.0,0.0,0.0,0.0,0.0,0.0,0.0,0.0,0.0,0.0,0.0,0.0,0.0,0.0,0.0,0.0,0.0,0.0,0.0,0.0,0.0,0.0,0.0,0.0,0.0,0.0,0.0,0.0,0.0,0.0,0.0,0.0,0.0,7.7224,9.0179,9.7929,9.6953,9.2656,8.5781,7.582,0.0,0.0,0.0,0.0,0.0,0.0,0.0,0.0,0.0,0.0,0.0,0.0,0.0,0.0,0.0,0.0,0.0,0.0,0.0,0.0,0.0,0.0,0.0,0.0,0.0,0.0,0.0,0.0,0.0,0.0,0.0,0.0,0.0,0.0,0.0,0.0,0.0,0.0,0.0,0.0,0.0,0.0,0.0,0.0,0.0,0.0,0.0,0.0,0.0,0.0,0.0,0.0,0.0,0.0,0.0,0.0,0.0,0.0,0.0,0.0,0.0,0.0,0.0,0.0,0.0,0.0,0.0,0.0,0.0,0.0,0.0,0.0,0.0,0.0,0.0,0.0,0.0,0.0,0.0,0.0,0.0,0.0,0.0,0.0,0.0,0.0,0.0,0.0,0.0,0.0,0.0,0.0,0.0,0.0,0.0,0.0,0.0,0.0,0.0,0.0,0.0,0.0,0.0,0.0,7.28,8.7139,9.609,10.039,9.875,9.332,8.6523,7.8437,0.0,0.0,0.0,0.0,0.0,0.0,0.0,0.0,0.0,0.0,0.0,0.0,0.0,0.0,0.0,0.0,0.0,0.0,0.0,0.0,0.0,0.0,0.0,0.0,0.0,0.0,0.0,0.0,0.0,0.0,0.0,0.0,0.0,0.0,0.0,0.0,0.0,0.0,0.0,0.0,0.0,0.0,0.0,0.0,0.0,0.0,0.0,0.0,0.0,0.0,0.0,0.0,0.0,0.0,0.0,0.0,0.0,0.0,0.0,0.0,0.0,0.0,0.0,0.0,0.0,0.0,0.0,0.0,0.0,0.0,0.0,0.0,0.0,0.0,0.0,0.0,0.0,0.0,0.0,0.0,0.0,0.0,0.0,0.0,0.0,0.0,0.0,0.0,0.0,0.0,0.0,0.0,0.0,0.0,0.0,0.0,0.0,0.0,0.0,0.0,0.0,0.0,0.0,7.1821,7.9205,9.2561,9.8565,10.1289,10.0508,9.4883,8.8086,8.0351,7.3359,0.0,0.0,0.0,0.0,0.0,0.0,0.0,0.0,0.0,0.0,0.0,0.0,0.0,0.0,0.0,0.0,0.0,0.0,0.0,0.0,0.0,0.0,0.0,0.0,0.0,0.0,0.0,0.0,0.0,0.0,0.0,0.0,0.0,0.0,0.0,0.0,0.0,0.0,0.0,0.0,0.0,0.0,0.0,0.0,0.0,0.0,0.0,0.0,0.0,0.0,0.0,0.0,0.0,0.0,0.0,0.0,0.0,0.0,0.0,0.0,0.0,0.0,0.0,0.0,0.0,0.0,0.0,0.0,0.0,0.0,0.0,0.0,0.0,0.0,0.0,0.0,0.0,0.0,0.0,0.0,0.0,0.0,0.0,0.0,0.0,0.0,0.0,0.0,0.0,0.0,0.0,0.0,0.0,0.0,0.0,0.0,0.0,0.0,0.0,0.0,0.0,0.0,7.917,8.539,9.5429,9.9726,10.1914,10.1914,9.5273,8.8281,8.1719,7.3672,0.0,0.0,0.0,0.0,0.0,0.0,0.0,0.0,0.0,0.0,0.0,0.0,0.0,0.0,0.0,0.0,0.0,0.0,0.0,0.0,0.0,0.0,0.0,0.0,0.0,0.0,0.0,0.0,0.0,0.0,0.0,0.0,0.0,0.0,0.0,0.0,0.0,0.0,0.0,0.0,0.0,0.0,0.0,0.0,0.0,0.0,0.0,0.0,0.0,0.0,0.0,0.0,0.0,0.0,0.0,0.0,0.0,0.0,0.0,0.0,0.0,0.0,0.0,0.0,0.0,0.0,0.0,0.0,0.0,0.0,0.0,0.0,0.0,0.0,0.0,0.0,0.0,0.0,0.0,0.0,0.0,0.0,0.0,0.0,0.0,0.0,0.0,0.0,0.0,0.0,0.0,0.0,0.0,0.0,0.0,0.0,0.0,0.0,0.0,0.0,0.0,0.0,8.1312,8.9414,9.582,10.0312,10.2812,10.2812,9.289,8.539,8.2383,7.1211,0.0,0.0,0.0,0.0,0.0,0.0,0.0,0.0,0.0,0.0,0.0,0.0,0.0,0.0,0.0,0.0,0.0,0.0,0.0,0.0,0.0,0.0,0.0,0.0,0.0,0.0,0.0,0.0,0.0,0.0,0.0,0.0,0.0,0.0,0.0,0.0,0.0,0.0,0.0,0.0,0.0,0.0,0.0,0.0,0.0,0.0,0.0,0.0,0.0,0.0,0.0,0.0,0.0,0.0,0.0,0.0,0.0,0.0,0.0,0.0,0.0,0.0,0.0,0.0,0.0,0.0,0.0,0.0,0.0,0.0,0.0,0.0,0.0,0.0,0.0,0.0,0.0,0.0,0.0,0.0,0.0,0.0,0.0,0.0,0.0,0.0,0.0,0.0,0.0,0.0,0.0,0.0,0.0,0.0,0.0,0.0,0.0,0.0,0.0,0.0,0.0,0.0,8.3284,9.0976,0.0,10.1289,10.3086,10.3711,9.6406,8.9101,8.2695,0.0,0.0,0.0,0.0,0.0,0.0,0.0,0.0,0.0,0.0,0.0,0.0,0.0,0.0,0.0,0.0,0.0,0.0,0.0,0.0,0.0,0.0,0.0,0.0,0.0,0.0,0.0,0.0,0.0,0.0,0.0,0.0,0.0,0.0,0.0,0.0,0.0,0.0,0.0,0.0,0.0,0.0,0.0,0.0,0.0,0.0,0.0,0.0,0.0,0.0,0.0,0.0,0.0,0.0,0.0,0.0,0.0,0.0,0.0,0.0,0.0,0.0,0.0,0.0,0.0,0.0,0.0,0.0,0.0,0.0,0.0,0.0,0.0,0.0,0.0,0.0,0.0,0.0,0.0,0.0,0.0,0.0,0.0,0.0,0.0,0.0,0.0,0.0,0.0,0.0,0.0,0.0,0.0,0.0,0.0,0.0,0.0,0.0,0.0,0.0,0.0,0.0,7.6971,8.5182,9.289,0.0,10.2109,10.3594,10.4101,9.664,8.9179,8.2695,0.0,0.0,0.0,0.0,0.0,0.0,0.0,0.0,0.0,0.0,0.0,0.0,0.0,0.0,0.0,0.0,0.0,0.0,0.0,0.0,0.0,0.0,0.0,0.0,0.0,0.0,0.0,0.0,0.0,0.0,0.0,0.0,0.0,0.0,0.0,0.0,0.0,0.0,0.0,0.0,0.0,0.0,0.0,0.0,0.0,0.0,0.0,0.0,0.0,0.0,0.0,0.0,0.0,0.0,0.0,0.0,0.0,0.0,0.0,0.0,0.0,0.0,0.0,0.0,0.0,0.0,0.0,0.0,0.0,0.0,0.0,0.0,0.0,0.0,0.0,0.0,0.0,0.0,0.0,0.0,0.0,0.0,0.0,0.0,0.0,0.0,0.0,0.0,0.0,0.0,0.0,0.0,0.0,0.0,0.0,0.0,0.0,0.0,0.0,0.0,0.0,0.0,7.668,8.6992,9.5586,9.9883,10.2695,10.4219,10.4219,9.2422,8.4219,0.0,0.0,0.0,0.0,0.0,0.0,0.0,0.0,0.0,0.0,0.0,0.0,0.0,0.0,0.0,0.0,0.0,0.0,0.0,0.0,0.0,0.0,0.0,0.0,0.0,0.0,0.0,0.0,0.0,0.0,0.0,0.0,0.0,0.0,0.0,0.0,0.0,0.0,0.0,0.0,0.0,0.0,0.0,0.0,0.0,0.0,0.0,0.0,0.0,0.0,0.0,0.0,0.0,0.0,0.0,0.0,0.0,0.0,0.0,0.0,0.0,0.0,0.0,0.0,0.0,0.0,0.0,0.0,0.0,0.0,0.0,0.0,0.0,0.0,0.0,0.0,0.0,0.0,0.0,0.0,0.0,0.0,0.0,0.0,0.0,0.0,0.0,0.0,0.0,0.0,0.0,0.0,0.0,0.0,0.0,0.0,0.0,0.0,0.0,0.0,0.0,0.0,0.0,7.9258,8.914,9.7617,10.25,10.3711,10.4414,10.5117,9.6601,8.8672,8.2695,0.0,0.0,0.0,0.0,0.0,0.0,0.0,0.0,0.0,0.0,0.0,0.0,0.0,0.0,0.0,0.0,0.0,0.0,0.0,0.0,0.0,0.0,0.0,0.0,0.0,0.0,0.0,0.0,0.0,0.0,0.0,0.0,0.0,0.0,0.0,0.0,0.0,0.0,0.0,0.0,0.0,0.0,0.0,0.0,0.0,0.0,0.0,0.0,0.0,0.0,0.0,0.0,0.0,0.0,0.0,0.0,0.0,0.0,0.0,0.0,0.0,0.0,0.0,0.0,0.0,0.0,0.0,0.0,0.0,0.0,0.0,0.0,0.0,0.0,0.0,0.0,0.0,0.0,0.0,0.0,0.0,0.0,0.0,0.0,0.0,0.0,0.0,0.0,0.0,0.0,0.0,0.0,0.0,0.0,0.0,0.0,0.0,0.0,0.0,0.0,0.0,0.0,8.0351,9.0351,9.8711,10.3203,10.4297,10.4804,10.5,9.8164,9.0273,8.1797,0.0,0.0,0.0,0.0,0.0,0.0,0.0,0.0,0.0,0.0,0.0,0.0,0.0,0.0,0.0,0.0,0.0,0.0,0.0,0.0,0.0,0.0,0.0,0.0,0.0,0.0,0.0,0.0,0.0,0.0,0.0,0.0,0.0,0.0,0.0,0.0,0.0,0.0,0.0,0.0,0.0,0.0,0.0,0.0,0.0,0.0,0.0,0.0,0.0,0.0,0.0,0.0,0.0,0.0,0.0,0.0,0.0,0.0,0.0,0.0,0.0,0.0,0.0,0.0,0.0,0.0,0.0,0.0,0.0,0.0,0.0,0.0,0.0,0.0,0.0,0.0,0.0,0.0,0.0,0.0,0.0,0.0,0.0,0.0,0.0,0.0,0.0,0.0,0.0,0.0,0.0,0.0,0.0,0.0,0.0,0.0,0.0,0.0,0.0,0.0,0.0,0.0,8.0469,9.0742,9.8984,10.2617,10.4414,10.5117,10.4297,9.7851,8.9922,8.0664,0.0,0.0,0.0,0.0,0.0,0.0,0.0,0.0,0.0,0.0,0.0,0.0,0.0,0.0,0.0,0.0,0.0,0.0,0.0,0.0,0.0,0.0,0.0,0.0,0.0,0.0,0.0,0.0,0.0,0.0,0.0,0.0,0.0,0.0,0.0,0.0,0.0,0.0,0.0,0.0,0.0,0.0,0.0,0.0,0.0,0.0,0.0,0.0,0.0,0.0,0.0,0.0,0.0,0.0,0.0,0.0,0.0,0.0,0.0,0.0,6.0393,0.0,0.0,0.0,0.0,0.0,0.0,0.0,0.0,0.0,0.0,0.0,0.0,0.0,0.0,0.0,0.0,0.0,0.0,0.0,0.0,0.0,0.0,0.0,0.0,0.0,0.0,0.0,0.0,0.0,0.0,0.0,0.0,0.0,0.0,0.0,0.0,0.0,0.0,0.0,0.0,0.0,8.1367,9.0664,9.8594,10.3398,10.4297,10.4414,10.4219,9.7851,9.0703,8.3242,0.0,0.0,0.0,0.0,0.0,0.0,0.0,0.0,0.0,0.0,0.0,0.0,0.0,0.0,0.0,0.0,0.0,0.0,0.0,0.0,0.0,0.0,0.0,0.0,0.0,0.0,0.0,0.0,0.0,0.0,0.0,0.0,0.0,0.0,0.0,0.0,0.0,0.0,0.0,0.0,0.0,0.0,0.0,0.0,0.0,0.0,0.0,0.0,0.0,0.0,0.0,0.0,0.0,0.0,0.0,0.0,0.0,0.0,0.0,0.0,0.0,6.2309,0.0,0.0,0.0,0.0,0.0,0.0,0.0,0.0,0.0,0.0,0.0,0.0,0.0,0.0,0.0,0.0,0.0,0.0,0.0,0.0,0.0,0.0,0.0,0.0,0.0,0.0,0.0,0.0,0.0,0.0,0.0,0.0,0.0,0.0,0.0,0.0,0.0,0.0,0.0,0.0,8.164,9.0625,9.8164,10.25,10.3711,10.3906,10.3008,9.8164,9.1836,8.4101,7.7461,0.0,0.0,0.0,0.0,0.0,0.0,0.0,0.0,0.0,0.0,0.0,0.0,0.0,0.0,0.0,0.0,0.0,0.0,0.0,0.0,0.0,0.0,0.0,0.0,0.0,0.0,0.0,0.0,0.0,0.0,0.0,0.0,0.0,0.0,0.0,0.0,0.0,0.0,0.0,0.0,0.0,0.0,0.0,0.0,0.0,0.0,0.0,0.0,0.0,0.0,0.0,0.0,0.0,7.1146,7.2855,7.5015,7.4277,7.419,7.441,7.0797,6.7078,6.3763,0.0,0.0,0.0,0.0,0.0,0.0,0.0,0.0,0.0,0.0,0.0,0.0,0.0,0.0,0.0,0.0,0.0,0.0,0.0,0.0,0.0,0.0,0.0,0.0,0.0,6.7539,6.5937,0.0,0.0,0.0,0.0,0.0,0.0,0.0,0.0,0.0,0.0,0.0,0.0,8.164,9.0469,9.7656,10.1211,10.3008,10.3316,10.1717,9.8588,9.3203,8.4961,8.0312,7.3945,0.0,0.0,0.0,0.0,0.0,0.0,0.0,0.0,0.0,0.0,0.0,0.0,0.0,0.0,0.0,0.0,0.0,0.0,0.0,0.0,0.0,0.0,0.0,0.0,0.0,0.0,0.0,0.0,0.0,0.0,0.0,0.0,5.3359,5.517,0.0,0.0,0.0,0.0,0.0,0.0,0.0,0.0,0.0,0.0,0.0,0.0,0.0,6.8868,7.1968,7.4513,7.5939,7.6142,7.8498,8.0152,8.1145,8.1023,8.2208,8.4202,8.2918,0.0,6.9547,6.6959,0.0,0.0,0.0,0.0,0.0,0.0,0.0,0.0,0.0,0.0,0.0,0.0,0.0,0.0,0.0,0.0,0.0,0.0,0.0,0.0,0.0,0.0,6.8672,6.914,7.0234,7.1015,0.0,6.7148,6.3594,6.1875,5.9922,0.0,0.0,0.0,0.0,0.0,0.0,0.0,8.1719,8.9961,9.6953,10.1211,10.25,10.2616,10.1378,9.8981,9.4765,8.8164,8.3203,7.793,7.2187,6.6797,0.0,0.0,0.0,0.0,0.0,0.0,0.0,0.0,0.0,0.0,0.0,0.0,0.0,0.0,0.0,0.0,0.0,0.0,0.0,0.0,0.0,0.0,0.0,0.0,0.0,0.0,0.0,0.0,0.0,5.6077,5.8449,5.7311,6.0242,6.0988,0.0,0.0,0.0,0.0,0.0,0.0,0.0,0.0,0.0,7.2547,7.3157,7.4793,7.7737,8.0299,8.2284,8.371,8.5757,8.7456,8.872,8.8687,8.957,9.1064,9.0223,8.6962,8.1887,7.6111,7.2431,7.0251,0.0,0.0,0.0,0.0,6.7846,6.8921,6.918,7.0067,0.0,6.9515,0.0,0.0,0.0,0.0,0.0,0.0,0.0,0.0,0.0,0.0,0.0,7.4961,7.5781,7.6328,7.6328,7.3437,6.9609,0.0,6.4101,6.3594,6.3203,0.0,0.0,0.0,0.0,0.0,8.2344,9.0156,9.6484,9.9804,10.1204,10.1414,9.9936,9.7832,9.4651,9.0077,8.5508,8.0937,7.6406,7.2265,6.8867,0.0,0.0,0.0,0.0,0.0,0.0,0.0,0.0,0.0,0.0,0.0,0.0,0.0,0.0,0.0,0.0,0.0,0.0,0.0,0.0,0.0,0.0,0.0,0.0,0.0,0.0,0.0,0.0,6.0305,6.2483,5.9331,6.3638,6.4701,0.0,0.0,0.0,0.0,0.0,0.0,6.918,7.1787,7.4945,7.8787,7.9966,8.1747,8.4306,8.6415,8.8528,9.0642,9.2103,9.3831,9.5636,9.5637,9.6136,9.6904,9.6021,9.4561,9.218,8.4093,7.8266,7.4292,7.2559,7.1621,7.1377,7.1955,7.2778,7.3691,7.4923,7.5655,7.5694,7.3974,0.0,7.0825,6.7127,0.0,0.0,0.0,0.0,7.2383,7.3906,7.6406,7.8984,8.0898,8.1523,8.1719,8.1719,7.9844,7.6289,0.0,6.8359,6.7656,6.5898,0.0,0.0,0.0,0.0,7.8008,8.3867,9.0625,9.5937,9.8711,10.0096,10.0287,9.8748,9.7015,9.4751,9.1671,8.8111,8.4336,8.0312,7.7422,7.3281,6.7695,0.0,0.0,0.0,0.0,0.0,0.0,0.0,0.0,0.0,0.0,0.0,0.0,0.0,0.0,0.0,0.0,0.0,0.0,0.0,0.0,0.0,0.0,0.0,0.0,0.0,0.0,0.0,0.0,0.0,6.0967,6.7987,0.0,0.0,0.0,0.0,6.5561,6.8598,7.1929,7.539,7.7969,8.165,8.6665,8.8413,9.0492,9.3061,9.4024,9.4945,9.5944,9.6751,9.8481,10.0904,10.0904,10.1404,10.2213,10.1289,9.9519,9.6482,8.7218,8.233,8.0238,7.6101,7.4994,7.5694,7.5732,7.6303,7.7047,7.7144,7.6657,7.6383,7.8615,7.7784,7.539,7.2734,7.2235,0.0,0.0,7.3476,7.5859,7.6758,7.9492,8.2695,8.5273,8.6523,8.7109,8.7109,8.5703,8.2187,0.0,7.039,6.8398,6.9023,0.0,6.9101,7.2461,7.668,8.1367,8.664,9.1211,9.5273,9.8633,9.9591,9.9518,9.844,9.7477,9.5819,9.3162,9.1535,8.8828,8.4765,8.1289,7.7383,7.3008,6.8906,0.0,0.0,0.0,0.0,0.0,0.0,0.0,0.0,0.0,0.0,0.0,0.0,0.0,0.0,0.0,0.0,0.0,0.0,0.0,0.0,0.0,0.0,0.0,0.0,0.0,0.0,0.0,0.0,7.1464,7.5985,0.0,6.99,7.0464,7.1544,7.2349,7.5524,7.9177,8.3125,8.6261,8.9796,9.3753,9.5022,9.6866,9.9404,9.975,10.0288,10.1212,10.1481,10.2097,10.2982,10.298,10.3095,10.3403,10.3097,10.1789,9.9673,9.5828,9.129,8.6483,8.3901,8.2432,8.1739,8.1739,8.2599,8.3884,8.446,8.4426,8.3696,8.074,7.7738,7.4965,7.3665,7.3756,7.4479,7.5369,7.7256,7.957,8.207,8.4179,8.6133,8.8164,8.8867,8.9101,8.9101,8.8164,8.6367,8.3086,7.875,7.5351,7.457,7.3711,7.3945,7.6289,7.8867,8.2422,8.7617,9.1562,9.5,9.7851,9.8587,9.8254,9.6743,9.5055,9.3323,9.1405,8.9955,8.8283,8.6406,8.3672,8.0195,7.5898,7.1562,6.8086,0.0,0.0,0.0,0.0,0.0,0.0,0.0,0.0,0.0,0.0,0.0,0.0,0.0,0.0,0.0,0.0,0.0,0.0,0.0,0.0,0.0,0.0,0.0,0.0,0.0,0.0,7.9107,7.9361,8.317,8.3519,7.7805,7.8094,7.9105,8.0197,8.3423,8.6953,9.0598,9.3522,9.6482,9.9556,10.0518,10.1903,10.3906,10.3906,10.4214,10.4714,10.4714,10.4906,10.5176,10.5213,10.5018,10.471,10.4674,10.3789,10.2096,10.1597,9.8365,9.3482,9.0941,8.9133,8.7872,8.8214,8.9021,9.0021,9.0293,9.0024,8.8794,8.4263,8.0849,7.8346,7.7351,7.7708,7.8685,7.9966,8.1979,8.4337,8.6909,8.8398,8.957,9.0976,9.1094,9.0976,9.125,9.039,8.9414,8.8906,8.4804,8.0898,7.9219,7.8437,7.8633,8.039,8.1836,8.4609,8.9804,9.2461,9.4832,9.7316,9.7504,9.6804,9.5315,9.3554,9.1864,9.0402,8.8362,8.6911,8.6288,8.4258,8.1289,7.7265,7.207,6.8008,6.5156,0.0,0.0,0.0,0.0,0.0,0.0,0.0,0.0,0.0,0.0,0.0,0.0,0.0,0.0,0.0,0.0,0.0,0.0,0.0,0.0,0.0,0.0,0.0,7.2392,7.9845,8.4925,8.4175,8.9228,9.0181,8.3461,8.6594,8.9051,8.9063,9.2138,9.5137,9.7635,9.9403,10.1519,10.3977,10.4903,10.571,10.6521,10.6521,10.6521,10.6521,10.6521,10.6905,10.7793,10.7716,10.729,10.6521,10.6521,10.548,10.3977,10.3906,10.2905,10.1019,9.6827,9.4637,9.3983,9.4789,9.5057,9.4937,9.4097,9.2751,9.1056,8.9393,8.7704,8.6017,8.4335,8.4537,8.542,8.5363,8.7506,9.0024,9.085,9.1874,9.2929,9.375,9.3359,9.2969,9.375,9.2617,9.1406,9.1406,8.7969,8.4531,8.2851,8.2539,8.3125,8.4804,8.5781,0.0,9.3242,9.3906,9.4822,9.7196,9.6424,9.5328,9.424,9.3056,9.1748,9.0244,8.7103,8.5071,8.4489,8.3008,8.0547,7.7109,7.039,6.5273,6.1797,0.0,0.0,0.0,0.0,0.0,0.0,0.0,0.0,0.0,0.0,0.0,0.0,0.0,0.0,0.0,0.0,0.0,0.0,0.0,0.0,0.0,0.0,7.9259,7.9485,8.6838,9.2795,9.4407,9.7135,9.7673,9.456,9.5329,9.6289,9.6943,9.9519,10.1904,10.3903,10.5597,10.71,10.837,10.8713,10.8902,10.921,10.8517,10.8167,10.8167,10.8167,10.871,10.9479,10.8902,10.8787,10.9094,10.7905,10.6713,10.5672,10.502,10.4095,10.2903,10.048,9.8673,9.7366,9.6943,9.6828,9.6789,9.6557,9.5788,9.4595,9.2896,9.1591,9.0552,8.944,8.9286,8.9552,8.9521,9.071,9.2178,9.3006,9.4061,9.49,9.5147,9.5658,9.5781,9.4765,9.4336,9.3945,9.332,9.1211,8.9179,8.8086,8.789,8.8047,8.8515,8.8789,0.0,9.3476,9.3906,9.5007,9.7973,9.7273,9.6217,9.5132,9.2326,8.9402,8.6555,8.3495,8.1721,8.1558,8.025,7.7617,7.3515,7.0312,6.7031,0.0,0.0,0.0,0.0,0.0,0.0,0.0,0.0,0.0,0.0,0.0,0.0,0.0,0.0,0.0,0.0,0.0,0.0,0.0,0.0,0.0,0.0,8.2106,8.7924,9.0455,9.506,9.9247,10.2169,10.3403,10.3597,10.2595,10.248,10.298,10.4211,10.5982,10.7716,10.8983,10.9983,11.0906,11.1795,11.1401,11.1401,11.1791,11.1329,11.0978,11.0978,11.0978,11.1313,11.1826,11.0892,11.0589,0.0,10.8863,10.7713,10.6905,10.602,10.521,0.0,0.0,0.0,0.0,0.0,9.8865,9.8596,9.8558,9.7789,9.6635,9.5597,9.4518,9.3364,9.2521,9.2479,9.263,9.1946,9.302,9.451,9.503,9.5951,9.6887,9.7224,9.7787,9.8017,9.6978,9.643,9.5976,9.5469,9.4062,0.0,9.2265,9.1289,9.0781,9.1523,9.1328,9.2031,9.4648,9.4687,9.5325,9.7711,9.708,9.5865,9.4287,9.1902,0.0,0.0,0.0,8.0022,7.8057,7.6899,0.0,0.0,0.0,6.918,6.6484,0.0,0.0,0.0,6.2695,6.2773,0.0,0.0,0.0,0.0,0.0,0.0,0.0,0.0,0.0,0.0,0.0,0.0,0.0,0.0,0.0,0.0,8.9802,9.6821,10.3021,10.4001,10.5089,10.7817,10.8287,10.8293,10.8101,10.8332,10.8983,11.0517,11.1478,11.2406,11.3176,0.0,0.0,0.0,0.0,11.3516,11.4104,11.3989,11.3989,11.3989,11.3989,11.3993,11.4067,11.3213,11.2396,11.1714,10.9902,10.871,10.7908,10.6905,10.602,10.4903,10.3405,10.2713,10.252,10.1712,10.0904,10.0211,10.0211,0.0,0.0,9.7827,9.6789,9.5405,9.4521,9.4828,9.5135,9.36,9.5057,9.6977,9.6979,9.7789,9.8788,9.9403,9.9673,9.9698,9.9522,9.8578,9.7758,9.7695,9.6562,9.5625,9.5742,9.3515,9.2265,9.3828,9.3398,9.3789,9.6172,9.582,9.5797,9.7027,0.0,0.0,9.3095,9.1864,8.944,8.5286,8.2802,7.9562,7.5312,7.4492,7.4062,7.3906,7.3047,7.1719,6.9922,6.914,6.8789,6.8711,6.6797,6.6406,0.0,0.0,0.0,0.0,0.0,0.0,0.0,0.0,0.0,0.0,0.0,0.0,0.0,0.0,0.0,8.9491,9.6336,10.3404,11.0801,11.2383,11.2274,11.0891,11.2022,11.2295,11.0906,11.1978,11.2901,11.3209,11.4702,11.5932,11.6778,11.6816,11.6939,11.7061,11.6215,11.5522,11.5099,11.4401,11.4016,11.4016,0.0,0.0,11.5023,11.4094,11.3593,11.3411,11.1714,11.0483,10.9604,10.8101,10.6521,10.5018,10.4018,10.3172,10.2597,10.2405,10.1789,10.1096,10.1096,10.0788,10.048,9.9827,9.9404,9.8942,9.8095,9.7941,0.0,9.7674,9.8481,9.9439,9.9402,10.0096,10.0596,10.0096,10.0635,10.0904,9.9544,9.9719,9.9992,9.9512,9.8633,9.8242,9.914,9.6601,9.457,9.4883,9.4804,9.5117,9.6328,9.6367,9.6696,9.7922,9.7286,9.6442,9.5634,9.2864,8.9671,8.6094,8.2576,7.9973,7.8515,7.914,7.8867,7.7539,7.664,7.5,7.2578,7.2383,7.2305,7.2226,6.914,6.8515,0.0,0.0,0.0,0.0,0.0,0.0,0.0,0.0,0.0,0.0,0.0,7.4256,0.0,0.0,9.0607,9.6604,10.3212,10.9297,11.4003,11.6509,11.697,11.4887,11.5401,11.5599,11.4676,11.5407,11.617,11.7093,11.7892,11.8777,11.9708,11.9323,11.9092,11.91,11.8222,11.7606,11.7221,11.6792,11.6599,11.6484,11.6099,11.6099,11.6484,11.517,11.4593,11.4561,11.2791,11.1911,11.1298,10.9604,10.8178,10.6905,10.6097,10.4787,10.3328,10.329,10.2713,10.1981,10.1981,10.1712,10.1212,10.0788,10.0404,9.9981,9.9558,9.9442,9.9365,9.8904,9.9404,10.0096,10.0096,10.0404,10.0673,10.0712,10.1096,10.1289,10.0404,10.0404,10.0508,10.0196,9.9563,9.9258,9.9961,9.8672,9.7617,9.7734,9.7383,9.7265,9.7695,9.7299,9.7284,9.8218,9.7402,9.6634,9.6326,9.2402,8.9094,8.7017,8.3205,8.073,8.0077,7.9844,7.9531,7.9101,7.8672,7.8008,7.7148,7.7148,7.7148,7.7109,7.539,7.4375,0.0,0.0,0.0,0.0,0.0,0.0,0.0,0.0,7.1257,7.4284,7.7621,8.1417,8.6022,9.1832,9.7783,10.3404,10.9489,11.408,11.597,11.8592,11.9908,11.87,11.84,11.8215,11.8061,11.8222,11.8792,12.0169,12.0477,12.0908,12.16,12.0908,12.0477,12.0284,11.9723,11.9299,11.9107,11.9107,11.9107,11.9107,11.8414,11.8106,11.7991,11.6676,11.5907,11.5362,11.3714,11.2906,11.2599,11.1064,10.9835,10.8793,10.7982,10.6287,10.4403,10.4214,10.3521,10.2597,10.2597,10.1981,10.1289,10.1289,10.0904,10.0288,10.0288,10.0288,10.0211,9.948,9.9788,10.0288,10.0288,10.0289,10.0519,10.1096,10.1289,10.1289,10.1289,10.0904,10.0596,10.0596,10.0313,10.0017,10.029,10.0418,10.039,10.0312,9.9687,9.9254,9.9243,9.844,9.8036,9.8489,9.7665,9.6942,9.6557,9.2479,8.9633,8.8902,8.5555,8.328,8.2585,8.1516,8.1133,8.164,8.1523,8.1719,8.2265,8.2109,8.1914,8.1758,8.1914,8.0742,6.4487,6.3886,0.0,6.8262,6.8241,6.9631,0.0,0.0,7.893,8.3593,8.7281,9.0517,9.3371,9.9347,10.5312,10.9789,11.3573,11.6893,11.9408,12.01,12.0485,12.11,12.0523,11.9708,11.9015,11.9592,12.0092,12.0284,12.1023,12.1485,12.16,12.1485,12.11,12.0284,12.0169,11.9784,11.9092,11.9092,11.9092,11.9092,11.9015,11.9023,11.8921,11.8805,11.7799,11.6292,11.4593,11.3395,11.2588,11.1714,11.0363,10.8782,10.8014,10.7091,10.602,10.5287,10.3977,10.2594,10.2597,10.1981,10.1289,10.1289,10.1212,10.1212,10.1212,10.1212,10.1096,10.1019,10.1096,10.1212,10.1212,10.1212,10.1212,10.1289,10.1289,10.1289,10.1289,10.1212,10.1289,10.1481,10.1516,10.162,10.2083,10.2211,10.1797,10.0508,10.0195,10.0196,10.0202,9.9863,9.9558,9.9437,9.9133,9.8519,9.7442,9.548,9.3903,9.3056,9.1364,9.0042,8.927,8.9398,8.9219,8.8594,8.8008,8.7383,8.6758,8.6015,8.5234,8.4492,8.5273,8.4648,6.6051,0.0,0.0,0.0,7.3475,7.6605,8.3231,8.4671,8.6031,9.0991,9.5136,9.8784,10.1825,10.6698,11.1224,0.0,11.7277,11.9677,12.0177,12.1224,12.1177,11.9592,12.04,12.0908,12.0639,12.0908,12.11,12.11,12.1408,12.16,12.16,12.16,12.1408,12.11,12.11,12.0908,12.0639,12.0639,12.0639,12.0477,11.9977,11.9784,11.9792,11.9292,11.8407,11.7221,11.6484,11.5478,11.4132,11.3286,11.1978,11.0286,10.8906,10.7905,10.7098,10.6213,10.5095,10.4093,10.4098,10.3175,10.2097,10.2097,10.1712,10.1289,10.1289,10.1289,10.1289,10.1289,10.1289,10.1289,10.1289,10.1289,10.1289,10.1289,10.1289,10.1289,10.1289,10.1289,10.1289,10.1404,10.1481,10.1597,10.1981,10.2184,10.2109,10.1601,10.1719,10.1586,10.1096,10.0703,10.0096,9.9211,9.9519,9.9327,9.8327,9.6712,9.5597,9.5249,9.3361,9.213,9.1745,9.1566,9.1378,9.1171,9.039,8.9883,8.9726,8.8828,8.8203,8.789,8.875,8.8789,6.7803,0.0,0.0,7.531,7.904,8.3475,8.7737,9.0608,9.364,9.8124,10.2112,10.5684,10.8902,11.2286,11.5279,11.7239,12.0023,12.1801,12.1416,12.1793,12.1216,11.8507,11.8969,11.9784,12.0477,12.1216,12.16,12.16,12.16,12.16,12.16,12.16,12.16,12.16,12.16,12.16,12.16,12.16,12.16,12.16,12.1023,12.0716,12.0639,11.9784,11.8977,11.81,11.7914,11.6984,11.5478,11.4516,11.3093,11.1598,10.9678,10.837,10.76,10.6713,10.5787,10.5095,10.4791,10.3829,10.2597,10.2289,10.1789,10.1289,10.1289,10.1289,10.1289,10.1289,10.1289,10.1289,10.1289,10.1289,10.1289,10.1289,10.1289,10.1289,10.1289,10.1289,10.1289,10.1289,10.1289,10.1404,10.1712,10.1899,10.2195,10.2499,10.2695,10.2695,10.1992,10.1495,10.0712,9.9596,10.0135,10.0173,9.9558,9.8173,9.7366,9.7365,9.5324,9.4016,9.3785,9.3172,9.2777,9.2734,9.2017,9.1601,9.1562,9.0742,9.0351,9.0351,9.1015,9.1445,6.9549,0.0,7.4864,8.0156,8.452,8.8902,9.3996,9.827,10.2086,10.5377,10.8184,11.0808,11.328,11.5202,11.7162,11.9784,12.1677,12.3109,12.3909,12.1908,12.0092,11.9208,11.6232,11.5225,0.0,12.0092,12.16,12.16,12.16,12.16,12.16,12.16,12.16,12.16,12.16,12.16,12.16,12.16,12.16,12.16,12.16,12.16,12.1485,12.0716,11.9784,11.9015,11.8177,11.7298,11.6292,11.4708,11.3478,11.2411,10.9871,10.837,10.76,10.6713,10.5787,10.5018,10.417,10.3324,10.2476,10.1596,10.1289,10.1289,10.1289,10.1289,10.1289,10.1289,10.1289,10.1289,10.1289,10.1289,10.1289,10.1289,10.1289,10.1289,10.1289,10.1289,10.1289,10.1289,10.1289,10.1404,10.1712,10.1905,10.2204,10.2484,10.2695,10.289,10.289,10.2389,10.1789,10.1289,10.1212,10.1289,10.1212,10.048,9.9981,9.9981,9.8327,9.7017,9.6249,9.552,9.4824,9.4078,9.3638,9.3008,9.2187,9.1562,9.125,9.125,9.1289,9.1758,7.4295,0.0,8.343,8.8434,9.2536,9.6704,10.2163,10.4613,10.6393,10.9114,10.9423,10.9714,11.1101,11.2818,11.4817,11.7431,12.0698,12.3015,12.3322,12.3015,12.0784,11.5522,11.638,0.0,0.0,0.0,0.0,12.2224,12.2494,12.2724,12.3186,12.3302,12.2994,12.2494,12.2494,12.2224,12.16,12.16,12.16,12.16,12.16,12.1293,12.0716,12.1023,12.04,11.9131,11.8799,11.8183,11.7221,11.4901,11.3478,11.2411,10.9906,10.8406,10.76,10.6713,10.6213,10.5864,10.5672,10.502,10.4214,10.3867,10.3522,10.2905,10.2328,10.2213,10.1981,10.1481,10.1289,10.1289,10.1289,10.1289,10.1289,10.1289,10.1289,10.1289,10.1289,10.1289,10.1289,10.1289,10.1289,10.1289,10.1404,10.1789,10.2299,10.2718,10.2812,10.2812,10.2383,10.2195,10.1904,10.1404,10.1289,10.1289,10.1289,10.0596,10.0096,10.0096,9.9019,9.825,9.7979,9.721,9.6748,9.663,9.5342,9.4746,9.4804,9.3984,9.3711,9.3906,9.4492,9.4922,7.993,8.4962,9.0416,9.5657,9.9603,10.3198,10.7454,10.8911,10.9584,11.0288,10.9329,10.8314,10.8001,10.8613,11.0187,11.3689,11.7107,12.0103,12.262,12.2005,11.9891,11.5907,11.6007,11.5704,0.0,0.0,0.0,12.16,12.2485,12.3101,12.3601,12.3678,12.3408,12.2908,12.2562,12.2224,12.16,12.16,12.16,12.16,12.16,12.1293,12.0831,12.1301,12.0793,11.9515,11.9177,11.8607,11.7606,11.5362,11.4022,11.2911,11.0671,10.9098,10.7985,10.7175,10.6713,10.6405,10.602,10.5597,10.5099,10.4791,10.4329,10.3789,10.3212,10.3097,10.2905,10.1981,10.1789,10.1712,10.1404,10.1289,10.1289,10.1289,10.1289,10.1289,10.1289,10.1289,10.1289,10.1289,10.1289,10.1289,10.1289,10.1696,10.2188,10.2689,10.2812,10.2617,10.2187,10.2,10.1789,10.1289,10.1289,10.1289,10.1289,10.0788,10.048,10.048,9.975,9.925,9.9288,9.8442,9.8019,9.821,9.698,9.6387,9.6408,9.5719,9.5508,9.5664,9.6523,9.7109,8.644,9.1199,9.5802,10.1691,10.5495,10.8285,10.9863,11.1434,11.1679,10.9263,10.7893,10.639,0.0,0.0,10.4183,10.9195,11.183,11.5505,12.2236,11.9575,11.7816,0.0,0.0,0.0,0.0,0.0,0.0,12.01,0.0,12.2889,12.3005,12.312,12.312,12.3005,12.2169,12.1677,12.16,12.16,12.16,12.16,12.16,12.16,12.1485,12.1577,12.1115,12.0207,11.94,11.8592,11.7683,11.6022,11.4791,11.3796,11.2175,11.0525,10.887,10.7985,10.7175,10.6328,10.548,10.521,10.5018,10.4285,10.4016,10.4016,10.4016,10.402,10.383,10.2905,10.2713,10.252,10.1597,10.1404,10.1404,10.1404,10.1404,10.1404,10.1289,10.1289,10.1404,10.1404,10.1404,10.1404,10.1289,10.1794,10.2187,10.25,10.2499,10.2418,10.2105,10.1876,10.1597,10.1289,10.1289,10.1289,10.1289,10.1289,10.1289,10.1289,10.0596,10.0211,10.0211,9.9326,9.8827,9.8825,9.848,9.7901,9.7045,9.677,9.664,9.6679,9.7461,9.8242,9.2629,9.8538,10.4125,10.8064,11.012,11.1588,11.3203,11.2491,11.0717,10.8246,10.4146,9.9842,0.0,0.0,0.0,10.6676,11.4121,0.0,12.5096,12.4764,0.0,0.0,0.0,11.8684,11.7862,11.8285,0.0,0.0,12.2001,12.2784,12.4707,12.5399,12.5101,12.3802,12.361,12.2917,12.16,12.16,12.16,12.16,12.16,12.1293,12.0716,12.1339,12.0793,11.94,11.9208,11.8592,11.7683,11.6022,11.4785,11.3786,11.2214,11.0829,10.9713,10.8175,10.76,10.7175,10.6405,10.6097,10.602,10.5787,10.5787,10.5595,10.5018,10.4787,10.4595,10.3788,10.3597,10.3522,10.329,10.3175,10.3098,10.2405,10.279,10.2905,10.1597,10.1789,10.2328,10.2328,10.2328,10.2213,10.1904,10.1989,10.2187,10.25,10.2296,10.2088,10.1778,10.1701,10.1597,10.1289,10.1289,10.1289,10.1289,10.1289,10.1289,10.1289,10.1096,10.1019,10.1019,10.0211,9.9481,9.8827,9.8712,9.8341,9.768,9.8231,9.8672,9.9023,9.9258,9.9453,9.9188,10.4445,10.9202,11.2102,11.3093,11.3203,11.2396,11.0655,10.7737,10.1574,9.7396,0.0,8.8896,0.0,0.0,0.0,0.0,0.0,12.4764,12.4899,12.4322,0.0,12.2417,0.0,12.116,12.0968,12.16,0.0,12.3002,12.3485,12.5283,12.5909,12.5486,12.4101,12.3802,12.2917,12.16,12.16,12.16,12.16,12.16,12.1293,12.0908,12.1023,12.0477,11.9592,0.0,11.8292,11.7683,11.6022,11.4785,11.3901,11.2522,11.0978,10.9517,10.8594,10.779,10.7098,10.6597,10.6405,10.6405,10.6405,10.6405,10.6328,10.5787,10.5672,10.548,10.471,10.4211,10.3905,10.3905,10.3597,10.3328,10.3212,10.3521,10.3598,10.2672,10.2789,10.3098,10.2672,10.2904,10.2905,10.2097,10.2301,10.2617,10.2187,10.2101,10.1981,10.1597,10.1481,10.1481,10.1289,10.1289,10.1289,10.1289,10.1289,10.1289,10.1289,10.1289,10.1289,10.1289,10.0904,10.0404,9.9904,9.9635,9.939,9.9185,9.9419,9.9691,10.0098,10.0518,10.0586,10.5505,10.9391,11.2396,11.4708,11.5002,11.3607,10.9716,10.73,10.3079,9.3069,0.0,8.7335,8.2587,8.6007,9.1908,9.9086,0.0,11.4678,12.3394,12.3394,12.3905,12.7804,12.4899,12.3505,12.5668,12.3774,12.313,12.4734,12.4619,12.4726,12.536,12.5476,12.5091,12.4091,12.3293,12.2494,12.16,12.16,12.16,12.16,12.16,12.16,12.16,12.0716,12.0169,12.01,11.853,0.0,11.7491,11.5907,11.4785,11.3901,11.2983,11.1214,10.909,10.909,10.7979,10.6597,10.6597,10.6521,10.6405,10.6405,10.6405,10.6405,10.6405,10.6405,10.6213,10.548,10.4826,10.417,10.4211,10.3708,10.3283,10.3901,10.4097,10.4214,10.3901,10.3905,10.3674,10.2901,10.3405,10.3483,10.2212,10.279,10.3109,10.1992,10.1984,10.1904,10.1404,10.1289,10.1289,10.1289,10.1289,10.1289,10.1289,10.1289,10.1289,10.1289,10.1289,10.1289,10.1289,10.1289,10.1212,10.1096,10.0711,10.0634,10.0673,10.028,10.0303,10.0607,10.1406,10.1719,11.0108,11.3183,11.5589,11.7314,11.5773,11.291,10.9606,10.3799,0.0,0.0,8.5232,8.1724,7.8715,8.3461,9.0757,9.9665,0.0,0.0,0.0,0.0,12.7579,0.0,0.0,0.0,0.0,0.0,0.0,0.0,0.0,12.5986,12.5399,12.6101,12.5678,12.4187,12.3302,12.2494,12.16,12.16,12.16,12.16,12.16,12.16,12.16,12.0716,11.9908,11.9261,11.8183,0.0,11.6676,11.5715,11.4791,11.3912,11.3027,11.1598,11.0017,10.9986,10.887,10.7523,10.7523,10.6982,10.6405,10.6405,10.6405,10.6405,10.6405,10.6405,10.6405,10.6213,10.6097,10.5982,10.5986,10.5907,10.5595,10.5018,10.5364,10.5597,10.417,10.3901,10.3903,10.3708,10.3789,10.3906,10.3788,10.363,10.3302,10.28,10.2373,10.1904,10.1404,10.1289,10.1289,10.1289,10.1289,10.1289,10.1289,10.1289,10.1289,10.1289,10.1289,10.1289,10.1289,10.1289,10.1019,10.0288,10.0904,10.0904,10.048,10.1093,10.1593,10.2101,10.2301,10.2187,11.4614,11.7073,11.8709,11.9517,11.6911,11.2485,10.5693,0.0,0.0,0.0,7.8935,7.7147,7.5043,8.0935,0.0,9.4982,10.2495,0.0,0.0,0.0,0.0,0.0,0.0,0.0,0.0,0.0,0.0,0.0,0.0,12.7091,12.6678,12.5832,12.5024,12.4101,12.287,12.1985,12.16,12.16,12.16,12.16,12.16,12.16,12.16,12.0284,11.9677,11.9575,11.7914,0.0,11.6984,11.5285,11.4407,11.3873,11.2603,11.1329,11.0209,11.022,10.9101,10.771,10.7675,10.7098,10.6405,10.6405,10.6405,10.6405,10.6405,10.6405,10.6405,10.6405,10.6097,10.5828,10.6292,10.6099,10.5672,10.5787,10.6097,10.6213,10.5403,10.521,10.5095,10.4595,10.4905,10.4789,10.3595,10.3595,10.339,10.2289,10.1984,10.1712,10.1404,10.1712,10.1789,10.1289,10.1289,10.1289,10.1289,10.1289,10.1289,10.1289,10.1289,10.1289,10.1289,10.1289,10.1096,10.0673,10.1096,10.1212,10.1096,10.1594,10.2109,10.25,10.2617,10.2601,11.8544,12.04,12.1389,12.1389,11.7718,11.1581,10.2093,9.4446,0.0,0.0,7.3514,7.3283,7.2118,0.0,8.4497,0.0,9.6405,10.461,11.5682,11.8499,0.0,0.0,0.0,0.0,0.0,0.0,0.0,0.0,0.0,0.0,12.7727,12.5591,12.4322,12.4091,12.2716,12.1793,12.16,12.16,12.16,12.16,12.16,12.16,12.1485,11.99,11.9408,11.9883,11.7484,0.0,0.0,11.4978,11.4022,11.3796,11.2175,11.0978,11.0209,11.041,10.9406,10.8014,10.8175,10.76,10.6713,10.6713,10.6597,10.6405,10.6405,10.6405,10.6405,10.6405,10.5864,10.548,10.6213,10.5864,10.5595,10.6213,10.6405,10.6405,10.6405,10.6328,10.602,10.5522,10.579,10.552,10.3672,10.3903,10.3687,10.2086,10.1815,10.1712,10.1597,10.2212,10.2404,10.1865,10.1904,10.1789,10.1597,10.1712,10.1712,10.1289,10.1712,10.1712,10.1289,10.1481,10.1481,10.1289,10.1289,10.1404,10.1673,10.1992,10.2197,10.25,10.2816,10.2693,12.0993,12.2546,12.3114,12.3114,11.7314,10.9485,10.1796,0.0,8.1257,7.4096,7.1287,7.0348,7.0898,7.3553,7.8776,8.8475,9.2569,9.9424,11.3528,11.8204,12.2802,12.9782,0.0,0.0,0.0,0.0,0.0,0.0,0.0,0.0,12.6871,12.5832,12.4909,12.4071,12.3186,12.2417,12.16,12.16,12.16,12.16,12.16,12.16,12.1485,11.99,11.91,11.9113,11.7277,0.0,0.0,11.4708,11.4022,11.3796,11.2175,11.0978,11.0286,11.1098,11.0286,10.8898,10.9678,10.8911,10.76,10.76,10.6982,10.6405,10.6405,10.6405,10.6405,10.6405,10.6328,10.6328,10.6405,10.6328,10.6328,10.6405,10.6405,10.6405,10.6405,10.5787,10.5403,10.6097,10.5672,10.5403,10.602,10.5022,10.4099,10.3707,10.252,10.1904,10.2403,10.2595,10.2903,10.3593,10.3674,10.329,10.252,10.3175,10.2982,10.1404,10.279,10.2982,10.1404,10.2097,10.2097,10.1289,10.1289,10.1404,10.1712,10.1979,10.2171,10.25,10.2784,10.2595,12.2181,12.496,12.5794,12.4399,11.7608,10.914,10.0922,0.0,7.8812,7.3403,7.0518,6.9335,7.0629,7.2619,7.6139,8.2757,8.5105,9.0278,10.2202,10.5896,11.1602,12.301,0.0,0.0,0.0,0.0,0.0,0.0,0.0,0.0,12.6794,12.5399,12.4216,12.3379,12.2609,12.1985,12.16,12.16,12.16,12.16,12.16,12.16,12.16,12.04,11.9792,11.9691,11.7984,0.0,0.0,11.5478,11.4484,11.3873,11.2719,11.1714,11.0978,11.1406,11.0671,10.9709,11.0098,10.9136,10.771,10.7675,10.7098,10.6405,10.6405,10.6405,10.6405,10.6405,10.6405,10.6405,10.6405,10.6405,10.6405,10.6405,10.6405,10.6405,10.6405,10.6097,10.602,10.6328,10.6097,10.5828,10.5597,10.5097,10.4597,10.4021,10.3406,10.3097,10.3405,10.3788,10.4211,10.4634,10.4211,10.3788,10.3403,10.3712,10.3597,10.2903,10.3482,10.3597,10.2903,10.3212,10.3174,10.2904,10.2289,10.2097,10.2212,10.2097,10.2174,10.232,10.2685,10.2691,12.1176,12.5576,12.7671,12.545,11.7861,10.8588,0.0,0.0,7.716,7.2754,6.999,6.8835,7.031,7.1926,7.4406,7.843,8.0208,8.4566,9.4516,9.7786,10.3689,0.0,0.0,0.0,0.0,0.0,0.0,0.0,0.0,0.0,12.6409,12.4899,12.3784,12.3302,12.2224,12.16,12.16,12.16,12.16,12.16,12.16,12.16,12.16,12.0477,12.01,12.023,11.8299,0.0,0.0,11.5715,11.4599,11.3912,11.2834,11.1983,11.1522,11.1522,11.1137,11.0594,11.0594,10.959,10.8398,10.8098,10.7523,10.6713,10.6521,10.6405,10.6405,10.6405,10.6405,10.6405,10.6405,10.6405,10.6405,10.6405,10.6405,10.6405,10.6405,10.6405,10.6405,10.6405,10.6405,10.6213,10.5597,10.5328,10.4864,10.4289,10.4097,10.3982,10.4212,10.4713,10.5172,10.548,10.5018,10.4477,10.4285,10.448,10.4403,10.3901,10.4403,10.4403,10.3901,10.4095,10.4097,10.3905,10.2981,10.2597,10.2597,10.2212,10.2019,10.209,10.2597,10.2601,11.7706,12.3637,12.8211,12.659,11.8105,10.7899,0.0,8.7002,7.616,7.1785,6.959,6.8667,6.954,7.1079,7.3322,7.6771,7.9453,8.4356,9.3692,9.792,10.2576,0.0,0.0,0.0,0.0,0.0,0.0,0.0,0.0,0.0,12.5476,12.4591,12.4139,12.4118,12.2494,12.16,12.16,12.16,12.16,12.16,12.16,12.16,12.1485,11.99,11.9515,0.0,0.0,0.0,0.0,11.5093,11.3972,11.3824,11.2214,11.1522,11.1522,11.1522,11.1522,11.1522,11.1522,11.0863,10.9979,10.9217,10.8293,10.7523,10.6713,10.6405,10.6405,10.6405,10.6405,10.6405,10.6405,10.6405,10.6405,10.6405,10.6405,10.6405,10.6405,10.6405,10.6405,10.6405,10.6405,10.6405,10.6405,10.5713,10.5097,10.5097,10.4405,10.4212,10.4982,10.5097,10.5405,10.629,10.6405,10.602,10.521,10.5864,10.5672,10.4016,10.548,10.5595,10.4016,10.4672,10.4713,10.3903,10.302,10.2597,10.2597,10.1981,10.1787,10.211,10.2401,10.2382,10.7799,11.2772,11.5617,11.1618,10.5577,9.8777,9.1993,8.2782,7.4767,7.1567,6.9102,6.7782,6.8641,6.9717,7.236,7.8083,8.02,8.3541,9.0526,0.0,0.0,0.0,0.0,0.0,0.0,0.0,0.0,0.0,0.0,0.0,12.5476,12.4601,12.361,12.2417,12.187,12.16,12.16,12.16,12.16,12.16,12.16,12.16,12.16,12.11,12.0292,0.0,0.0,0.0,0.0,11.5362,11.4907,11.4681,11.3027,11.2719,11.3104,11.1906,11.1791,11.2175,11.1714,11.0863,11.0209,10.9906,10.879,10.76,10.7408,10.6905,10.6405,10.6405,10.6405,10.6405,10.6405,10.6405,10.6405,10.6405,10.6405,10.6405,10.6405,10.6405,10.6405,10.6405,10.6405,10.6405,10.6405,10.6213,10.602,10.602,10.579,10.5713,10.602,10.602,10.6097,10.6405,10.6405,10.6328,10.602,10.6213,10.6213,10.5595,10.6097,10.6213,10.5595,10.5905,10.5905,10.5597,10.4789,10.3982,10.3482,10.2905,10.2483,10.2419,10.2512,10.2411,9.8703,10.4807,10.7908,10.443,9.9178,0.0,8.7192,7.9349,7.2737,7.0439,6.8179,6.7013,6.8191,6.9333,7.1645,7.6178,7.8461,8.1733,8.7655,0.0,0.0,0.0,0.0,0.0,0.0,0.0,0.0,0.0,0.0,0.0,12.5014,12.4418,12.3302,12.1677,12.16,12.16,12.16,12.16,12.16,12.16,12.16,12.16,12.16,12.1293,12.0485,0.0,0.0,0.0,0.0,11.5362,11.4791,11.4686,11.3291,11.2791,11.3027,11.2171,11.2099,11.2175,11.1714,11.1137,11.0594,11.0286,10.9098,10.7716,10.7716,10.7098,10.6405,10.6405,10.6405,10.6405,10.6405,10.6405,10.6405,10.6405,10.6405,10.6405,10.6405,10.6405,10.6405,10.6405,10.6405,10.6405,10.6405,10.6405,10.6405,10.6405,10.6405,10.6405,10.6405,10.6405,10.6405,10.6405,10.6405,10.6405,10.6405,10.6405,10.6405,10.6405,10.6405,10.6405,10.6405,10.6405,10.6405,10.6405,10.5482,10.4905,10.4405,10.3713,10.322,10.2789,10.2707,10.2481,0.0,9.8172,10.302,10.2092,9.6475,8.9722,8.3983,7.648,0.0,6.8564,6.6936,6.6359,6.8152,6.972,7.1185,7.2492,7.5469,7.9621,8.5454,9.1303,0.0,0.0,0.0,0.0,0.0,0.0,0.0,0.0,0.0,0.0,12.4207,12.411,12.3302,12.1677,12.16,12.16,12.16,12.16,12.16,12.16,12.16,12.16,12.16,12.0716,12.0284,0.0,0.0,0.0,0.0,11.4978,11.4022,11.3989,11.3093,11.2401,11.1906,11.2588,11.2401,11.1791,11.1598,11.1598,11.1406,11.0479,10.9098,10.7908,10.7716,10.7098,10.6405,10.6405,10.6405,10.6405,10.6405,10.6405,10.6405,10.6405,10.6405,10.6405,10.6521,10.6521,10.6521,10.6521,10.6521,10.6521,10.6521,10.6405,10.6405,10.6521,10.6405,10.6405,10.6405,10.6405,10.6405,10.6405,10.6405,10.6405,10.6521,10.6405,10.6405,10.6405,10.6405,10.6405,10.6405,10.6405,10.6405,10.6405,10.5482,10.5097,10.5097,10.4482,10.388,10.341,10.3112,10.2712,7.6349,0.0,8.4234,8.2088,8.0221,7.8007,0.0,7.1343,6.8501,6.6844,6.5639,6.582,6.8835,6.9169,7.0966,7.702,7.924,8.2062,8.7372,0.0,0.0,0.0,0.0,0.0,0.0,0.0,0.0,0.0,0.0,12.6101,12.4207,12.411,12.3302,12.1677,12.16,12.16,12.16,12.16,12.16,12.16,12.16,12.16,12.16,12.0716,11.9985,0.0,0.0,0.0,11.583,11.4516,11.4407,11.4802,11.3334,11.3791,11.5176,11.4104,11.3989,11.4224,11.2911,11.2368,11.2175,11.0671,10.9902,10.9406,10.8098,10.7098,10.6405,10.6405,10.6405,10.6405,10.6405,10.6405,10.6405,10.6405,10.6405,10.6597,10.729,10.7408,10.7408,10.7408,10.7408,10.7408,10.7408,10.679,10.6597,10.729,10.679,10.6405,10.6405,10.6405,10.6405,10.6405,10.6405,10.6713,10.729,10.679,10.6405,10.6405,10.6405,10.6405,10.6405,10.6405,10.6405,10.6405,10.5482,10.5097,10.5097,10.452,10.4215,10.4013,10.3329,10.2904,6.9502,7.384,7.7523,7.5736,7.4716,7.3495,7.0925,6.8116,6.5807,6.4879,0.0,6.4806,6.7449,6.851,7.071,7.6041,7.859,8.3066,0.0,0.0,0.0,0.0,0.0,0.0,0.0,0.0,0.0,0.0,0.0,12.5399,12.3581,12.3485,12.2994,12.16,12.16,12.16,12.16,12.16,12.16,12.16,12.1216,12.1023,12.1023,12.0092,11.9292,0.0,0.0,0.0,11.5792,11.4522,11.4297,11.4609,11.3676,11.3901,11.4708,11.4599,11.4604,11.4484,11.3214,11.2522,11.1983,11.1137,11.0286,10.9402,10.8479,10.7405,10.6405,10.6405,10.6405,10.6405,10.6405,10.6405,10.6405,10.6405,10.6405,10.6521,10.6982,10.7405,10.771,10.771,10.7982,10.8293,10.8293,10.7598,10.721,10.76,10.6982,10.6405,10.6405,10.6405,10.6597,10.6982,10.6982,10.7175,10.7716,10.729,10.6982,10.6982,10.6597,10.6405,10.6405,10.6405,10.6405,10.6405,10.5905,10.5713,10.5713,10.5405,10.5136,10.4787,10.4212,10.3712,6.7218,7.211,7.6519,7.4938,7.36,7.2097,6.9566,6.6153,6.3488,0.0,0.0,0.0,0.0,6.8905,0.0,0.0,0.0,0.0,0.0,0.0,0.0,0.0,0.0,0.0,0.0,0.0,0.0,0.0,0.0,12.4476,12.2966,12.2908,12.2494,12.16,12.16,12.16,12.16,12.16,12.1485,12.1408,12.0716,12.0169,12.01,11.9285,11.8523,11.7799,0.0,0.0,11.5984,11.4412,11.3873,11.3989,11.4022,11.3709,11.351,11.4901,11.4978,11.4209,11.3203,11.2286,11.1522,11.1329,11.0286,10.909,10.8782,10.771,10.6597,10.6405,10.6405,10.6405,10.6405,10.6405,10.6405,10.6405,10.6405,10.6521,10.6713,10.7402,10.7898,10.7894,10.8402,10.8909,10.8909,10.821,10.7783,10.8024,10.729,10.679,10.679,10.679,10.7021,10.76,10.7716,10.7675,10.7867,10.7639,10.76,10.7908,10.6905,10.6405,10.6405,10.6405,10.6405,10.6405,10.6405,10.6405,10.6405,10.6405,10.6213,10.5672,10.529,10.4597,6.8668,7.2135,7.3947,6.9068,6.8531,6.8597,6.6319,6.5072,6.4417,0.0,0.0,0.0,0.0,0.0,0.0,0.0,0.0,0.0,0.0,0.0,0.0,0.0,0.0,0.0,0.0,0.0,0.0,0.0,0.0,12.3879,12.3032,12.2917,12.2494,12.16,12.16,12.16,12.16,12.16,12.1216,12.0477,12.04,11.9908,11.9261,11.8414,11.7914,11.7683,0.0,11.517,11.4324,11.328,11.3286,11.4032,11.3989,11.4835,11.5907,11.6215,11.6215,11.5907,11.4297,11.2791,11.1406,11.0594,11.0209,10.9709,10.829,10.7675,10.729,10.6597,10.6405,10.6405,10.6405,10.6405,10.6405,10.6405,10.6405,10.679,10.8178,10.8601,10.8675,10.8705,10.8782,10.8902,10.8902,10.8206,10.8206,10.9604,10.9104,10.8485,10.8485,10.8521,10.8287,10.7831,10.7713,10.7979,10.8667,10.7402,10.7175,10.8601,10.729,10.6405,10.6405,10.6405,10.6405,10.6405,10.6405,10.6405,10.6405,10.6405,10.6521,10.6597,10.5597,10.4905,6.7333,6.9436,7.0834,6.8922,7.0532,7.175,6.891,6.7408,0.0,0.0,0.0,0.0,0.0,0.0,0.0,0.0,0.0,0.0,0.0,0.0,0.0,0.0,0.0,0.0,0.0,0.0,0.0,0.0,0.0,0.0,12.2224,12.2224,12.1985,12.16,12.16,12.16,12.16,12.11,12.0716,12.0284,11.9408,11.8799,11.8376,11.7491,11.7106,11.6984,0.0,11.5099,11.4604,11.333,11.2906,11.3296,11.3291,11.3786,11.4593,11.5478,11.5638,11.4978,11.4297,11.2911,11.1406,11.0978,11.0291,10.9409,10.8601,10.7716,10.6905,10.6521,10.6405,10.6405,10.6405,10.6405,10.6405,10.6405,10.6405,10.6597,10.7408,10.7905,10.8287,10.8321,10.8979,10.9598,10.9598,10.9286,10.9325,11.0098,10.9483,10.8906,10.8906,10.8902,10.8825,10.8406,10.829,10.8482,10.8902,10.8213,10.7675,10.76,10.679,10.6405,10.6405,10.6405,10.6405,10.6405,10.6405,10.6405,10.6405,10.6521,10.6713,10.679,10.6287,10.5788,6.6346,6.7456,6.8816,7.0049,7.232,7.3976,7.3005,0.0,0.0,0.0,0.0,0.0,0.0,0.0,0.0,0.0,0.0,0.0,0.0,0.0,0.0,0.0,0.0,0.0,0.0,0.0,0.0,0.0,0.0,0.0,12.16,12.16,12.16,12.16,12.1408,12.1293,12.1293,12.0207,11.9784,11.9985,11.853,11.7683,11.7491,11.6792,11.6407,11.6215,11.5362,11.4907,11.4609,11.2988,11.2526,11.2719,11.2709,11.278,11.3209,11.4516,11.4401,11.3709,11.3719,11.2603,11.1214,11.0978,10.9906,10.8601,10.8409,10.7408,10.6405,10.6405,10.6405,10.6405,10.6405,10.6597,10.6713,10.6405,10.6713,10.6905,10.6713,10.7402,10.8014,10.7971,10.9021,10.9989,11.022,11.0175,11.0286,11.0479,10.9902,10.9474,10.9474,10.9474,10.9402,10.9213,10.9217,10.9101,10.8906,10.8906,10.8406,10.7098,10.6597,10.6521,10.6713,10.6521,10.6405,10.6405,10.6405,10.6405,10.6405,10.6597,10.6679,10.6834,10.6686,10.6392,6.7564,6.8552,6.9207,7.0542,6.9882,0.0,7.6996,7.6236,0.0,8.0396,0.0,0.0,0.0,0.0,0.0,0.0,0.0,0.0,0.0,0.0,0.0,0.0,0.0,0.0,0.0,0.0,0.0,0.0,0.0,0.0,12.16,12.16,12.16,12.16,12.0831,12.04,12.04,11.8777,11.84,11.9229,11.8183,11.7414,11.6599,11.6484,11.6099,11.5285,11.4516,11.3593,11.2796,11.1906,11.1983,11.2719,11.2719,11.3219,11.3912,11.3978,11.351,11.2818,11.2791,11.1714,11.0209,10.9397,10.8513,10.7629,10.6787,10.6521,10.6405,10.6405,10.6405,10.6405,10.6405,10.6982,10.7408,10.6597,10.76,10.8485,10.7793,10.8216,10.8832,10.8782,10.8902,10.929,11.0094,11.0209,11.0479,11.1329,11.1406,11.1329,11.1329,11.1329,11.1021,11.0214,11.0098,10.979,10.8983,10.8906,10.879,10.8713,10.729,10.679,10.7598,10.679,10.6405,10.6405,10.6405,10.6405,10.6405,10.6405,10.6601,10.6776,10.6521,10.6215,6.5649,6.7691,6.9893,7.1978,7.2821,0.0,0.0,8.0708,8.294,0.0,0.0,0.0,0.0,0.0,0.0,0.0,0.0,0.0,0.0,0.0,0.0,0.0,0.0,0.0,0.0,0.0,0.0,0.0,0.0,0.0,12.16,12.16,12.1408,12.0831,12.0477,12.01,11.9607,11.8407,11.7984,11.8299,11.7414,11.6599,11.583,11.583,11.5285,11.4401,11.3637,11.2983,11.2603,11.1791,11.1714,11.1983,11.1983,11.2526,11.3219,11.3176,11.3022,11.2714,11.2676,11.1983,11.0906,11.0025,10.9098,10.829,10.7482,10.679,10.6405,10.6405,10.6405,10.6405,10.6405,10.6597,10.6828,10.6514,10.6902,10.729,10.6976,10.7095,10.7521,10.8014,10.859,10.921,11.0017,11.0594,11.1137,11.1522,11.1522,11.1522,11.1522,11.1522,11.1214,11.0291,11.0214,11.0098,10.9713,10.9713,10.9906,11.0521,10.8906,10.8098,10.8406,10.7598,10.7213,10.7213,10.6713,10.6405,10.6405,10.6597,10.668,10.6789,10.668,10.6713,6.4031,6.5972,6.8618,7.1886,0.0,0.0,8.2621,8.6065,8.9648,9.4901,0.0,0.0,0.0,0.0,0.0,0.0,0.0,0.0,0.0,0.0,0.0,0.0,0.0,0.0,0.0,0.0,0.0,0.0,0.0,0.0,0.0,12.0869,12.0523,11.99,11.9715,11.9107,11.8305,11.7683,11.7106,11.6606,11.6484,11.6099,11.5285,11.5291,11.4714,11.3593,11.2983,11.2603,11.2291,11.1714,11.1522,11.1522,11.1214,11.1598,11.2291,11.1983,11.2099,11.2291,11.1983,11.1406,11.0479,10.9675,10.8793,10.7985,10.7523,10.6905,10.6405,10.6405,10.6405,10.6405,10.6405,10.6597,10.6713,10.6514,10.6787,10.7021,10.6514,10.6595,10.7098,10.7898,10.8475,10.9325,11.0402,11.1137,11.1522,11.1522,11.1522,11.1522,11.1522,11.1522,11.1291,11.0714,11.0406,11.0291,11.0598,11.0406,11.0598,11.1406,11.0406,10.9598,10.929,10.829,10.7713,10.7713,10.679,10.6405,10.6405,10.6597,10.6713,10.6713,10.6713,10.679,6.3315,6.3551,6.4999,0.0,0.0,0.0,9.0147,9.2564,9.5202,10.4489,0.0,0.0,0.0,0.0,0.0,0.0,0.0,0.0,0.0,0.0,0.0,0.0,0.0,0.0,0.0,0.0,0.0,0.0,0.0,12.03,12.0313,11.9492,11.9138,11.9131,11.8177,11.7419,11.65,11.649,11.5599,11.3984,11.5676,11.6099,11.5285,11.5302,11.4301,11.2719,11.2719,11.2175,11.1522,11.1522,11.1522,11.1406,11.0479,11.0671,11.1406,11.0479,11.0671,11.1406,11.0479,10.959,10.8821,10.7971,10.7091,10.6405,10.6405,10.6405,10.6405,10.6405,10.6405,10.6405,10.6405,10.6982,10.7523,10.6597,10.7716,10.837,10.679,10.7098,10.7908,10.8713,10.8906,10.9479,11.1214,11.1522,11.1522,11.1522,11.1522,11.1522,11.1522,11.1522,11.1522,11.1522,11.0714,11.0598,11.1406,11.0714,11.0598,11.1406,11.1522,11.1098,11.0214,10.8598,10.7713,10.7713,10.679,10.6405,10.6405,10.6405,10.6405,10.6405,10.6405,10.6521,6.4383,6.6448,0.0,7.3597,0.0,0.0,0.0,9.6981,0.0,0.0,0.0,0.0,0.0,0.0,0.0,0.0,0.0,0.0,0.0,0.0,0.0,0.0,0.0,0.0,0.0,0.0,12.0723,12.0723,11.9869,11.953,11.9492,11.9184,11.8799,11.8215,11.7298,11.6496,11.5726,11.4989,11.4527,11.3984,11.4527,11.4291,11.3478,11.4104,11.3488,11.1906,11.1906,11.1714,11.1522,11.0791,11.0602,11.0483,10.9594,10.9402,10.9601,10.9402,10.9397,10.959,10.9397,10.9094,10.879,10.8021,10.7482,10.7175,10.6597,10.6405,10.6405,10.6405,10.6405,10.6405,10.6405,10.6597,10.6713,10.6521,10.679,10.6982,10.6521,10.6597,10.7175,10.8601,10.8867,10.9521,11.1214,11.1522,11.1522,11.1522,11.1522,11.1522,11.1522,11.1522,11.1522,11.1522,11.1291,11.1214,11.1522,11.1291,11.1214,11.1522,11.1522,11.1406,11.1098,10.9483,10.8482,10.8482,10.7098,10.6405,10.6405,10.6405,10.6405,10.6405,10.6405,10.6597,6.5807,6.8206,0.0,7.764,8.4672,9.2516,0.0,0.0,0.0,0.0,0.0,0.0,0.0,0.0,0.0,0.0,0.0,0.0,0.0,0.0,12.16,12.16,12.16,12.1485,12.1108,12.03,11.9684,11.9299,11.8222,11.76,11.7606,11.7606,11.7221,11.6285,11.5797,11.5105,11.4297,11.3373,11.2796,11.2483,11.2834,11.2368,11.1171,11.2796,11.2603,11.0983,11.0598,11.0714,11.0863,11.0021,10.9675,10.9601,10.8829,10.8598,10.887,10.8521,10.8594,10.8863,10.8479,10.8406,10.8293,10.7523,10.7175,10.7098,10.6597,10.6405,10.6405,10.6405,10.6405,10.6405,10.6405,10.6405,10.6521,10.679,10.6713,10.6521,10.679,10.6864,10.7287,10.8601,10.9175,10.9906,11.1291,11.1522,11.1522,11.1522,11.1522,11.1522,11.1522,11.1522,11.1522,11.1522,11.1522,11.1522,11.1522,11.1522,11.1406,11.1021,11.0983,11.0983,11.0983,10.9598,10.8906,10.8906,10.729,10.6405,10.6405,10.6405,10.6521,10.6597,10.6597,10.679,6.7564,6.9502,0.0,8.187,8.9173,0.0,0.0,0.0,0.0,0.0,0.0,0.0,0.0,0.0,0.0,0.0,0.0,0.0,0.0,0.0,12.1485,12.1485,12.1485,12.1108,12.0307,11.9376,11.8491,11.7689,11.6105,11.5176,11.5182,11.522,11.483,11.3972,11.3901,11.3401,11.2603,11.168,11.091,11.0098,11.0906,11.0406,10.8983,11.1368,11.1598,10.9983,10.9171,10.9286,11.0017,10.909,10.8787,10.8678,10.7908,10.7985,10.8601,10.7908,10.7985,10.8601,10.7793,10.76,10.7523,10.6713,10.6405,10.6405,10.6405,10.6405,10.6405,10.6405,10.6405,10.6405,10.6405,10.6405,10.6597,10.7598,10.7098,10.6713,10.7523,10.771,10.7898,10.8671,10.9479,11.0402,11.1329,11.1522,11.1522,11.1522,11.1522,11.1522,11.1522,11.1522,11.1522,11.1522,11.1522,11.1522,11.1522,11.1406,11.1098,11.0406,11.0214,11.0214,11.0291,10.9406,10.8906,10.8906,10.729,10.6521,10.6405,10.6405,10.6521,10.679,10.679,10.7098,6.9948,7.2984,0.0,0.0,9.7616,10.8004,11.3787,0.0,0.0,0.0,0.0,0.0,0.0,0.0,0.0,0.0,0.0,0.0,0.0,0.0,0.0,12.0639,12.0639,12.0284,11.94,11.8016,11.6977,11.6836,11.5176,11.4291,11.4291,11.4286,11.4209,11.3972,11.2709,11.1906,11.1791,11.0209,10.9402,10.9213,10.9406,10.929,10.8906,11.0175,11.0214,10.9171,10.9017,10.9017,10.9098,10.8287,10.7979,10.7905,10.7021,10.679,10.6905,10.6713,10.679,10.6905,10.6713,10.6713,10.6597,10.6521,10.6405,10.6405,10.6405,10.6405,10.6405,10.6405,10.6405,10.6405,10.6405,10.6405,10.6828,10.8325,10.8014,10.7475,10.7675,10.7675,10.7905,10.871,10.909,10.9709,11.1214,11.1522,11.1522,11.1522,11.1522,11.1522,11.1522,11.1522,11.1522,11.1522,11.1522,11.1522,11.1522,11.0906,11.0714,11.1214,10.9906,10.979,11.1214,10.9713,10.8906,10.8906,10.7905,10.7098,10.6405,10.6405,10.6521,10.679,10.679,10.7098,7.1595,0.0,0.0,9.3976,0.0,11.2966,11.64,11.8092,0.0,0.0,0.0,0.0,0.0,0.0,0.0,0.0,0.0,0.0,0.0,0.0,12.0207,11.9784,11.9715,11.9177,11.7977,11.5894,11.4702,11.4714,11.267,11.1709,11.2214,11.2209,11.2017,11.1588,11.0709,11.0329,11.0294,10.8636,10.7902,10.8329,10.7905,10.7713,10.7713,10.8598,10.9021,10.8906,10.8094,10.7902,10.8325,10.7402,10.7095,10.6979,10.6597,10.6405,10.6405,10.6405,10.6405,10.6405,10.6405,10.6405,10.6405,10.6405,10.6405,10.6405,10.6405,10.6405,10.6405,10.6405,10.6405,10.6405,10.6405,10.6405,10.6713,10.7979,10.7975,10.7898,10.8671,10.8906,10.9021,10.9402,10.9902,11.0402,11.1329,11.1829,11.2099,11.2099,11.2099,11.2099,11.2099,11.1714,11.1522,11.1522,11.1522,11.1291,11.0906,11.0791,11.0714,11.0291,10.979,10.9906,11.0791,10.9983,10.929,10.8906,10.8098,10.729,10.6405,10.6405,10.6597,10.7023,10.701,10.7298,7.2227,0.0,8.4786,10.1008,10.9392,0.0,11.6792,11.7991,11.8876,11.9715,0.0,0.0,0.0,0.0,0.0,12.04,12.0139,11.9677,11.9229,11.953,11.9592,11.87,11.8677,11.7875,11.5984,11.3818,11.2389,11.2329,11.0209,10.9167,10.9902,10.9979,10.9594,10.8902,10.8825,10.8671,10.8719,10.6982,10.6479,10.721,10.6402,10.602,10.6213,10.6902,10.7671,10.8406,10.7021,10.6787,10.7399,10.671,10.6328,10.6213,10.6328,10.6328,10.6213,10.6328,10.6405,10.6405,10.6405,10.6405,10.6405,10.6405,10.6405,10.6405,10.6405,10.6405,10.6405,10.6405,10.6405,10.6405,10.6405,10.6405,10.6597,10.7482,10.771,10.809,10.9594,10.9979,10.9979,11.0209,11.0863,11.1522,11.1522,11.2214,11.2714,11.2714,11.2791,11.2906,11.2714,11.2099,11.1714,11.1522,11.1522,11.1214,11.0483,11.0906,11.0714,10.9406,10.9713,11.0098,11.0406,11.0291,10.9906,10.9098,10.829,10.7521,10.6597,10.6521,10.6713,10.7216,10.717,10.7483,7.0542,0.0,9.2948,0.0,10.847,11.2522,0.0,0.0,11.7061,0.0,11.9408,12.0716,12.1485,12.1023,12.04,12.0284,11.91,11.8414,11.8998,11.8491,11.7792,11.6885,11.6785,11.5869,11.3411,11.2291,11.1291,11.0605,10.9521,10.9017,10.9101,10.9101,10.8986,10.8909,10.8216,10.7908,10.7908,10.6097,10.5287,10.5403,10.4593,10.4593,10.5287,10.5403,10.5903,10.6713,10.6521,10.6521,10.6636,10.6405,10.602,10.5287,10.6097,10.5864,10.5403,10.6097,10.6405,10.6405,10.6405,10.6405,10.6405,10.6405,10.6405,10.6405,10.6405,10.6405,10.6405,10.6405,10.6405,10.6405,10.6405,10.6405,10.6597,10.7521,10.7671,10.7979,10.8906,10.9098,10.929,11.0098,11.0906,11.1522,11.1522,11.2214,11.2714,11.2714,11.3291,11.3599,11.2791,11.2599,11.2291,11.1598,11.1522,11.1522,11.1291,11.0714,11.0598,11.1098,10.979,10.979,11.1291,11.0598,11.0098,10.9983,10.9213,10.829,10.7521,10.679,10.6713,10.7216,10.717,10.7483,7.5324,8.4019,9.3328,0.0,10.7594,11.0709,11.3291,0.0,11.5285,11.6215,11.7023,11.8092,11.99,11.99,11.9477,11.8985,11.8299,11.7606,11.6984,11.6984,11.6599,11.5317,11.5099,11.4297,11.2175,11.0833,10.9909,10.9489,10.8213,10.7713,10.8178,10.729,10.679,10.679,10.602,10.5595,10.5595,10.4826,10.4403,10.4366,10.4095,10.4095,10.4366,10.4366,10.4905,10.5672,10.6213,10.6097,10.5672,10.5672,10.521,10.4518,10.4789,10.4789,10.4477,10.5403,10.5672,10.5672,10.6213,10.6405,10.6405,10.6405,10.6405,10.6405,10.6405,10.6405,10.6405,10.6405,10.6405,10.6405,10.6405,10.6405,10.6521,10.6905,10.7328,10.7905,10.8713,10.929,10.9906,11.0791,11.1214,11.1522,11.1522,11.2599,11.3407,11.3407,11.4214,11.4407,11.3483,11.3022,11.2406,11.1598,11.1522,11.1291,11.0791,11.0906,11.0906,11.0791,11.0521,11.0714,11.1522,11.1098,11.0906,11.0906,11.0098,10.8983,10.7713,10.729,10.7213,10.7216,10.717,10.7483,0.0,0.0,8.9906,9.9249,10.4287,10.7821,0.0,0.0,11.3324,0.0,11.4791,11.5522,11.7208,11.7823,11.79,11.7292,11.6984,11.6292,11.4785,11.5176,11.4912,11.3214,11.3027,11.2411,11.0671,10.9409,10.837,10.7985,10.679,10.6328,10.6713,10.548,10.4787,10.4828,10.4211,10.3903,10.3903,10.3711,10.3597,10.3599,10.3288,10.3405,10.3599,10.3599,10.3906,10.448,10.5403,10.5403,10.4826,10.4787,10.4287,10.3595,10.379,10.3829,10.3711,10.4713,10.5095,10.521,10.6097,10.6405,10.6405,10.6405,10.6405,10.6405,10.6405,10.6405,10.6405,10.6405,10.6405,10.6405,10.6405,10.6405,10.6405,10.6405,10.7098,10.7982,10.8983,10.9906,11.0714,11.1406,11.1522,11.1522,11.1522,11.2714,11.3714,11.3714,11.4407,11.4714,11.3791,11.3099,11.2406,11.1598,11.1522,11.1214,11.0598,11.1098,11.1214,11.0598,11.1098,11.1522,11.1522,11.1522,11.1522,11.1522,11.0906,10.9713,10.7982,10.7982,10.7713,10.7216,10.743,10.7795,0.0,7.7047,0.0,9.0223,9.6866,10.2973,0.0,0.0,11.0902,11.2483,11.3488,11.3873,11.3219,11.4407,11.5478,11.5401,11.4708,11.3895,11.3011,11.2873,11.2305,11.0567,11.0413,10.9713,10.8086,10.7787,10.7098,10.5403,10.521,10.4903,10.4093,10.4016,10.398,10.4022,10.3907,10.3907,10.3907,10.3098,10.2713,10.2713,10.1789,10.1904,10.2713,10.2713,10.2713,10.2828,10.3711,10.4016,10.3977,10.4021,10.3483,10.2713,10.3599,10.3367,10.2905,10.4484,10.5099,10.521,10.6097,10.6405,10.6405,10.6405,10.6405,10.6405,10.6405,10.6405,10.6405,10.6405,10.6405,10.6405,10.6405,10.6405,10.6405,10.6405,10.7098,10.8098,10.979,11.0791,11.1406,11.1522,11.1522,11.1522,11.1522,11.2214,11.2791,11.2791,11.3483,11.3791,11.2906,11.2714,11.2406,11.1598,11.1522,11.1522,11.1406,11.1522,11.1522,11.1406,11.1522,11.1522,11.1522,11.1522,11.1522,11.1522,11.1522,11.0598,10.879,10.879,10.829,10.7216,10.8012,10.8705,0.0,0.0,0.0,8.6675,9.2638,9.7596,10.2171,10.5976,10.8821,10.9397,11.0098,11.0602,11.0286,11.2099,11.3599,11.3599,11.2906,11.2094,11.1166,11.1102,11.0685,10.9489,10.9412,10.8909,10.7829,10.7675,10.6982,10.521,10.5097,10.4714,10.3866,10.3405,10.3097,10.3098,10.252,10.2213,10.2213,10.1904,10.1789,10.1789,10.1404,10.1481,10.1789,10.1789,10.1789,10.1789,10.2096,10.248,10.3097,10.3098,10.2597,10.1789,10.2097,10.1981,10.1904,10.3098,10.3789,10.44,10.471,10.548,10.6328,10.5672,10.5864,10.6405,10.6405,10.6405,10.6405,10.6405,10.6405,10.6405,10.6405,10.6405,10.6521,10.7098,10.7905,10.879,10.9906,11.0906,11.1522,11.1522,11.1522,11.1522,11.1522,11.2214,11.2714,11.2714,11.3407,11.3714,11.2791,11.2714,11.2406,11.1598,11.1522,11.1522,11.1522,11.1522,11.1522,11.1522,11.1522,11.1522,11.1522,11.1522,11.1522,11.1522,11.1522,11.0598,10.8906,10.9483,10.9098,10.779,10.8295,10.8705,7.0028,0.0,0.0,0.0,8.7198,9.1177,9.7712,0.0,10.432,10.5704,10.7095,10.8024,10.771,10.8979,11.0406,11.1295,11.1025,11.0291,10.9521,10.9409,10.9027,10.8178,10.8101,10.7908,10.729,10.6982,10.6213,10.4826,10.4406,0.0,10.3098,10.252,10.2213,10.2213,10.1597,10.1289,10.1289,10.1289,10.1289,10.1289,10.1289,10.1289,10.1289,10.1289,10.1289,10.1289,10.1289,10.1597,10.2213,10.2213,10.1789,10.1289,10.1289,10.1289,10.1404,10.2328,10.2981,10.3518,10.4093,10.498,10.5907,10.5636,10.5672,10.602,10.5982,10.579,10.5597,10.5905,10.602,10.602,10.629,10.6405,10.6597,10.7521,10.829,10.9098,10.9983,11.0906,11.1522,11.1522,11.1522,11.1522,11.1522,11.1906,11.2291,11.2291,11.2791,11.2983,11.2406,11.2291,11.2099,11.1598,11.1522,11.1522,11.1522,11.1522,11.1522,11.1522,11.1522,11.1598,11.1906,11.1598,11.1598,11.1906,11.1598,11.0791,10.929,11.0214,10.9906,10.8479,10.9111,10.9173,0.0,0.0,0.0,0.0,0.0,0.0,9.4522,0.0,9.7173,10.1516,10.4285,10.5905,10.521,10.5018,10.5905,10.837,10.8834,10.8485,10.7716,10.76,10.729,10.6405,10.6328,10.6328,10.6328,10.5595,10.471,10.3901,10.3097,10.2213,10.1289,10.1289,10.1289,10.1289,10.1289,10.1289,10.1289,10.1289,10.1289,10.1289,10.1289,10.1289,10.1289,10.1289,10.1289,10.1289,10.1289,10.1289,10.1289,10.1289,10.1289,10.1289,10.1289,10.1289,10.1404,10.2213,10.2597,10.2828,10.4403,10.4982,10.5177,10.5982,10.5672,10.5095,10.5099,10.4482,10.4095,10.4905,10.5097,10.529,10.6213,10.6405,10.6597,10.7482,10.829,10.9098,10.9983,11.0791,11.1522,11.1522,11.1522,11.1522,11.1522,11.1522,11.1522,11.1522,11.1522,11.1522,11.1522,11.1522,11.1522,11.1522,11.1522,11.1522,11.1598,11.1598,11.1522,11.1522,11.1522,11.1906,11.2599,11.1906,11.1906,11.2714,11.1906,11.1098,11.0291,11.1098,11.0829,10.9406,11.0406,11.0379,6.5897,0.0,0.0,0.0,0.0,0.0,0.0,0.0,8.9609,9.506,9.721,9.921,10.2712,10.3829,10.4483,10.5216,10.529,10.5403,10.5787,10.5287,10.4903,10.4593,10.4593,10.4593,10.4593,10.44,10.3903,0.0,10.2713,10.2213,10.1289,10.1289,10.1289,10.1289,10.1289,10.1289,10.1289,10.1289,10.1289,10.1289,10.1289,10.1289,10.1289,10.1289,10.1289,10.1289,10.1289,10.1289,10.1289,10.1289,10.1289,10.1289,10.1289,10.1289,10.1289,10.1597,10.2097,10.2597,10.2404,10.3172,10.4211,10.3785,10.3901,10.4211,10.4214,10.4098,10.4098,10.4905,10.5097,10.5287,10.6213,10.6405,10.6521,10.6713,10.7405,10.829,10.9098,10.9906,11.0714,11.1406,11.1522,11.1522,11.1522,11.1522,11.1522,11.1522,11.1522,11.1522,11.1522,11.1522,11.1714,11.2291,11.2406,11.2599,11.3291,11.2714,11.2406,11.2406,11.1791,11.1598,11.1791,11.1598,11.1906,11.2714,11.1906,11.1714,11.1983,11.1714,11.1021,10.9906,10.9793,10.9524,0.0,0.0,0.0,0.0,0.0,0.0,7.8552,8.082,8.3516,0.0,9.2021,9.41,9.8173,9.9904,10.1019,10.1712,10.2096,10.2826,10.4405,10.4212,10.3905,10.3905,10.3905,10.3905,10.3905,10.3595,10.3135,10.2597,10.2328,10.1789,10.1289,10.1289,10.1289,10.1289,10.1289,10.1096,10.0788,10.1096,10.1096,10.0788,10.1096,10.1289,10.1289,10.1289,10.1289,10.1289,10.1289,10.1289,10.1289,10.1289,10.1289,10.1289,10.1289,10.1289,10.1289,10.1289,10.1597,10.1981,10.1904,10.252,10.3288,10.3211,10.3211,10.3365,10.3406,10.3098,10.3021,10.3829,10.4597,10.5287,10.6213,10.6405,10.6405,10.6405,10.7098,10.779,10.829,10.9098,10.9983,11.1291,11.1522,11.1522,11.1522,11.1522,11.1522,11.1522,11.1522,11.1522,11.1522,11.1522,11.1714,11.2099,11.2214,11.2522,11.3407,11.2983,11.2714,11.2714,11.2291,11.2022,11.2022,11.1714,11.1906,11.2714,11.1906,11.1714,11.2214,11.1714,11.1098,11.041,10.9994,10.9392,0.0,0.0,0.0,0.0,0.0,0.0,7.6778,7.746,7.8398,0.0,8.741,8.938,9.2296,9.4446,9.6175,9.7443,9.8865,10.0673,10.3367,10.3714,10.3599,10.3599,10.3599,10.3599,10.3599,10.2905,10.252,10.252,10.1712,10.1289,10.1212,10.1212,10.1212,10.1212,10.1096,10.0673,9.9981,10.0712,10.0712,9.9981,10.0788,10.1212,10.1212,10.1212,10.1212,10.1289,10.1212,10.1212,10.1289,10.1289,10.1289,10.1289,10.1289,10.1289,10.1289,10.1289,10.1289,10.1404,10.2213,10.252,10.2597,10.3367,10.3098,10.252,10.252,10.1904,10.152,10.252,10.3866,10.529,10.6213,10.6405,10.6405,10.6405,10.7021,10.7598,10.7713,10.829,10.929,11.0906,11.1214,11.1214,11.1214,11.1291,11.1406,11.1406,11.1406,11.1522,11.1522,11.1522,11.1522,11.1598,11.1598,11.2022,11.2906,11.2906,11.2791,11.2791,11.2791,11.2714,11.2599,11.1906,11.1906,11.2714,11.2022,11.1598,11.1522,11.1522,11.1214,11.0598,11.0521,10.9713,0.0,0.0,0.0,0.0,0.0,0.0,7.0144,7.0902,7.3289,0.0,7.9023,8.1363,8.6642,9.0129,9.1861,9.0837,9.4792,9.9134,10.2405,10.2213,10.1789,10.1789,10.1789,10.1789,10.1789,10.1712,10.1597,10.1597,10.1404,10.1019,10.0404,10.0288,10.0288,10.0288,9.9673,9.9211,9.9057,9.9211,9.9211,9.9057,9.9942,10.0288,10.0288,10.0288,10.0673,10.1289,10.0596,10.0673,10.1289,10.1289,10.1289,10.1289,10.1289,10.1289,10.1289,10.1289,10.1289,10.1289,10.1481,10.1597,10.1597,10.1789,10.1712,10.1597,10.1597,10.1404,10.1597,10.3212,10.4289,10.529,10.6213,10.6405,10.6405,10.6405,10.6521,10.679,10.7521,10.779,10.8213,10.9213,10.9406,10.9406,10.9406,10.9983,11.0483,11.0483,11.1098,11.1522,11.1522,11.1522,11.1714,11.2406,11.2522,11.3099,11.4714,11.4099,11.3714,11.3714,11.3099,11.2406,11.1791,11.1598,11.1906,11.2714,11.2522,11.2099,11.1522,11.1522,11.1098,11.0291,10.9598,10.8906,0.0,0.0,0.0,6.9452,0.0,0.0,0.0,6.9321,7.0348,7.5022,7.5361,7.6425,8.1932,8.3996,8.5312,8.6607,8.9979,9.382,9.7635,9.9634,10.0673,10.0673,10.0673,10.0673,10.0673,10.1096,10.1096,10.0673,10.0712,10.0289,9.9519,9.9442,9.9442,9.9442,9.9019,9.8596,9.8135,9.8595,9.8595,9.8135,9.9019,9.9481,9.9442,9.9442,9.9673,10.0019,9.9634,9.9711,10.0096,10.048,10.0673,10.0673,10.1096,10.1289,10.1289,10.1289,10.1289,10.1289,10.1289,10.1289,10.1289,10.1289,10.1289,10.1289,10.1289,10.1289,10.1597,10.2904,10.3905,10.4713,10.5482,10.6097,10.6405,10.6405,10.6405,10.6521,10.7021,10.7098,10.7213,10.7598,10.7713,10.7905,10.879,10.9598,11.0214,11.0214,11.0906,11.1522,11.1522,11.1522,11.1714,11.2099,11.2099,11.2791,11.4484,11.4291,11.3984,11.3984,11.3599,11.2791,11.1598,11.1522,11.1714,11.2099,11.2099,11.1906,11.1522,11.1522,11.0791,10.9598,10.9483,10.8713,0.0,0.0,0.0,0.0,0.0,6.9809,0.0,0.0,0.0,7.3378,7.2783,0.0,0.0,0.0,0.0,8.1708,0.0,0.0,0.0,9.5176,0.0,9.8789,9.8865,9.9019,9.9326,9.9827,9.9942,9.9634,9.9172,9.8788,9.8596,9.8404,9.8366,9.8555,9.8401,9.7979,9.7287,9.7787,9.7787,9.7287,9.7979,9.8365,9.8519,9.8519,9.8634,9.8786,9.8596,9.8634,9.8865,9.9711,10.0096,10.0211,10.1019,10.1289,10.1289,10.1289,10.1289,10.1289,10.1289,10.1289,10.1289,10.1289,10.1289,10.1289,10.1289,10.1289,10.152,10.2404,10.3097,10.3905,10.4789,10.5597,10.6213,10.6405,10.6405,10.6405,10.6405,10.6405,10.6405,10.6405,10.6405,10.6905,10.8406,10.9406,10.9983,11.0214,11.0906,11.1522,11.1522,11.1522,11.1522,11.1522,11.1522,11.2099,11.3599,11.3714,11.3714,11.3714,11.3714,11.3099,11.1598,11.1522,11.1522,11.1522,11.1522,11.1522,11.1522,11.1522,11.0714,10.9213,10.9906,10.8906,0.0,0.0,0.0,0.0,7.5284,0.0,0.0,0.0,7.0028,6.845,0.0,0.0,0.0,0.0,0.0,0.0,0.0,0.0,8.3648,8.7291,9.1091,9.406,9.4445,9.5022,9.6558,9.6136,9.629,9.7673,9.5713,9.5366,9.7519,9.698,9.6903,9.7633,9.6942,9.6519,9.6442,9.5751,9.5751,9.6442,9.6519,9.6942,9.7672,9.7672,9.8056,9.8748,9.7979,9.8095,9.8902,9.9749,10.0096,10.0211,10.1019,10.1289,10.1289,10.1289,10.1289,10.1289,10.1289,10.1289,10.1289,10.1289,10.1289,10.1289,10.1289,10.1289,10.152,10.2404,10.2712,10.3097,10.4713,10.5213,10.5405,10.6213,10.6405,10.6405,10.6405,10.6405,10.6405,10.6405,10.6405,10.6713,10.7713,10.8482,10.929,11.0098,11.0906,11.1522,11.1522,11.1522,11.1522,11.1522,11.1522,11.1906,11.2791,11.2791,11.2791,11.2791,11.2791,11.2406,11.1522,11.1522,11.1522,11.1522,11.1522,11.1522,11.1522,11.1522,11.1021,11.0098,11.0175,10.9213,0.0,0.0,0.0,0.0,0.0,0.0,0.0,0.0,6.8103,0.0,0.0,0.0,0.0,0.0,0.0,0.0,7.3921,0.0,0.0,0.0,8.3269,9.0594,0.0,0.0,9.2373,9.2718,9.333,9.4506,9.3136,9.3138,9.517,9.5441,9.5674,9.6057,9.5712,9.5289,9.4828,9.4406,9.4406,9.4789,9.4789,9.4982,9.5289,9.5826,9.6249,9.6596,9.6711,9.698,9.7441,9.8786,9.9365,9.948,10.0788,10.1289,10.1289,10.1289,10.1289,10.1289,10.1289,10.1289,10.1289,10.1289,10.1289,10.1289,10.1289,10.1289,10.1404,10.1712,10.2212,10.2904,10.4097,10.4405,10.4597,10.5405,10.5597,10.5597,10.5597,10.602,10.6405,10.6405,10.6405,10.6713,10.7521,10.8406,10.8906,10.879,11.0291,11.1291,11.0791,11.1214,11.1522,11.1522,11.1522,11.1791,11.2599,11.2714,11.2714,11.2714,11.2291,11.1906,11.1522,11.1522,11.1522,11.1522,11.1522,11.1522,11.1522,11.1522,11.1291,11.0906,10.9906,10.9098,7.763,0.0,0.0,0.0,0.0,0.0,0.0,0.0,0.0,0.0,0.0,0.0,0.0,0.0,0.0,0.0,0.0,7.2315,0.0,7.4043,0.0,0.0,0.0,0.0,0.0,8.9491,9.0094,9.1693,8.9898,8.9873,9.2515,9.3251,9.383,9.4291,9.452,9.4328,9.3713,9.3484,9.3484,9.3714,9.3484,9.3597,9.4059,9.4711,9.5134,9.5366,9.6057,9.6288,9.6403,9.7825,9.8557,9.8942,10.0404,10.1096,10.1289,10.1289,10.1289,10.1289,10.1289,10.1289,10.1289,10.1289,10.1289,10.1289,10.1289,10.1289,10.1289,10.1289,10.1789,10.252,10.3597,10.3712,10.3789,10.4905,10.5097,10.5097,10.5097,10.579,10.6405,10.6405,10.6405,10.6597,10.7213,10.8021,10.8406,10.8098,10.979,11.0906,11.0291,11.0983,11.1522,11.1522,11.1522,11.1791,11.2599,11.2522,11.2406,11.2406,11.1791,11.1522,11.1522,11.1522,11.1522,11.1522,11.1522,11.1522,11.1522,11.1522,11.1406,11.1098,11.0098,10.9406,0.0,0.0,0.0,7.6476,0.0,0.0,0.0,0.0,7.0321,0.0,0.0,0.0,0.0,0.0,0.0,0.0,0.0,0.0,0.0,0.0,0.0,0.0,0.0,0.0,0.0,8.6517,8.6461,8.9716,8.5421,8.4763,8.9752,9.0029,9.0837,9.2524,9.3326,9.3743,9.3705,9.2907,9.2909,9.3714,9.2903,9.3397,9.4972,9.501,9.5476,9.6249,9.6288,9.6288,9.6365,9.721,9.8057,9.8904,9.9788,10.0596,10.1289,10.1289,10.1289,10.1289,10.1289,10.1289,10.1289,10.1289,10.1289,10.1289,10.1289,10.1289,10.1289,10.1289,10.1289,10.1712,10.3482,10.3289,10.3097,10.4713,10.5097,10.5097,10.5097,10.579,10.6405,10.6405,10.6405,10.6405,10.6405,10.7213,10.7982,10.8713,10.9598,11.0214,11.0214,11.0983,11.1522,11.1522,11.1522,11.1791,11.2599,11.2022,11.1522,11.1522,11.1522,11.1522,11.1522,11.1522,11.1522,11.1522,11.1522,11.1522,11.1522,11.1522,11.1098,11.0291,11.1021,11.0521,0.0,0.0,8.5324,8.0208,0.0,0.0,0.0,0.0,0.0,0.0,0.0,0.0,0.0,0.0,0.0,0.0,0.0,0.0,0.0,0.0,0.0,0.0,0.0,0.0,0.0,0.0,8.0536,8.2207,7.9715,8.0613,8.6313,8.7632,8.9021,9.0716,9.1021,9.1441,9.2053,9.1213,9.1177,9.2021,9.1787,9.2245,9.3358,9.3903,9.4597,9.5443,9.6057,9.6288,9.6365,9.7171,9.8018,9.8865,9.975,10.0596,10.1289,10.1289,10.1289,10.1289,10.1289,10.1289,10.1289,10.1289,10.1289,10.1289,10.1289,10.1289,10.1289,10.1289,10.1289,10.1597,10.2712,10.2404,10.202,10.3212,10.3405,10.3597,10.4212,10.4982,10.5713,10.629,10.6405,10.6405,10.6405,10.6597,10.6905,10.7213,10.8906,10.9983,10.9406,11.0598,11.1522,11.1522,11.1522,11.1598,11.1906,11.1714,11.1522,11.1522,11.1522,11.1522,11.1522,11.1522,11.1522,11.1522,11.1522,11.1522,11.1522,11.1522,11.1291,11.1098,11.1406,11.0598,8.4516,8.5901,0.0,8.217,8.0092,0.0,7.2937,0.0,0.0,0.0,0.0,0.0,0.0,0.0,0.0,0.0,0.0,0.0,0.0,6.5832,0.0,0.0,0.0,0.0,0.0,7.5986,7.6169,7.6685,7.5408,7.6694,8.1462,8.4196,8.6363,8.806,8.9021,8.9867,9.0744,8.9906,9.0059,9.121,9.0902,9.1364,9.2515,9.3328,9.4176,9.5058,9.5942,9.6288,9.6326,9.6865,9.7749,9.8863,9.9404,10.0288,10.1289,10.1289,10.1289,10.1289,10.1289,10.1289,10.1289,10.1289,10.1289,10.1289,10.1289,10.1289,10.1404,10.2097,10.1789,10.1712,10.352,10.2597,10.1597,10.2789,10.3097,10.3212,10.3789,10.4789,10.5713,10.629,10.6405,10.6405,10.6405,10.6405,10.6405,10.6405,10.8098,10.9213,10.8906,11.0214,11.1214,11.1522,11.1522,11.1522,11.1522,11.1791,11.1791,11.1522,11.1522,11.1522,11.1522,11.1522,11.1791,11.2406,11.1791,11.1791,11.2406,11.1791,11.1291,11.1021,11.1021,11.0291]},{"header":{"parameterUnit":"m.s-1","parameterCategory":1,"la1":30.6,"la2":29.2853,"lo1":-89.7004,"lo2":-87.6739,"dy":0.0162,"dx":0.0183,"nx":112,"ny":82,"refTime":"2023-10-07T12:00:00:Z","depth":0,"parameterNumber":3,"parameterNumberName":"V-component_of_WINDS"},"data":[0.0,0.0,0.0,0.0,0.0,0.0,0.0,0.0,0.0,0.0,0.0,0.0,0.0,0.0,0.0,0.0,0.0,0.0,0.0,0.0,0.0,0.0,0.0,0.0,0.0,0.0,0.0,0.0,0.0,0.0,0.0,0.0,0.0,0.0,0.0,0.0,0.0,0.0,0.0,0.0,0.0,0.0,0.0,0.0,0.0,0.0,0.0,0.0,0.0,0.0,0.0,0.0,0.0,0.0,0.0,0.0,0.0,0.0,0.0,0.0,0.0,0.0,0.0,0.0,0.0,0.0,0.0,0.0,0.0,0.0,0.0,0.0,0.0,0.0,0.0,0.0,0.0,0.0,0.0,0.0,0.0,0.0,0.0,0.0,0.0,0.0,0.0,0.0,0.0,0.0,0.0,-1.0167,-0.4134,0.0,0.0,0.0,0.0,0.0,0.0,0.0,0.0,0.0,0.0,0.0,0.0,0.0,0.0,0.0,0.0,0.0,0.0,0.0,0.0,0.0,0.0,0.0,0.0,0.0,0.0,0.0,0.0,0.0,0.0,0.0,0.0,0.0,0.0,0.0,0.0,0.0,0.0,0.0,0.0,0.0,0.0,0.0,0.0,0.0,0.0,0.0,0.0,0.0,0.0,0.0,0.0,0.0,0.0,0.0,0.0,0.0,0.0,0.0,0.0,0.0,0.0,0.0,0.0,0.0,0.0,0.0,0.0,0.0,0.0,0.0,0.0,0.0,0.0,0.0,0.0,0.0,0.0,0.0,0.0,0.0,0.0,0.0,0.0,0.0,0.0,0.0,0.0,0.0,0.0,0.0,0.0,0.0,0.0,0.0,0.0,0.0,0.0,0.0,0.0,0.0,0.0,0.0,0.0,0.0,0.0,0.0,0.0,0.0,-1.1042,-1.2053,-0.4826,0.0,0.0,0.0,0.0,0.0,0.0,0.0,0.0,0.0,0.0,0.0,0.0,0.0,0.0,0.0,0.0,0.0,0.0,0.0,0.0,0.0,0.0,0.0,0.0,0.0,0.0,0.0,0.0,0.0,0.0,0.0,0.0,0.0,0.0,0.0,0.0,0.0,0.0,0.0,0.0,0.0,0.0,0.0,0.0,0.0,0.0,0.0,0.0,0.0,0.0,0.0,0.0,0.0,0.0,0.0,0.0,0.0,0.0,0.0,0.0,0.0,0.0,0.0,0.0,0.0,0.0,0.0,0.0,0.0,0.0,0.0,0.0,0.0,0.0,0.0,0.0,0.0,0.0,0.0,0.0,0.0,0.0,0.0,0.0,0.0,0.0,0.0,0.0,0.0,0.0,0.0,0.0,0.0,0.0,0.0,0.0,0.0,0.0,0.0,0.0,0.0,0.0,0.0,0.0,0.0,0.0,0.0,0.0,-0.6441,-0.5191,-0.5661,-0.2366,0.0,0.0,0.0,0.0,0.0,0.0,0.0,0.0,0.0,0.0,0.0,0.0,0.0,0.0,0.0,0.0,0.0,0.0,0.0,0.0,0.0,0.0,0.0,0.0,0.0,0.0,0.0,0.0,0.0,0.0,0.0,0.0,0.0,0.0,0.0,0.0,0.0,0.0,0.0,0.0,0.0,0.0,0.0,0.0,0.0,0.0,0.0,0.0,0.0,0.0,0.0,0.0,0.0,0.0,0.0,0.0,0.0,0.0,0.0,0.0,0.0,0.0,0.0,0.0,0.0,0.0,0.0,0.0,0.0,0.0,0.0,0.0,0.0,0.0,0.0,0.0,0.0,0.0,0.0,0.0,0.0,0.0,0.0,0.0,0.0,0.0,0.0,0.0,0.0,0.0,0.0,0.0,0.0,0.0,0.0,0.0,0.0,0.0,0.0,0.0,0.0,0.0,0.0,0.0,0.0,0.0,0.0,0.0,-0.2765,0.0,0.0,0.0,0.0,0.0,0.0,0.0,0.0,0.0,0.0,0.0,0.0,0.0,0.0,0.0,0.0,0.0,0.0,0.0,0.0,0.0,0.0,0.0,0.0,0.0,0.0,0.0,0.0,0.0,0.0,0.0,0.0,0.0,0.0,0.0,0.0,0.0,0.0,0.0,0.0,0.0,0.0,0.0,0.0,0.0,0.0,0.0,0.0,0.0,0.0,0.0,0.0,0.0,0.0,0.0,0.0,0.0,0.0,0.0,0.0,0.0,0.0,0.0,0.0,0.0,0.0,0.0,0.0,0.0,0.0,0.0,0.0,0.0,0.0,0.0,0.0,0.0,0.0,0.0,0.0,0.0,0.0,0.0,0.0,0.0,0.0,0.0,0.0,0.0,0.0,0.0,0.0,0.0,0.0,0.0,0.0,0.0,0.0,0.0,0.0,0.0,0.0,0.0,0.0,0.0,0.0,0.0,0.0,0.0,0.0,0.0,-0.3906,0.0,0.0,0.0,0.0,0.0,0.0,0.0,0.0,0.0,0.0,0.0,0.0,0.0,0.0,0.0,0.0,0.0,0.0,0.0,0.0,0.0,0.0,0.0,0.0,0.0,0.0,0.0,0.0,0.0,0.0,0.0,0.0,0.0,0.0,0.0,0.0,0.0,0.0,0.0,0.0,0.0,0.0,0.0,0.0,0.0,0.0,0.0,0.0,0.0,0.0,0.0,0.0,0.0,0.0,0.0,0.0,0.0,0.0,0.0,0.0,0.0,0.0,0.0,0.0,0.0,0.0,0.0,0.0,0.0,0.0,0.0,0.0,0.0,0.0,0.0,0.0,0.0,0.0,0.0,0.0,0.0,0.0,0.0,0.0,0.0,0.0,0.0,0.0,0.0,0.0,0.0,0.0,0.0,0.0,0.0,0.0,0.0,0.0,0.0,0.0,0.0,0.0,0.0,0.0,0.0,0.0,0.0,0.0,0.0,0.0,0.0,-0.4365,0.0,0.0,0.0,0.0,0.0,0.0,0.0,0.0,0.0,0.0,0.0,0.0,0.0,0.0,0.0,0.0,0.0,0.0,0.0,0.0,0.0,0.0,0.0,0.0,0.0,0.0,0.0,0.0,0.0,0.0,0.0,0.0,0.0,0.0,0.0,0.0,0.0,0.0,0.0,0.0,0.0,0.0,0.0,0.0,0.0,0.0,0.0,0.0,0.0,0.0,0.0,0.0,0.0,0.0,0.0,0.0,0.0,0.0,0.0,0.0,0.0,0.0,0.0,0.0,0.0,0.0,0.0,0.0,0.0,0.0,0.0,0.0,0.0,0.0,0.0,0.0,0.0,0.0,0.0,0.0,0.0,0.0,0.0,0.0,0.0,0.0,0.0,0.0,0.0,0.0,0.0,0.0,0.0,0.0,0.0,0.0,0.0,0.0,0.0,0.0,0.0,0.0,0.0,0.0,0.0,0.0,0.0,0.0,0.0,0.0,-0.6734,-0.2975,0.0,0.0,0.0,0.0,0.0,0.0,0.0,0.0,0.0,0.0,0.0,0.0,0.0,0.0,0.0,0.0,0.0,0.0,0.0,0.0,0.0,0.0,0.0,0.0,0.0,0.0,0.0,0.0,0.0,0.0,0.0,0.0,0.0,0.0,0.0,0.0,0.0,0.0,0.0,0.0,0.0,0.0,0.0,0.0,0.0,0.0,0.0,0.0,0.0,0.0,0.0,0.0,0.0,0.0,0.0,0.0,0.0,0.0,0.0,0.0,0.0,0.0,0.0,0.0,0.0,0.0,0.0,0.0,0.0,0.0,0.0,0.0,0.0,0.0,0.0,0.0,0.0,0.0,0.0,0.0,0.0,0.0,0.0,0.0,0.0,0.0,0.0,0.0,0.0,0.0,0.0,0.0,0.0,0.0,0.0,0.0,0.0,0.0,0.0,0.0,0.0,0.0,0.0,0.0,0.0,0.0,0.0,0.0,0.0,0.0,0.0,0.0,0.0,0.0,0.0,0.0,0.0,0.0,0.0,0.0,0.0,0.0,0.0,0.0,0.0,0.0,0.0,0.0,0.0,0.0,0.0,0.0,0.0,0.0,0.0,0.0,0.0,0.0,0.0,0.0,0.0,0.0,0.0,0.0,0.0,0.0,0.0,0.0,0.0,0.0,0.0,0.0,0.0,0.0,0.0,0.0,0.0,0.0,0.0,0.0,0.0,0.0,0.0,0.0,0.0,0.0,0.0,0.0,0.0,0.0,0.0,0.0,0.0,0.0,0.0,0.0,0.0,0.0,0.0,0.0,0.0,0.0,0.0,0.0,0.0,0.0,0.0,0.0,0.0,0.0,0.0,0.0,0.0,0.0,0.0,0.0,0.0,0.0,0.0,0.0,0.0,0.0,0.0,0.0,0.0,0.0,0.0,0.0,0.0,0.0,0.0,0.0,0.0,0.0,0.0,0.0,0.0,0.0,0.0,0.0,0.0,0.0,0.0,0.0,0.0,0.0,0.0,0.0,0.0,0.0,0.0,0.0,0.0,0.0,0.0,0.0,0.0,0.0,0.0,0.0,0.0,0.0,0.0,0.0,0.0,0.0,0.0,0.0,0.0,0.0,0.0,0.0,0.0,0.0,0.0,0.0,0.0,0.0,0.0,0.0,0.0,0.0,0.0,0.0,0.0,0.0,0.0,0.0,0.0,0.0,0.0,0.0,0.0,0.0,0.0,0.0,0.0,0.0,0.0,0.0,0.0,0.0,0.0,0.0,0.0,0.0,0.0,0.0,0.0,0.0,0.0,0.0,0.0,0.0,0.0,0.0,0.0,0.0,0.0,0.0,0.0,0.0,0.0,0.0,0.0,0.0,0.0,0.0,0.0,0.0,0.0,0.0,0.0,0.0,0.0,0.0,0.0,0.0,0.0,0.0,0.0,0.0,0.0,0.0,0.0,0.0,0.0,0.0,0.0,0.0,0.0,0.0,0.0,0.0,0.0,0.0,0.0,0.0,0.0,0.0,0.0,0.0,0.0,0.0,0.0,0.0,0.0,0.0,0.0,0.0,0.0,0.0,0.0,0.0,0.0,0.0,0.0,0.0,0.0,0.0,0.0,0.0,0.0,0.0,0.0,0.0,0.0,0.0,0.0,0.0,0.0,0.0,0.0,0.0,0.0,0.0,0.0,0.0,0.0,0.0,0.0,0.0,0.0,0.0,0.0,0.0,0.0,0.0,0.0,0.0,0.0,0.0,0.0,0.0,0.0,0.0,0.0,0.0,0.0,0.0,0.0,0.0,0.0,0.0,0.0,0.0,0.0,0.0,0.0,0.0,0.0,0.0,0.0,0.0,0.0,0.0,0.0,0.0,0.0,0.0,0.0,0.0,0.0,0.0,0.0,0.0,0.0,0.0,0.0,0.0,0.0,0.0,0.0,0.0,0.0,0.0,0.0,0.0,0.0,0.0,0.0,0.0,0.0,0.0,0.0,0.0,0.0,0.0,0.0,0.0,0.0,0.0,0.0,0.0,0.0,0.0,0.0,0.0,0.0,0.0,0.0,0.0,0.0,0.0,0.0,0.0,0.0,0.0,0.0,0.0,0.0,0.0,0.0,0.0,0.0,0.0,0.0,0.0,0.0,0.0,0.0,0.0,0.0,0.0,0.0,0.0,0.0,0.0,0.0,0.0,0.0,0.0,0.0,0.0,0.0,0.0,0.0,0.0,0.0,0.0,0.0,0.0,0.0,0.0,0.0,0.0,0.0,0.0,0.0,0.0,0.0,0.0,0.0,0.0,0.0,0.0,0.9971,0.0,0.0,0.0,0.0,0.0,0.0,0.0,0.0,0.0,0.0,0.0,0.0,0.0,0.0,0.0,0.0,0.0,0.0,0.0,0.0,0.0,0.0,0.0,0.0,0.0,0.0,0.0,0.0,0.0,0.0,0.0,0.0,0.0,0.0,0.0,0.0,0.0,0.0,0.0,0.0,0.0,0.0,0.0,0.0,0.0,0.0,0.0,0.0,0.0,0.0,0.0,0.0,0.0,0.0,0.0,0.0,0.0,0.0,0.0,0.0,0.0,0.0,0.0,0.0,0.0,0.0,0.0,0.0,0.0,0.0,0.0,0.0,0.0,0.0,0.0,0.0,0.0,0.0,0.0,0.0,0.0,0.0,0.0,0.0,0.0,0.0,0.0,0.0,0.0,0.0,0.0,0.0,0.0,0.0,0.0,0.0,0.0,0.0,0.0,0.0,0.0,0.0,0.0,0.0,0.0,0.0,0.0,0.0,0.0,0.0,0.0,0.0,0.9869,0.0,0.0,0.0,0.0,0.0,0.0,0.0,0.0,0.0,0.0,0.0,0.0,0.0,0.0,0.0,0.0,0.0,0.0,0.0,0.0,0.0,0.0,0.0,0.0,0.0,0.0,0.0,0.0,0.0,0.0,0.0,0.0,0.0,0.0,0.0,0.0,0.0,0.0,0.0,0.0,0.0,0.0,0.0,0.0,0.0,0.0,0.0,0.0,0.0,0.0,0.0,0.0,0.0,0.0,0.0,0.0,0.0,0.0,0.0,0.0,0.0,0.0,0.0,0.0,0.0,0.0,0.0,0.0,0.0,0.0,0.0,0.0,0.0,0.0,0.0,0.0,0.0,0.0,0.0,0.0,0.0,0.0,0.0,0.0,0.0,0.0,0.0,0.0,0.0,0.0,0.0,0.0,0.0,0.0,0.0,0.0,0.0,0.0,0.0,0.0,0.0,0.0,0.0,0.0,1.1746,1.1702,1.1546,1.0935,1.1253,1.2118,1.1213,1.0474,0.9672,0.0,0.0,0.0,0.0,0.0,0.0,0.0,0.0,0.0,0.0,0.0,0.0,0.0,0.0,0.0,0.0,0.0,0.0,0.0,0.0,0.0,0.0,0.0,0.0,0.0,0.0,0.0,0.0,0.0,0.0,0.0,0.0,0.0,0.0,0.0,0.0,0.0,0.0,0.0,0.0,0.0,0.0,0.0,0.0,0.0902,0.2886,0.1075,0.0,0.0,0.0,0.0,0.0,0.0,0.0,0.0,0.0,0.0,0.0,0.0,0.0,0.0,0.0,0.0,0.0,0.0,0.0,0.0,0.0,0.0,0.0,0.0,0.0,0.0,0.0,0.0,0.0,0.0,0.0,0.0,0.0,0.0,0.0,0.0,0.869,1.035,0.0,0.0,0.0,0.0,0.0,0.0,0.0,0.0,0.0,0.0,0.0,0.0,0.0,1.0908,1.156,1.1469,1.118,1.087,1.3488,1.4674,1.4673,1.4469,1.4496,1.4658,1.5181,0.0,1.2733,1.1205,0.0,0.0,0.0,0.0,0.0,0.0,0.0,0.0,0.0,0.0,0.0,0.0,0.0,0.0,0.0,0.0,0.0,0.0,0.0,0.0,0.0,0.0,0.0,0.0,0.0,0.0,0.0,0.0,0.0,0.0,0.0,0.0,0.0,0.0,0.0,0.0,0.0,0.0,0.0,0.0,0.0,0.0,0.0,0.4032,1.4022,0.5621,0.0,0.0,0.0,0.0,0.0,0.0,0.0,0.0,0.0,0.0,0.0,0.0,0.0,0.0,0.0,0.0,0.0,0.0,0.0,0.0,0.0,0.0,0.0,0.0,0.0,0.0,0.0,0.0,0.0,0.0,0.0,0.0,0.0,0.0,0.0,0.8506,0.9519,1.101,1.0622,1.0206,0.0,0.0,0.0,0.0,0.0,0.0,0.0,0.0,0.0,1.1653,1.2735,1.3356,1.3532,1.3618,1.3585,1.3821,1.5507,1.6209,1.6243,1.6637,1.6803,1.6672,1.6925,1.651,1.5177,1.3078,1.1634,1.0656,0.0,0.0,0.0,0.0,1.1353,1.107,1.1422,1.1568,0.0,1.1789,0.0,0.0,0.0,0.0,0.0,0.0,0.0,0.0,0.0,0.0,0.0,0.0,0.0,0.0,0.0,0.0,0.0,0.0,0.0,0.0,0.0,0.0,0.0,0.0,0.0,0.0,0.0,0.0,0.0,0.0,0.5747,1.1555,1.6499,1.2229,0.6619,0.0393,0.0,0.0,0.0,0.0,0.0,0.0,0.0,0.0,0.0,0.0,0.0,0.0,0.0,0.0,0.0,0.0,0.0,0.0,0.0,0.0,0.0,0.0,0.0,0.0,0.0,0.0,0.0,0.0,0.0,0.0,0.0,0.0,0.0,0.9282,1.0736,1.2071,1.0935,1.0248,0.0,0.0,0.0,0.0,0.0,0.0,1.1422,1.2174,1.271,1.3184,1.4821,1.5705,1.5625,1.5821,1.6208,1.6595,1.707,1.7179,1.7294,1.7725,1.7818,1.796,1.7796,1.7739,1.7085,1.4828,1.2746,1.1103,1.1817,1.1985,1.1784,1.188,1.169,1.1671,1.237,1.2491,1.2497,1.1882,0.0,1.2011,1.1384,0.0,0.0,0.0,0.0,0.0,0.0,0.0,0.0,0.0,0.0,0.0,0.0,0.0,0.0,0.0,0.0,0.0,0.0,0.0,0.0,0.0,0.0,0.0,0.0,0.0,0.0,0.0,1.03,1.7007,1.6968,1.667,1.2895,0.4804,0.1538,0.0,0.0,0.0,0.0,0.0,0.0,0.0,0.0,0.0,0.0,0.0,0.0,0.0,0.0,0.0,0.0,0.0,0.0,0.0,0.0,0.0,0.0,0.0,0.0,0.0,0.0,0.0,0.0,0.0,0.0,0.0,0.0,0.0,0.0,1.3935,1.2141,0.0,0.0,0.0,0.0,0.9798,1.0865,1.2037,1.3124,1.4451,1.4949,1.5087,1.6187,1.6976,1.6828,1.7426,1.7811,1.7782,1.7932,1.7808,1.7792,1.7792,1.788,1.7793,1.786,1.7772,1.7664,1.5772,1.4702,1.3968,1.359,1.2886,1.2497,1.2503,1.3111,1.428,1.4821,1.5074,1.4847,1.4393,1.3715,1.3124,1.2661,0.6637,0.0,0.0,0.0,0.0,0.0,0.0,0.0,0.0,0.0,0.0,0.0,0.0,0.0,0.0,0.0,0.0,0.0,0.0,0.0,0.0,0.0,0.0,0.0,0.0,0.0,0.0,1.0248,1.71,1.6915,1.675,1.625,1.5799,0.5799,0.0,0.0,0.0,0.0,0.0,0.0,0.0,0.0,0.0,0.0,0.0,0.0,0.0,0.0,0.0,0.0,0.0,0.0,0.0,0.0,0.0,0.0,0.0,0.0,0.0,0.0,0.0,0.0,0.0,0.0,0.0,0.0,0.0,0.0,1.568,1.2886,0.0,1.1854,1.1318,1.1491,1.2594,1.3487,1.4139,1.447,1.5793,1.644,1.6953,1.7397,1.7516,1.7528,1.7813,1.7909,1.7846,1.7894,1.8002,1.7927,1.839,1.841,1.8465,1.8179,1.7948,1.7799,1.7113,1.6302,1.5444,1.4794,1.435,1.4229,1.4229,1.475,1.5547,1.5654,1.5838,1.5701,1.5147,1.4408,1.3725,1.1832,0.9874,0.8486,0.9588,0.5064,0.0,0.0,0.0,0.0,0.0,0.0,0.0,0.0,0.0,0.0,0.0,0.0,0.0,0.0,0.0,0.0,0.0,0.0,0.0,0.0,0.0,0.0,0.0,0.6894,1.2935,1.6406,1.6547,1.6245,1.6323,0.9256,0.3662,0.0189,0.0,0.0,0.0,0.0,0.0,0.0,0.0,0.0,0.0,0.0,0.0,0.0,0.0,0.0,0.0,0.0,0.0,0.0,0.0,0.0,0.0,0.0,0.0,0.0,0.0,0.0,0.0,0.0,0.0,0.0,0.0,1.4305,1.705,1.4665,1.3041,1.3369,1.3068,1.3415,1.4864,1.5462,1.592,1.6179,1.6912,1.7664,1.8227,1.8177,1.8198,1.8088,1.8088,1.8141,1.8228,1.8228,1.8262,1.8309,1.8552,1.8754,1.8699,1.8457,1.8301,1.8232,1.7914,1.7344,1.6694,1.6035,1.5716,1.589,1.5753,1.5897,1.6076,1.6328,1.6279,1.6057,1.5427,1.4985,1.4344,1.2771,1.3004,1.4228,1.4821,1.0247,0.442,0.0948,0.0,0.0,0.0,0.0,0.0,0.0,0.0,0.0,0.0,0.0,0.0,0.0,0.0,0.0,0.0,0.0,0.0,0.0,0.0,0.1448,0.5313,0.7246,1.0602,1.595,1.6286,1.6198,1.594,1.2615,0.7413,0.0377,0.0,0.0,0.0,0.0,0.0,0.0,0.0,0.0,0.0,0.0,0.0,0.0,0.0,0.0,0.0,0.0,0.0,0.0,0.0,0.0,0.0,0.0,0.0,0.0,0.0,0.0,0.0,0.0,0.0,1.1628,1.372,1.5932,1.77,1.7344,1.6511,1.5469,1.5269,1.5502,1.6105,1.6661,1.7203,1.7875,1.7975,1.8129,1.8802,1.8733,1.8877,1.8782,1.8782,1.8782,1.8782,1.8782,1.885,1.8764,1.8751,1.8918,1.8782,1.8782,1.8836,1.8802,1.8088,1.7914,1.7812,1.7291,1.7113,1.6995,1.6927,1.6761,1.6313,1.6804,1.6563,1.6056,1.536,1.5267,1.5167,1.525,1.5668,1.5832,1.5052,1.5036,1.2852,0.2974,0.0401,0.0203,0.0205,0.0204,0.0,0.0,0.0,0.0,0.0,0.0,0.0,0.0,0.0,0.0,0.0,0.0,0.0,0.0,0.0,0.4347,1.5829,1.1839,1.044,1.5982,1.6408,1.6178,1.571,1.5751,1.1011,0.0737,0.0,0.0,0.0,0.0,0.0,0.0,0.0,0.0,0.0,0.0,0.0,0.0,0.0,0.0,0.0,0.0,0.0,0.0,0.0,0.0,0.0,0.0,0.0,0.0,0.0,0.0,0.0,0.0,1.3441,1.4194,1.5899,1.7408,1.7924,1.7784,1.7442,1.7099,1.7238,1.7195,1.7312,1.7548,1.7968,1.8555,1.862,1.8644,1.8865,1.9169,1.9447,1.9502,1.9379,1.956,1.956,1.956,1.9413,1.955,1.9447,1.9427,1.9482,1.9027,1.8816,1.8871,1.8518,1.8589,1.8376,1.7944,1.7621,1.7607,1.7749,1.7509,1.7284,1.7026,1.689,1.668,1.5962,1.5944,1.5763,1.5771,1.5744,1.5589,1.5986,1.5995,1.4806,0.9365,0.7196,0.6428,0.6236,0.2923,0.0,0.0,0.0,0.0,0.0,0.0,0.0,0.0,0.0,0.0,0.0,0.0,0.0,0.0,0.0,0.4564,1.6395,1.5842,1.5024,1.656,1.6279,1.5764,1.5262,1.5287,1.2396,0.5703,0.1926,0.0,0.0,0.0,0.0,0.0,0.0,0.0,0.0,0.0,0.0,0.0,0.0,0.0,0.0,0.0,0.0,0.0,0.0,0.0,0.0,0.0,0.0,0.0,0.0,0.0,0.0,1.4847,1.7091,1.7378,1.7833,1.8394,1.8705,1.8465,1.8267,1.8321,1.8301,1.839,1.861,1.8687,1.8751,1.9217,1.9393,1.9556,1.9461,1.9894,1.9894,1.9712,1.963,1.9818,1.9818,1.9818,2.2647,2.8141,2.2561,1.9998,0.0,1.9441,1.8993,1.885,1.8694,1.8788,0.0,0.0,0.0,0.0,0.0,1.7878,1.7829,1.76,1.7463,1.7257,1.7071,1.6666,1.6463,1.6522,1.6307,1.6125,1.6627,1.6611,1.6028,1.399,1.3058,1.254,1.2368,0.9847,0.6639,0.4234,0.1683,0.0,0.0,0.0,0.0,0.0,0.0,0.0,0.0,0.0,0.0,0.0,0.0,0.3537,1.2864,1.5811,1.6904,1.6625,1.6205,0.0,0.0,0.0,1.1603,0.4774,0.151,0.0,0.0,0.0,0.0,0.0,0.0,0.0,0.0,0.0,0.0,0.0,0.0,0.0,0.0,0.0,0.0,0.0,0.0,0.0,0.0,0.0,0.0,0.0,0.0,0.0,0.0,1.8066,2.058,2.0492,1.9745,1.924,1.974,1.9338,1.8851,1.8818,1.8858,1.9217,1.9736,1.9908,1.982,1.9956,0.0,0.0,0.0,0.0,2.0271,1.9863,1.9843,1.9843,1.9843,1.9843,2.6317,3.789,2.5877,2.0324,1.9698,1.9626,1.9413,1.8784,1.885,1.8694,1.8733,1.8233,1.788,1.7847,1.7935,1.7792,1.7895,1.7895,0.0,0.0,1.791,1.7502,1.7037,1.7092,1.6934,1.6989,1.7137,1.6761,1.6664,1.6882,1.7463,1.7864,1.7975,1.7575,1.6014,1.0899,0.5813,0.1706,0.0213,0.0,0.0,0.0,0.0,0.0,0.0,0.0,0.0,0.0,0.0,0.209,0.7849,0.0,0.0,1.6415,1.6198,1.5771,1.5038,1.4042,0.9417,0.0329,0.0,0.0,0.0,0.0,0.0,0.0,0.0,0.0,0.0,0.0,0.0,0.0,0.0,0.0,0.0,0.0,0.0,0.0,0.0,0.0,0.0,0.0,0.0,0.0,0.0,0.0,1.8614,2.0038,2.0568,2.0786,2.0829,2.0556,2.0302,1.9752,1.9548,1.9556,1.9997,2.0162,2.0217,2.0741,2.0964,2.1117,2.1124,2.0883,2.0641,2.0492,2.037,2.0295,2.0429,2.0361,2.0361,0.0,0.0,2.4187,2.1662,2.0285,1.9742,1.9698,1.9481,1.8833,1.8818,1.8782,1.8754,1.8575,1.8424,1.786,1.7827,1.7948,1.7826,1.7826,1.7998,1.7944,1.7827,1.7751,1.7669,1.7076,1.7049,0.0,1.7662,1.7365,1.6864,1.708,1.7425,1.7964,1.7875,1.7745,1.7338,1.5989,1.5126,1.1614,0.1954,0.0,0.0,0.0,0.0,0.0,0.0,0.0,0.0,0.0,0.0,0.211,0.7922,1.3673,1.7005,1.6863,1.6374,1.5811,1.5181,1.0505,0.5417,0.0171,0.0,0.0,0.0,0.0,0.0,0.0,0.0,0.0,0.0,0.0,0.0,0.0,0.0,0.0,0.0,0.0,0.0,0.0,0.0,0.0,0.0,0.0,1.1595,0.0,0.0,1.8023,2.0094,2.053,2.0751,2.0872,2.1068,2.1152,2.1034,2.0608,2.0383,2.022,2.0349,2.0745,2.091,2.1318,2.1478,2.1377,2.1308,2.1267,2.1001,2.058,2.0473,2.0406,2.0594,2.056,2.0539,2.0471,2.0471,2.0539,2.0567,2.0464,2.02,1.9888,1.9481,1.9125,1.8833,1.8831,1.885,1.8708,1.8713,1.8219,1.7981,1.788,1.7982,1.7982,1.7935,1.7846,1.7998,1.793,1.7854,1.7555,1.7534,1.7521,1.7885,1.7751,1.7425,1.7425,1.7478,1.7751,1.7758,1.7826,1.786,1.7704,1.7704,1.6144,1.0089,0.4129,0.0,0.0,0.0,0.0,0.0,0.0,0.0,0.0,0.4886,0.8511,0.8593,1.3689,1.7039,1.6985,1.6293,1.571,1.5343,1.2249,0.7241,0.0349,0.0,0.0,0.0,0.0,0.0,0.0,0.0,0.0,0.0,0.0,0.0,0.0,0.0,0.0,0.0,0.0,0.0,0.0,0.0,1.3368,1.3098,1.2815,1.3077,1.5362,1.8475,2.0562,2.0568,2.0787,2.0886,2.0971,2.1178,2.1143,2.1464,2.1144,2.0845,2.0817,2.058,2.0946,2.1459,2.1514,2.1319,2.1441,2.1319,2.1514,2.148,2.0841,2.0767,2.0734,2.0734,2.0734,2.0734,2.0613,2.056,2.054,2.0573,2.0438,2.0601,2.0051,1.9908,1.9854,1.9334,1.8873,1.8939,1.904,1.898,1.8644,1.8141,1.8021,1.8091,1.786,1.7982,1.786,1.786,1.7792,1.7909,1.7909,1.7909,1.7895,1.7989,1.782,1.7909,1.7909,1.7684,1.7498,1.7826,1.786,1.786,1.786,1.7792,1.7964,1.7964,1.0101,0.3493,0.3502,0.1534,0.0,0.0,0.0,0.0866,0.3249,1.1433,1.5527,1.1004,1.4596,1.7093,1.7026,1.6307,1.5805,1.5676,1.5086,1.1149,0.3425,0.1067,0.0,0.0,0.0,0.0,0.0,0.0,0.0,0.0,0.0,0.0,1.1516,1.1552,0.0,1.2806,1.2494,1.1808,0.0,0.0,1.374,1.474,1.5194,1.5961,1.7305,1.9536,2.1187,2.1092,2.105,2.1138,2.1055,2.1177,2.1245,2.1353,2.1252,2.1377,2.1253,2.1356,2.1446,2.148,2.134,2.1421,2.1441,2.1421,2.1353,2.148,2.1459,2.1391,2.1267,2.1267,2.1267,2.1267,2.1253,2.0987,2.0434,2.0415,2.0506,2.0505,2.0464,2.0505,2.0359,1.9698,1.9708,1.9671,1.9532,1.9365,1.8694,1.8802,1.8802,1.8552,1.8091,1.7982,1.786,1.786,1.7846,1.7846,1.7846,1.7846,1.7826,1.7812,1.7826,1.7846,1.7846,1.7846,1.7846,1.786,1.786,1.786,1.786,1.7846,1.786,1.7894,1.676,1.5868,1.594,0.7147,0.0,0.0,0.0,0.3937,1.4529,1.6935,1.7555,1.664,1.7034,1.7372,1.7182,1.6836,1.6558,1.6408,1.611,1.527,1.3939,0.4881,0.0,0.0,0.0,0.0,0.0,0.0,0.0,0.0,0.0,0.0,1.1647,0.0,0.0,0.0,2.1242,2.251,1.9598,1.7227,1.5751,1.707,1.8062,1.8532,1.8413,1.9775,2.0865,0.0,2.1207,2.1102,2.119,2.1102,2.1367,2.1356,2.1501,2.1319,2.1272,2.1319,2.1353,2.1353,2.1408,2.1441,2.1441,2.1441,2.1408,2.1353,2.1353,2.1319,2.1272,2.1272,2.1272,2.1514,2.1425,2.1391,2.1123,2.1034,2.0878,2.0406,2.0539,2.0622,2.0381,2.023,1.9997,1.9695,1.9203,1.9027,1.8884,1.8728,1.8768,1.8823,1.8121,1.796,1.8002,1.8002,1.7935,1.786,1.786,1.786,1.786,1.786,1.786,1.786,1.786,1.786,1.786,1.786,1.786,1.786,1.786,1.786,1.786,1.788,1.7894,1.7914,1.7982,0.8042,0.0,0.0,0.0,0.1773,0.6848,1.3481,1.7875,1.7494,1.7548,1.7738,1.7338,1.7271,1.7071,1.6795,1.6252,1.6038,1.5971,1.1649,0.639,0.0199,0.0,0.0,0.0,0.0,0.0,0.0,0.0,0.0,1.3333,0.0,0.0,2.5198,2.9749,3.2043,2.8296,2.2172,1.7778,1.9073,1.9849,2.0304,1.9447,2.0052,2.0846,2.12,2.1163,2.1203,2.1136,2.1475,2.1374,2.143,2.1513,2.1391,2.1514,2.1374,2.1441,2.1441,2.1441,2.1441,2.1441,2.1441,2.1441,2.1441,2.1441,2.1441,2.1441,2.1441,2.1441,2.1441,2.134,2.1285,2.1272,2.1391,2.1247,2.0824,2.0526,2.0627,2.0622,2.045,2.0196,1.9678,1.9093,1.8865,1.8731,1.8816,1.8891,1.8768,1.8242,1.8074,1.8091,1.8036,1.7948,1.786,1.786,1.786,1.786,1.786,1.786,1.786,1.786,1.786,1.786,1.786,1.786,1.786,1.786,1.786,1.786,1.786,1.786,1.788,1.7935,1.071,0.3792,0.0447,0.0,0.0,0.0,1.0444,1.7758,1.7561,1.7656,1.7889,1.7555,1.7532,1.7387,1.7168,1.6594,1.6366,1.6326,1.6429,1.2626,0.4657,0.1606,0.0,0.0,0.0,0.0,0.0,0.0,0.0,1.7019,0.0,2.1644,3.0769,3.5009,3.6371,3.5144,2.6561,1.9151,2.0245,2.0539,2.0537,2.0484,2.0832,2.1186,2.1391,2.1455,2.1431,2.1848,2.1496,2.1446,2.1288,2.128,2.1356,0.0,2.1446,2.1441,2.1441,2.1441,2.1441,2.1441,2.1441,2.1441,2.1441,2.1441,2.1441,2.1441,2.1441,2.1441,2.1441,2.1441,2.1441,2.1421,2.1285,2.1391,2.1253,2.0838,2.0419,2.0505,2.0484,2.0265,1.9568,1.9126,1.8865,1.8731,1.8816,1.8891,1.8754,1.8837,1.8684,1.8762,1.8143,1.786,1.786,1.786,1.786,1.786,1.786,1.786,1.786,1.786,1.786,1.786,1.786,1.786,1.786,1.786,1.786,1.786,1.786,1.786,1.788,1.7935,1.751,1.3455,0.1789,0.0,0.0,0.0,1.0536,1.7948,1.786,1.7846,1.786,1.7846,1.7944,1.7854,1.7854,1.7338,1.6889,1.6971,1.7058,1.6507,1.5532,0.5317,0.0,0.0,0.0,0.0,0.0,0.0,0.0,1.7837,0.0,2.6506,3.0883,3.4138,3.6156,3.4928,3.3235,3.1011,2.7711,2.7282,2.6087,2.1093,2.0401,2.0762,2.1235,2.1826,2.1968,2.2023,2.1968,2.1569,2.037,1.9998,0.0,0.0,0.0,0.0,2.1277,2.1323,2.1364,2.1444,2.1464,2.1411,2.1323,2.1323,2.1277,2.1441,2.1441,2.1441,2.1441,2.1441,2.1387,2.1285,2.134,2.1501,2.1274,2.068,2.0573,2.0406,2.0519,2.0265,1.9568,1.9379,1.9115,1.8731,1.8816,1.8728,1.8905,1.8871,1.8518,1.8141,1.8081,1.7788,1.7914,1.7813,1.7793,1.7982,1.7894,1.786,1.786,1.786,1.786,1.786,1.786,1.786,1.786,1.786,1.786,1.786,1.786,1.786,1.786,1.788,1.7948,1.3922,0.1793,0.0,0.0,0.0,1.0516,1.7968,1.788,1.786,1.786,1.786,1.7964,1.7875,1.7875,1.7683,1.7324,1.7056,1.6922,1.6842,1.6604,1.3187,0.7457,0.0,0.0,0.0,0.0,0.0,0.0,2.0114,2.4966,3.0033,3.2704,3.5271,3.7052,3.6476,3.7767,3.7733,3.1885,3.0834,2.877,2.1483,2.0375,2.0671,2.1071,2.1704,2.226,2.2173,2.2062,2.168,2.0438,1.9153,1.8585,0.0,0.0,0.0,2.1441,2.1597,2.1706,2.1794,2.1808,2.176,2.1672,2.1611,2.1277,2.1441,2.1441,2.1441,2.1441,2.1441,2.1387,2.1306,2.1116,2.1299,2.1343,2.1014,2.0647,2.0473,2.0601,2.0105,1.9655,1.9763,1.9237,1.8798,1.8898,1.8816,1.8762,1.8694,1.862,1.8295,1.8242,1.8161,1.8301,1.8199,1.8179,1.7914,1.7982,1.7948,1.7935,1.788,1.786,1.786,1.786,1.786,1.786,1.786,1.786,1.786,1.786,1.786,1.786,1.786,1.4292,0.894,0.112,0.0,0.0,0.0,1.0496,1.7948,1.786,1.786,1.786,1.786,1.7998,1.7944,1.7944,1.7813,1.7724,1.7284,1.7358,1.7283,1.7096,1.71,1.3332,0.6108,0.2089,0.0,0.0,0.0,0.0,2.3769,2.81,3.2521,3.6511,3.8397,3.9412,3.9987,4.0009,3.8727,3.3145,3.1448,2.9005,0.0,0.0,2.0251,2.0238,2.1232,2.219,2.2104,2.1892,2.1305,0.0,0.0,0.0,0.0,0.0,0.0,2.1177,0.0,2.2222,2.2243,2.2264,2.2264,2.2243,2.1817,2.1455,2.1441,2.1441,2.1441,2.1441,2.1441,2.1441,2.1421,2.0891,2.0811,2.1466,2.1322,2.1178,2.0486,2.0458,2.0241,1.9809,1.978,1.924,1.8952,1.8798,1.8898,1.8749,1.8836,1.8788,1.8754,1.8858,1.8809,1.8809,1.8809,1.8342,1.7841,1.7914,1.788,1.7847,1.7914,1.788,1.788,1.788,1.788,1.788,1.786,1.786,1.788,1.788,1.788,1.788,1.786,0.8011,0.0,0.0,0.0447,0.0894,0.0891,1.0932,1.7914,1.786,1.786,1.786,1.786,1.786,1.786,1.786,1.7964,1.7895,1.7895,1.7961,1.7648,1.6981,1.7143,1.6822,1.6022,0.5283,0.0,0.0,0.0,0.0,2.8762,3.321,3.7128,3.9332,4.008,4.0615,4.1203,3.9008,3.7314,3.8598,3.7649,3.634,0.0,0.0,0.0,1.6657,1.8586,0.0,2.0934,2.1719,0.0,0.0,0.0,2.066,2.1047,2.1123,0.0,0.0,2.0964,2.1926,2.227,2.2393,2.2059,2.1551,2.1518,2.1397,2.1441,2.1441,2.1441,2.1441,2.1441,2.1387,2.1285,2.1122,2.1299,2.1322,2.1288,2.1178,2.0486,2.0458,2.0498,2.032,1.9786,1.9542,1.9345,1.9074,1.8731,1.8898,1.8762,1.8708,1.8694,1.8891,1.8891,1.8857,1.8754,1.8713,1.8678,1.8534,1.8267,1.7788,1.7981,1.796,1.7947,1.7827,1.7893,1.7914,1.7914,1.7948,1.7813,1.7813,1.7813,1.7793,1.7968,0.8027,0.0,0.0,0.7602,1.344,1.3399,1.6108,1.7914,1.786,1.786,1.786,1.786,1.786,1.786,1.786,1.7826,1.7812,1.7812,1.7895,1.7765,1.7648,1.7628,1.3165,0.4265,0.15,0.0,0.0,0.0,0.0,3.1989,3.6218,3.9746,4.0802,4.1163,4.1203,4.0909,3.8102,3.5006,3.4233,3.4012,0.0,2.9529,0.0,0.0,0.0,0.0,0.0,2.1719,2.2304,2.2201,0.0,2.131,0.0,2.1909,2.1874,2.1441,0.0,2.1136,2.1774,2.2373,2.2201,2.2127,2.1882,2.1551,2.1397,2.1441,2.1441,2.1441,2.1441,2.1441,2.1387,2.1319,2.134,2.1514,2.1356,0.0,2.0858,2.0486,2.0458,2.0498,2.034,1.9841,1.9818,1.9557,1.9392,1.9006,1.8884,1.8796,1.8762,1.8762,1.8762,1.8762,1.8749,1.8891,1.8871,1.8836,1.8699,1.861,1.8321,1.8321,1.8267,1.8219,1.8199,1.8021,1.8034,1.8335,1.8124,1.7947,1.8335,1.8145,1.7914,1.8002,0.8051,0.0,0.0,1.0281,1.7982,1.7914,1.7894,1.7894,1.786,1.786,1.786,1.786,1.786,1.786,1.786,1.786,1.786,1.786,1.7792,1.793,1.7841,1.7568,1.4411,0.7806,0.7824,0.7846,0.7658,0.2413,0.0,3.479,3.7933,4.0909,4.175,4.1857,4.135,3.9933,3.6685,3.2254,2.6029,0.0,2.3606,1.568,1.3815,1.4762,1.9036,0.0,2.2551,2.3148,2.3148,2.2964,2.2248,2.2304,2.2333,2.2441,2.2382,2.1988,2.1433,2.1413,2.1712,2.2387,2.2407,2.2338,2.216,2.174,2.1323,2.1441,2.1441,2.1441,2.1441,2.1441,2.1441,2.1441,2.1285,2.1459,2.1177,2.0633,0.0,2.0453,2.0438,2.0498,2.034,1.9922,1.961,1.9727,1.9727,1.9283,1.8796,1.8796,1.8782,1.8762,1.8762,1.8762,1.8762,1.8762,1.8762,1.8728,1.8836,1.872,1.8837,1.861,1.8754,1.8909,1.8788,1.8355,1.8141,1.8788,1.8321,1.828,1.8608,1.8233,1.8014,1.8023,0.9219,0.18,0.0223,1.0269,1.7968,1.788,1.786,1.786,1.786,1.786,1.786,1.786,1.786,1.786,1.786,1.786,1.786,1.786,1.786,1.7846,1.7826,1.7305,1.7292,1.7978,1.6332,1.5438,1.526,0.4871,0.0,3.8721,4.0916,4.2071,4.2699,4.2138,4.1096,3.9893,3.3977,0.0,0.0,2.2241,1.6627,1.4057,1.3406,1.4781,1.8922,0.0,0.0,0.0,0.0,2.307,0.0,0.0,0.0,0.0,0.0,0.0,0.0,0.0,2.2215,2.2393,2.2235,2.216,2.1618,2.1464,2.1323,2.1441,2.1441,2.1441,2.1441,2.1441,2.1441,2.1441,2.1285,2.1143,2.0761,2.0573,0.0,2.0573,2.0404,2.0241,1.983,1.9675,1.9678,1.9647,1.9146,1.8952,1.8717,1.8717,1.8864,1.8762,1.8762,1.8762,1.8762,1.8762,1.8762,1.8762,1.8728,1.8708,1.8687,1.8212,1.8436,1.8857,1.8754,1.8816,1.862,1.8837,1.8788,1.8555,1.8754,1.8301,1.8088,1.8534,1.6413,1.1542,0.157,1.0308,1.7968,1.788,1.786,1.786,1.786,1.786,1.786,1.786,1.786,1.786,1.786,1.786,1.786,1.786,1.786,1.7812,1.7909,1.7792,1.7792,1.7944,0.7956,0.3104,0.3119,0.0893,0.0,3.8349,4.1171,4.3207,4.3501,4.2552,4.0663,3.691,0.0,0.0,0.0,1.8587,1.395,1.3063,1.3362,0.0,1.6962,1.9923,0.0,0.0,0.0,0.0,0.0,0.0,0.0,0.0,0.0,0.0,0.0,0.0,2.2696,2.2337,2.2188,2.2045,2.1882,2.1665,2.1509,2.1441,2.1441,2.1441,2.1441,2.1441,2.1441,2.1441,2.148,2.1102,2.0547,2.0526,0.0,2.0627,2.0587,2.0173,1.9823,1.9602,1.963,1.9681,1.8939,1.8992,1.9235,1.8986,1.8884,1.8762,1.8762,1.8762,1.8762,1.8762,1.8762,1.8762,1.8762,1.8708,1.866,1.8503,1.847,1.8871,1.8891,1.8708,1.8728,1.8823,1.8788,1.8768,1.8678,1.8498,1.8477,1.85,1.85,1.4301,0.1785,1.0269,1.7935,1.788,1.7935,1.7948,1.786,1.786,1.786,1.786,1.786,1.786,1.786,1.786,1.786,1.786,1.786,1.7826,1.7978,1.7826,1.7846,1.7826,0.5769,0.0,0.0,0.0,0.3359,3.7377,4.087,4.4182,4.4182,4.2846,4.0062,3.416,2.9101,0.0,0.0,1.5626,1.2922,1.2554,0.0,1.4329,0.0,1.7868,2.0097,2.0138,2.1695,0.0,0.0,0.0,0.0,0.0,0.0,0.0,0.0,0.0,0.0,2.2235,2.2428,2.2201,2.216,2.1638,2.1475,2.1441,2.1441,2.1441,2.1441,2.1441,2.1441,2.1421,2.1411,2.1055,2.06,2.0716,0.0,0.0,2.0532,2.0105,1.9809,1.978,1.9818,1.9681,1.922,1.9291,1.9532,1.9074,1.8731,1.8816,1.8816,1.8796,1.8762,1.8762,1.8762,1.8762,1.8762,1.8905,1.8836,1.8728,1.8905,1.8857,1.8728,1.8762,1.8762,1.8762,1.8749,1.8694,1.8369,1.8654,1.8606,1.8514,1.8555,1.5265,0.535,1.1825,1.7935,1.7914,1.8023,1.8057,1.8191,1.7968,1.7948,1.7914,1.7935,1.7935,1.786,1.7935,1.7935,1.786,1.7894,1.7894,1.786,1.786,1.788,1.7928,0.8475,0.2453,0.0,0.2692,0.8985,3.844,4.1599,4.481,4.481,4.2699,3.9309,3.4061,0.0,2.2726,1.8646,1.4828,1.2246,1.2501,1.2969,1.3713,1.4211,1.5076,1.5747,1.5703,1.9516,2.2483,2.3176,0.0,0.0,0.0,0.0,0.0,0.0,0.0,0.0,2.2371,2.2188,2.2025,2.1598,2.1444,2.131,2.1441,2.1441,2.1441,2.1441,2.1441,2.1441,2.1421,2.1411,2.1001,2.0467,2.1207,0.0,0.0,2.0484,2.0105,1.9809,1.978,1.9818,1.9695,1.959,1.9695,1.9692,1.9093,1.8714,1.8731,1.8731,1.8864,1.8762,1.8762,1.8762,1.8762,1.8762,1.8749,1.8749,1.8762,1.8749,1.8749,1.8762,1.8762,1.8762,1.8762,1.8891,1.8823,1.8708,1.8871,1.8823,1.8694,1.8282,1.7654,1.6426,1.7156,1.7968,1.8287,1.8321,1.8376,1.8733,1.828,1.7981,1.7847,1.796,1.7927,1.788,1.7893,1.7927,1.788,1.8002,1.8002,1.786,1.786,1.788,1.7935,1.6837,1.0739,0.0224,1.1257,1.6939,3.5613,4.0904,4.5785,4.5277,4.2806,3.8648,3.1821,0.0,2.1302,1.577,1.307,1.1914,1.2454,1.2641,1.2912,1.3107,1.4242,1.5513,1.6187,1.9388,2.2199,2.3076,0.0,0.0,0.0,0.0,0.0,0.0,0.0,0.0,2.2357,2.2393,2.1903,2.1478,2.1344,2.1509,2.1441,2.1441,2.1441,2.1441,2.1441,2.1441,2.1441,2.1501,2.1123,2.0567,2.0804,0.0,0.0,2.0622,2.0187,1.9823,1.9622,1.9698,1.9818,1.9644,1.9763,1.9592,1.9413,1.9244,1.9235,1.8986,1.8884,1.8762,1.8762,1.8762,1.8762,1.8762,1.8762,1.8762,1.8762,1.8762,1.8762,1.8762,1.8762,1.8762,1.8762,1.8708,1.8694,1.8749,1.8708,1.866,1.862,1.8531,1.8443,1.8108,1.8001,1.8179,1.8233,1.8534,1.861,1.8685,1.861,1.8534,1.8465,1.8287,1.8267,1.8376,1.8247,1.8267,1.8376,1.8199,1.8192,1.8145,1.8036,1.8002,1.8023,1.8002,1.3678,0.5362,0.6505,1.102,3.1621,3.7496,4.3028,4.2279,3.9722,3.5545,0.0,0.0,1.9596,1.3648,1.2026,1.1828,1.2239,1.2521,1.2618,1.2949,1.4143,1.5292,1.6453,1.8344,1.9921,0.0,0.0,0.0,0.0,0.0,0.0,0.0,0.0,0.0,2.2289,2.2304,2.2105,2.1464,2.1277,2.1441,2.1441,2.1441,2.1441,2.1441,2.1441,2.1441,2.1441,2.1514,2.1177,2.0659,2.0593,0.0,0.0,2.0404,2.0207,1.983,1.9642,1.9746,1.9664,1.9664,1.9596,1.975,1.975,1.9817,1.9602,1.9061,1.8717,1.8816,1.8782,1.8762,1.8762,1.8762,1.8762,1.8762,1.8762,1.8762,1.8762,1.8762,1.8762,1.8762,1.8762,1.8762,1.8762,1.8762,1.8762,1.8728,1.862,1.8572,1.8726,1.8389,1.8355,1.8335,1.8375,1.8464,1.8781,1.8836,1.8754,1.8893,1.8858,1.8658,1.8644,1.8788,1.8644,1.8644,1.8788,1.8589,1.8355,1.8321,1.8158,1.8091,1.8091,1.8023,1.4792,0.8707,0.4479,0.7175,2.6904,3.0826,3.4654,3.4216,3.1923,2.8659,0.0,2.0286,1.7059,1.3305,1.2271,1.2108,1.2105,1.2373,1.2929,1.4055,1.4368,1.4685,1.5469,1.5509,1.5559,0.0,0.0,0.0,0.0,0.0,0.0,0.0,0.0,0.0,2.2407,2.2249,2.1889,2.1327,2.1323,2.1441,2.1441,2.1441,2.1441,2.1441,2.1441,2.1441,2.1421,2.1411,2.1343,0.0,0.0,0.0,0.0,2.0553,2.0609,2.0326,1.9786,1.9664,1.9664,1.9664,1.9664,1.9664,1.9664,1.9798,1.964,1.9012,1.8851,1.8717,1.8816,1.8762,1.8762,1.8762,1.8762,1.8762,1.8762,1.8762,1.8762,1.8762,1.8762,1.8762,1.8762,1.8762,1.8762,1.8762,1.8762,1.8762,1.8762,1.864,1.8531,1.8531,1.8409,1.8375,1.8511,1.8531,1.8586,1.8742,1.8762,1.8694,1.8788,1.8905,1.8871,1.8809,1.8836,1.8857,1.8809,1.8692,1.8464,1.8555,1.8165,1.8091,1.8091,1.7982,1.4758,0.8933,0.8734,0.8957,2.2668,2.7074,3.125,3.4125,3.3035,3.0435,2.7906,2.3933,1.9336,1.4235,1.234,1.1952,1.2258,1.245,1.2759,1.3593,1.3961,1.4355,1.4743,0.0,0.0,0.0,0.0,0.0,0.0,0.0,0.0,0.0,0.0,0.0,2.2407,2.1971,2.1518,2.131,2.1489,2.1441,2.1441,2.1441,2.1441,2.1441,2.1441,2.1441,2.1441,2.1353,2.1211,0.0,0.0,0.0,0.0,2.0601,2.0261,1.9964,1.9675,1.9622,1.9689,1.9732,1.9712,1.978,1.9698,1.9798,1.9681,1.9379,1.9183,1.8731,1.8697,1.885,1.8762,1.8762,1.8762,1.8762,1.8762,1.8762,1.8762,1.8762,1.8762,1.8762,1.8762,1.8762,1.8762,1.8762,1.8762,1.8762,1.8762,1.8728,1.8694,1.8694,1.8654,1.864,1.8694,1.8694,1.8708,1.8762,1.8762,1.8749,1.8694,1.8728,1.8728,1.8857,1.8708,1.8728,1.8857,1.8674,1.8674,1.862,1.8477,1.8335,1.8247,1.7914,1.281,0.2906,1.1227,1.5077,1.8962,2.2277,2.5409,2.8471,2.7971,0.0,2.5414,2.2005,1.7799,1.3692,1.2175,1.1816,1.2331,1.2381,1.2311,1.2919,1.4365,1.5148,1.4865,0.0,0.0,0.0,0.0,0.0,0.0,0.0,0.0,0.0,0.0,0.0,2.2325,2.1658,2.1464,2.1455,2.1441,2.1441,2.1441,2.1441,2.1441,2.1441,2.1441,2.1441,2.1441,2.1387,2.1245,0.0,0.0,0.0,0.0,2.0601,2.0241,1.9707,1.9976,1.9888,1.9675,2.0031,1.9766,1.978,1.9698,1.9596,1.975,1.9695,1.9237,1.8751,1.8751,1.8884,1.8762,1.8762,1.8762,1.8762,1.8762,1.8762,1.8762,1.8762,1.8762,1.8762,1.8762,1.8762,1.8762,1.8762,1.8762,1.8762,1.8762,1.8762,1.8762,1.8762,1.8762,1.8762,1.8762,1.8762,1.8762,1.8762,1.8762,1.8762,1.8762,1.8762,1.8762,1.8762,1.8762,1.8762,1.8762,1.8762,1.8762,1.8762,1.8599,1.8498,1.8409,1.8054,1.2902,0.3589,1.3522,1.807,0.0,1.709,1.8165,1.8691,1.8753,1.8458,1.766,1.556,0.0,1.2244,1.1803,1.1701,1.2324,1.198,1.1753,1.2456,1.4841,1.638,1.5645,1.5074,0.0,0.0,0.0,0.0,0.0,0.0,0.0,0.0,0.0,0.0,2.218,2.1605,2.1464,2.1455,2.1441,2.1441,2.1441,2.1441,2.1441,2.1441,2.1441,2.1441,2.1441,2.1285,2.148,0.0,0.0,0.0,0.0,2.0532,2.0105,1.9843,2.0196,2.0072,1.9732,2.0359,2.0072,1.9712,1.9678,1.9678,1.9644,1.9729,1.9237,1.8784,1.8751,1.8884,1.8762,1.8762,1.8762,1.8762,1.8762,1.8762,1.8762,1.8762,1.8762,1.8762,1.8782,1.8782,1.8782,1.8782,1.8782,1.8782,1.8782,1.8762,1.8762,1.8782,1.8762,1.8762,1.8762,1.8762,1.8762,1.8762,1.8762,1.8762,1.8782,1.8762,1.8762,1.8762,1.8762,1.8762,1.8762,1.8762,1.8762,1.8762,1.8599,1.8531,1.8531,1.8423,1.5293,0.973,1.541,1.8111,1.2605,0.0,1.5802,1.5585,1.5775,1.5694,0.0,1.2901,1.1925,1.1186,1.1279,1.1606,1.1828,1.173,1.1876,1.2371,1.3083,1.3732,1.4425,0.0,0.0,0.0,0.0,0.0,0.0,0.0,0.0,0.0,0.0,2.2235,2.218,2.1605,2.1464,2.1455,2.1441,2.1441,2.1441,2.1441,2.1441,2.1441,2.1441,2.1441,2.1441,2.1285,2.1157,0.0,0.0,0.0,2.0424,2.045,2.0173,1.9727,1.9729,2.0064,2.0309,1.9863,1.9843,1.9627,1.9655,1.9813,1.978,1.9763,1.9626,1.9291,1.9061,1.8884,1.8762,1.8762,1.8762,1.8762,1.8762,1.8762,1.8762,1.8762,1.8762,1.8796,1.8918,1.8697,1.8697,1.8697,1.8697,1.8697,1.8697,1.883,1.8796,1.8918,1.883,1.8762,1.8762,1.8762,1.8762,1.8762,1.8762,1.8816,1.8918,1.883,1.8762,1.8762,1.8762,1.8762,1.8762,1.8762,1.8762,1.8762,1.8599,1.8531,1.8531,1.843,1.7673,1.6241,1.7523,1.8145,1.1631,1.2688,1.3844,1.3184,1.3343,1.329,1.2347,1.1858,1.1456,1.0857,0.0,1.1281,1.159,1.2543,1.3105,1.2554,1.2448,1.3156,0.0,0.0,0.0,0.0,0.0,0.0,0.0,0.0,0.0,0.0,0.0,2.2393,2.2347,2.1774,2.1411,2.1441,2.1441,2.1441,2.1441,2.1441,2.1441,2.1441,2.1374,2.134,2.134,2.1446,2.1034,0.0,0.0,0.0,2.0417,2.0193,1.9897,1.9693,2.0044,2.034,2.0484,2.0207,1.995,2.0187,1.9963,1.9841,1.9746,1.9596,1.9695,1.9537,1.9372,1.8938,1.8762,1.8762,1.8762,1.8762,1.8762,1.8762,1.8762,1.8762,1.8762,1.8782,1.8864,1.8938,1.9235,1.9235,1.904,1.8851,1.8851,1.8972,1.9145,1.8731,1.8864,1.8762,1.8762,1.8762,1.8796,1.8864,1.8864,1.8898,1.8751,1.8918,1.8864,1.8864,1.8796,1.8762,1.8762,1.8762,1.8762,1.8762,1.8674,1.864,1.864,1.8586,1.8538,1.8713,1.8375,1.8287,1.155,1.1905,1.2291,1.2037,1.1987,1.1742,1.1485,1.1516,1.1337,0.0,0.0,0.0,0.0,1.3394,0.0,0.0,0.0,0.0,0.0,0.0,0.0,0.0,0.0,0.0,0.0,0.0,0.0,0.0,0.0,2.2229,2.2236,2.1672,2.1323,2.1441,2.1441,2.1441,2.1441,2.1441,2.1421,2.1408,2.1285,2.1459,2.1177,2.1302,2.0899,2.0506,0.0,0.0,2.0451,1.9917,1.9823,1.9843,2.0105,2.0306,2.0526,2.0519,2.0532,2.0395,2.047,2.0052,1.9664,1.963,1.9695,1.9727,1.9671,1.9235,1.8796,1.8762,1.8762,1.8762,1.8762,1.8762,1.8762,1.8762,1.8762,1.8782,1.8816,1.918,1.9511,1.9754,1.9358,1.8959,1.8959,1.9324,1.949,1.8805,1.8918,1.883,1.883,1.883,1.8871,1.8731,1.8751,1.8986,1.902,1.8738,1.8731,1.8784,1.885,1.8762,1.8762,1.8762,1.8762,1.8762,1.8762,1.8762,1.8762,1.8762,1.8728,1.8871,1.8565,1.8443,1.1645,1.1748,1.2043,1.3582,1.3476,1.2714,1.1247,1.0889,1.078,0.0,0.0,0.0,0.0,0.0,0.0,0.0,0.0,0.0,0.0,0.0,0.0,0.0,0.0,0.0,0.0,0.0,0.0,0.0,0.0,2.1565,2.1417,2.1397,2.1323,2.1441,2.1441,2.1441,2.1441,2.1441,2.1374,2.1514,2.1501,2.1143,2.0761,2.0613,2.0526,2.0486,0.0,2.0567,2.0416,2.0484,2.023,1.9594,1.9843,1.999,2.0438,2.0492,2.0492,2.0438,1.9897,1.9888,1.9644,1.975,1.9681,1.9592,1.9094,1.8986,1.8918,1.8796,1.8762,1.8762,1.8762,1.8762,1.8762,1.8762,1.8762,1.883,1.8831,1.8905,1.9162,1.9657,1.9671,1.9447,1.9447,1.9567,1.9567,1.8833,1.8747,1.8885,1.8885,1.9135,1.9338,1.8771,1.8993,1.9283,1.965,1.918,1.8898,1.8905,1.8918,1.8762,1.8762,1.8762,1.8762,1.8762,1.8762,1.8762,1.8762,1.8762,1.8782,1.8796,1.862,1.8498,1.157,1.2244,1.3288,1.4493,1.6608,1.7226,1.2306,1.1129,0.0,0.0,0.0,0.0,0.0,0.0,0.0,0.0,0.0,0.0,0.0,0.0,0.0,0.0,0.0,0.0,0.0,0.0,0.0,0.0,0.0,0.0,2.1277,2.1277,2.1509,2.1441,2.1441,2.1441,2.1441,2.1353,2.1285,2.148,2.1055,2.068,2.0607,2.0453,2.0386,2.0627,0.0,2.0295,1.995,1.9983,1.9908,1.9722,1.9976,2.032,2.0464,2.0622,2.039,2.0532,1.9897,1.9655,1.9644,1.9818,1.9447,1.9046,1.8905,1.8751,1.885,1.8782,1.8762,1.8762,1.8762,1.8762,1.8762,1.8762,1.8762,1.8796,1.8697,1.9027,1.9338,1.9588,1.9461,1.9325,1.9325,1.9516,1.9523,1.9413,1.9305,1.9203,1.9203,1.9447,1.9434,1.9115,1.9094,1.9128,1.9447,1.9081,1.8986,1.8731,1.883,1.8762,1.8762,1.8762,1.8762,1.8762,1.8762,1.8762,1.8762,1.8782,1.8816,1.883,1.6359,1.6519,1.1549,1.2655,1.3845,1.4252,1.7362,1.8959,1.3366,0.0,0.0,0.0,0.0,0.0,0.0,0.0,0.0,0.0,0.0,0.0,0.0,0.0,0.0,0.0,0.0,0.0,0.0,0.0,0.0,0.0,0.0,0.0,2.1441,2.1441,2.1441,2.1441,2.1408,2.1387,2.1387,2.1466,2.1391,2.1157,2.0633,2.0486,2.0453,2.0594,2.0526,2.0492,2.0601,2.0261,1.9693,1.9669,1.9588,1.9622,2.0127,2.0394,2.0217,2.045,2.0429,2.0306,1.9796,1.9602,1.961,1.9818,1.9379,1.8905,1.8872,1.8697,1.8762,1.8762,1.8762,1.8762,1.8762,1.8796,1.8816,1.8762,1.8816,1.885,1.8816,1.918,1.9532,1.9768,1.9223,1.89,1.8939,1.9427,1.9695,1.9729,1.9626,1.9796,1.9796,1.9796,1.9537,1.9257,1.9012,1.8992,1.9203,1.9203,1.9115,1.8884,1.8796,1.8782,1.8816,1.8782,1.8762,1.8762,1.8762,1.8762,1.8762,1.8796,1.8331,1.716,1.4994,1.5663,1.161,1.1626,1.1737,1.1805,1.2637,0.0,1.323,1.3271,0.0,1.3273,0.0,0.0,0.0,0.0,0.0,0.0,0.0,0.0,0.0,0.0,0.0,0.0,0.0,0.0,0.0,0.0,0.0,0.0,0.0,0.0,2.1441,2.1441,2.1441,2.1441,2.1306,2.1501,2.1501,2.1478,2.1144,2.0487,2.0573,2.0439,2.056,2.0539,2.0471,2.0587,2.045,2.0285,1.9635,1.9732,1.9746,1.9622,1.9622,1.9709,1.983,2.0354,2.0526,2.0401,1.9888,1.9698,1.9681,1.9782,1.9622,1.9463,1.907,1.8782,1.8762,1.8762,1.8762,1.8762,1.8762,1.8864,1.8697,1.8796,1.8731,1.8885,1.8764,1.8838,1.8945,1.9671,1.9447,1.9271,1.966,1.9681,1.9729,1.963,1.9644,1.963,1.963,1.963,1.9576,1.9434,1.9413,1.9359,1.9217,1.9203,1.9183,1.9169,1.8918,1.883,1.8972,1.883,1.8762,1.8762,1.8762,1.8762,1.8762,1.8762,1.6884,1.311,1.6633,1.849,1.0986,1.1328,1.2796,1.7447,1.5313,0.0,0.0,1.4231,1.6122,0.0,0.0,0.0,0.0,0.0,0.0,0.0,0.0,0.0,0.0,0.0,0.0,0.0,0.0,0.0,0.0,0.0,0.0,0.0,0.0,0.0,2.1441,2.1441,2.1408,2.1306,2.1514,2.1177,2.0821,2.0878,2.0804,2.0593,2.0439,2.056,2.0424,2.0424,2.0587,2.0429,2.0037,1.9922,1.9602,1.9712,1.9698,1.9746,1.9746,1.9588,1.9709,1.9956,1.9929,1.9875,1.9868,1.9746,1.9556,1.9153,1.9237,1.9094,1.8952,1.883,1.8762,1.8762,1.8762,1.8762,1.8762,1.8796,1.8837,1.9261,1.909,1.8918,1.9344,1.9125,1.8959,1.9532,1.9636,1.9502,1.9647,1.975,1.9596,1.9664,1.9664,1.9664,1.9664,1.9664,1.961,1.9447,1.9434,1.9413,1.9345,1.9345,1.9379,1.9488,1.9203,1.9061,1.9115,1.8972,1.8905,1.8905,1.8816,1.8762,1.8762,1.8796,1.8091,1.6436,1.8091,1.8816,1.0715,1.1188,1.3028,1.8926,0.0,0.0,1.2717,1.5563,1.8239,1.8662,0.0,0.0,0.0,0.0,0.0,0.0,0.0,0.0,0.0,0.0,0.0,0.0,0.0,0.0,0.0,0.0,0.0,0.0,0.0,0.0,0.0,2.1313,2.1252,2.1411,2.1109,2.0734,2.0329,2.0486,2.0386,2.0298,2.0539,2.0471,2.0587,2.0329,2.0227,2.0285,1.9922,1.9602,1.98,1.9698,1.9664,1.9664,1.961,1.9678,1.98,1.9746,1.9766,1.98,1.9746,1.9644,1.9729,1.9339,1.8939,1.8798,1.8717,1.885,1.8762,1.8762,1.8762,1.8762,1.8762,1.8796,1.8816,1.9261,1.907,1.8871,1.9261,1.9035,1.8884,1.9511,1.9615,1.9523,1.9715,1.9596,1.9664,1.9664,1.9664,1.9664,1.9664,1.9664,1.9624,1.9522,1.9468,1.9447,1.9501,1.9468,1.9501,1.9644,1.9468,1.9325,1.9271,1.9094,1.8993,1.8993,1.883,1.8762,1.8762,1.8796,1.8816,1.8816,1.8816,1.883,1.0737,1.1206,1.2194,0.0,0.0,0.0,1.4883,1.7156,1.9153,2.0311,0.0,0.0,0.0,0.0,0.0,0.0,0.0,0.0,0.0,0.0,0.0,0.0,0.0,0.0,0.0,0.0,0.0,0.0,0.0,2.0942,2.0403,2.0801,2.1007,2.1274,2.0838,2.0176,1.9757,2.0278,2.0383,2.0098,2.0397,2.0471,2.0587,1.9813,1.9641,1.9622,1.9622,1.978,1.9664,1.9664,1.9664,1.9644,1.9729,1.9763,1.9644,1.9729,1.9763,1.9644,1.9729,1.9817,1.9678,1.9768,1.9365,1.8762,1.8762,1.8762,1.8762,1.8762,1.8762,1.8762,1.8762,1.8864,1.8717,1.8796,1.8751,1.8865,1.883,1.8884,1.8784,1.9169,1.9203,1.955,1.961,1.9664,1.9664,1.9664,1.9664,1.9664,1.9664,1.9664,1.9664,1.9664,1.9522,1.9501,1.9644,1.9522,1.9501,1.9644,1.9664,1.959,1.9434,1.9149,1.8993,1.8993,1.883,1.8762,1.8762,1.8762,1.8762,1.8762,1.8762,1.8782,1.1208,1.1418,0.0,1.2481,0.0,0.0,0.0,1.7974,0.0,0.0,0.0,0.0,0.0,0.0,0.0,0.0,0.0,0.0,0.0,0.0,0.0,0.0,0.0,0.0,0.0,0.0,2.1015,2.1015,2.1136,2.0808,2.0801,2.0747,2.068,2.0845,2.0419,2.0018,1.9885,2.0017,1.9937,2.0098,1.9937,2.0153,2.0265,1.9863,1.9756,1.9732,1.9732,1.9698,1.9664,1.9535,1.9253,1.9481,1.9571,1.9537,1.9079,1.9537,1.9782,1.9817,1.9782,1.9482,1.9183,1.9047,1.8952,1.8898,1.8796,1.8762,1.8762,1.8762,1.8762,1.8762,1.8762,1.8796,1.8816,1.8782,1.883,1.8864,1.8782,1.8796,1.8898,1.8905,1.9196,1.9312,1.961,1.9664,1.9664,1.9664,1.9664,1.9664,1.9664,1.9664,1.9664,1.9664,1.9624,1.961,1.9664,1.9624,1.961,1.9664,1.9664,1.9644,1.959,1.9305,1.9128,1.9128,1.8884,1.8762,1.8762,1.8762,1.8762,1.8762,1.8762,1.8796,1.1456,1.1567,0.0,1.195,1.7612,2.2425,0.0,0.0,0.0,0.0,0.0,0.0,0.0,0.0,0.0,0.0,0.0,0.0,0.0,0.0,2.1441,2.1441,2.1441,2.1421,2.1082,2.0942,2.0834,2.0767,2.058,2.0736,2.0473,2.0473,2.0406,2.0766,2.0158,2.0037,1.9897,1.9736,1.9635,1.9834,1.9642,1.9813,1.9853,1.9635,1.9602,1.9569,1.9501,1.9522,1.9798,1.94,1.9339,1.9079,1.9189,1.9149,1.8952,1.9135,1.9392,1.9441,1.9372,1.9115,1.8851,1.8717,1.8898,1.8884,1.8796,1.8762,1.8762,1.8762,1.8762,1.8762,1.8762,1.8762,1.8782,1.883,1.8816,1.8782,1.883,1.9083,1.9159,1.8905,1.925,1.9379,1.9624,1.9664,1.9664,1.9664,1.9664,1.9664,1.9664,1.9664,1.9664,1.9664,1.9664,1.9664,1.9664,1.9664,1.9644,1.9576,1.9569,1.9569,1.9569,1.9325,1.9203,1.9203,1.8918,1.8762,1.8762,1.8762,1.8782,1.8796,1.8796,1.883,1.161,1.1631,0.0,1.2967,2.3686,0.0,0.0,0.0,0.0,0.0,0.0,0.0,0.0,0.0,0.0,0.0,0.0,0.0,0.0,0.0,2.1421,2.1421,2.1421,2.1082,2.0673,2.0781,2.0627,2.0223,2.0211,2.0309,2.0051,2.0057,2.0248,2.0609,2.034,2.0251,1.9602,1.9441,1.9307,1.9413,1.9556,1.9468,1.9217,1.9637,1.9678,1.9393,1.9495,1.9516,1.9647,1.9727,1.9427,1.8918,1.8784,1.8798,1.8905,1.8784,1.8798,1.8905,1.8764,1.8731,1.8717,1.8816,1.8762,1.8762,1.8762,1.8762,1.8762,1.8762,1.8762,1.8762,1.8762,1.8762,1.8796,1.8972,1.8884,1.8816,1.8717,1.9235,1.9511,1.9406,1.955,1.9715,1.963,1.9664,1.9664,1.9664,1.9664,1.9664,1.9664,1.9664,1.9664,1.9664,1.9664,1.9664,1.9664,1.9644,1.959,1.9468,1.9434,1.9434,1.9447,1.9291,1.9203,1.9203,1.8918,1.8782,1.8762,1.8762,1.8782,1.883,1.883,1.8884,1.1079,1.1886,0.0,0.0,2.0972,2.3203,2.1603,0.0,0.0,0.0,0.0,0.0,0.0,0.0,0.0,0.0,0.0,0.0,0.0,0.0,0.0,2.1272,2.1272,2.148,2.1322,2.1075,2.0889,2.0339,2.0309,2.0153,2.0153,2.0409,2.0395,2.0609,2.0127,1.9732,1.9712,1.9681,1.9537,1.9257,1.9291,1.9271,1.9203,1.9427,1.9434,1.9495,1.9468,1.9468,1.9237,1.9338,1.9283,1.9027,1.8871,1.883,1.885,1.8816,1.883,1.885,1.8816,1.8816,1.8796,1.8782,1.8762,1.8762,1.8762,1.8762,1.8762,1.8762,1.8762,1.8762,1.8762,1.8762,1.8837,1.9344,1.9532,1.9435,1.8986,1.8986,1.9027,1.9413,1.9727,1.9592,1.961,1.9664,1.9664,1.9664,1.9664,1.9664,1.9664,1.9664,1.9664,1.9664,1.9664,1.9664,1.9664,1.9556,1.9522,1.961,1.9379,1.9359,1.961,1.9345,1.9203,1.9203,1.9027,1.8884,1.8762,1.8762,1.8782,1.883,1.883,1.8884,1.2141,0.0,0.0,1.8906,0.0,2.0682,2.0786,2.1089,0.0,0.0,0.0,0.0,0.0,0.0,0.0,0.0,0.0,0.0,0.0,0.0,2.1466,2.1391,2.1109,2.1014,2.1068,2.0957,2.0741,2.0227,2.012,1.9949,1.9786,2.0038,2.0004,2.0178,1.977,1.9454,1.92,1.9156,1.9269,1.9101,1.9027,1.8993,1.8993,1.9149,1.9223,1.9203,1.9303,1.9269,1.9344,1.918,1.9125,1.9104,1.8796,1.8762,1.8762,1.8762,1.8762,1.8762,1.8762,1.8762,1.8762,1.8762,1.8762,1.8762,1.8762,1.8762,1.8762,1.8762,1.8762,1.8762,1.8762,1.8762,1.8816,1.9283,1.9525,1.9511,1.9406,1.9203,1.9223,1.9537,1.9626,1.9715,1.963,1.9719,1.9766,1.9766,1.9766,1.9766,1.9766,1.9698,1.9664,1.9664,1.9664,1.9624,1.9556,1.9535,1.9522,1.9447,1.9359,1.9379,1.9535,1.9393,1.9271,1.9203,1.9061,1.8918,1.8762,1.8762,1.8796,1.863,1.5754,1.27,1.3061,0.0,1.725,1.9177,2.0028,0.0,2.0594,2.054,2.0694,2.1109,0.0,0.0,0.0,0.0,0.0,2.1501,2.1184,2.1102,2.0487,2.0808,2.1356,2.1464,2.0926,2.052,2.0451,2.0582,2.0577,1.9807,1.9681,1.9741,1.9626,1.964,1.9571,1.9447,1.9434,1.9406,1.8681,1.8864,1.9015,1.9145,1.9001,1.8694,1.8728,1.909,1.9228,1.9115,1.8871,1.907,1.9421,1.9056,1.8749,1.8728,1.8749,1.8749,1.8728,1.8749,1.8762,1.8762,1.8762,1.8762,1.8762,1.8762,1.8762,1.8762,1.8762,1.8762,1.8762,1.8762,1.8762,1.8762,1.8762,1.8762,1.8796,1.8952,1.9235,1.9546,1.9571,1.964,1.964,1.9681,1.9798,1.9664,1.9664,1.9786,1.9875,1.9875,1.9888,1.9908,1.9875,1.9766,1.9698,1.9664,1.9664,1.961,1.9481,1.9556,1.9522,1.9291,1.9345,1.9413,1.9468,1.9447,1.9379,1.9237,1.9094,1.8959,1.8796,1.8782,1.8816,1.8664,1.2447,0.6103,1.1805,0.0,1.8067,0.0,1.9859,1.9841,0.0,0.0,2.0641,0.0,2.1055,2.1285,2.1421,2.134,2.1501,2.148,2.1001,2.0613,2.0448,2.0627,2.077,2.14,2.0855,2.0431,1.9742,1.98,1.9624,1.9005,1.9312,1.9468,1.8992,1.8992,1.8972,1.8959,1.8838,1.8784,1.8784,1.8708,1.8802,1.8823,1.8913,1.8913,1.8802,1.8823,1.8912,1.8816,1.8782,1.8782,1.8803,1.8762,1.8694,1.8802,1.8708,1.8905,1.8823,1.8708,1.8762,1.8762,1.8762,1.8762,1.8762,1.8762,1.8762,1.8762,1.8762,1.8762,1.8762,1.8762,1.8762,1.8762,1.8762,1.8762,1.8796,1.8959,1.9228,1.9283,1.9203,1.9237,1.9271,1.9413,1.9556,1.9664,1.9664,1.9786,1.9875,1.9875,1.9976,2.0031,1.9888,1.9854,1.98,1.9678,1.9664,1.9664,1.9624,1.9522,1.9501,1.959,1.9359,1.9359,1.9624,1.9501,1.9413,1.9393,1.9257,1.9094,1.8959,1.883,1.8816,1.8664,1.2447,0.6103,1.1593,1.3872,1.6666,0.0,1.9214,1.977,1.9976,0.0,2.0587,2.0492,2.0634,2.1089,2.1411,2.1411,2.1336,2.098,2.0593,2.0473,2.0627,2.0627,2.056,2.0853,2.0295,1.9897,1.978,1.9294,1.9133,1.8814,1.9081,1.8993,1.8831,1.8918,1.883,1.883,1.8694,1.8857,1.8857,1.872,1.8644,1.8403,1.8589,1.8589,1.8403,1.8403,1.8498,1.8871,1.8728,1.8708,1.8871,1.8871,1.8788,1.8665,1.8477,1.8477,1.8893,1.8823,1.8871,1.8871,1.8728,1.8762,1.8762,1.8762,1.8762,1.8762,1.8762,1.8762,1.8762,1.8762,1.8762,1.8762,1.8762,1.8762,1.8782,1.885,1.8925,1.9027,1.9169,1.9271,1.9379,1.9535,1.961,1.9664,1.9664,1.9854,1.9997,1.9997,2.0139,2.0173,2.001,1.9929,1.982,1.9678,1.9664,1.9624,1.9535,1.9556,1.9556,1.9535,1.9488,1.9522,1.9664,1.959,1.9556,1.9556,1.9413,1.9217,1.8993,1.8918,1.8905,1.8664,1.2447,0.6103,0.0,0.0,1.6055,1.7277,1.8623,1.9497,0.0,0.0,2.0237,0.0,2.0241,2.037,2.0931,2.1041,2.1054,2.0682,2.0627,2.0505,2.0498,2.0309,2.0004,1.9963,1.9675,1.9568,1.9763,1.9046,1.8865,1.8798,1.883,1.8749,1.8816,1.8836,1.8713,1.8484,1.861,1.8555,1.8555,1.852,1.8267,1.7802,1.8445,1.8233,1.7802,1.7802,1.8088,1.8658,1.8823,1.8823,1.872,1.8713,1.8623,1.85,1.8068,1.8074,1.852,1.8464,1.8768,1.8788,1.8708,1.8762,1.8762,1.8762,1.8762,1.8762,1.8762,1.8762,1.8762,1.8762,1.8762,1.8762,1.8762,1.8762,1.8762,1.8762,1.8884,1.904,1.9217,1.9379,1.9522,1.9644,1.9664,1.9664,1.9664,1.9875,2.0051,2.0051,2.0173,2.0227,2.0064,1.9942,1.982,1.9678,1.9664,1.961,1.9501,1.959,1.961,1.9501,1.959,1.9664,1.9664,1.9664,1.9664,1.9664,1.9556,1.9345,1.904,1.904,1.8993,1.8664,1.224,0.6121,0.0,1.428,0.0,1.6925,1.7953,1.9085,0.0,0.0,1.9805,1.9834,1.9756,1.9823,1.9709,2.0173,2.0622,2.0608,2.0484,2.0596,2.0436,1.9649,1.8793,1.8999,1.8972,1.9345,1.9789,1.9248,1.8884,1.8823,1.8788,1.8733,1.8823,1.8809,1.8568,1.7874,1.7854,1.7854,1.7854,1.7947,1.788,1.788,1.7948,1.7968,1.788,1.788,1.788,1.79,1.852,1.8809,1.8802,1.8108,1.8014,1.788,1.7802,1.7994,1.7914,1.7954,1.8295,1.8788,1.8708,1.8762,1.8762,1.8762,1.8762,1.8762,1.8762,1.8762,1.8762,1.8762,1.8762,1.8762,1.8762,1.8762,1.8762,1.8762,1.8884,1.9061,1.9359,1.9535,1.9644,1.9664,1.9664,1.9664,1.9664,1.9786,1.9888,1.9888,2.001,2.0064,1.9908,1.9875,1.982,1.9678,1.9664,1.9664,1.9644,1.9664,1.9664,1.9644,1.9664,1.9664,1.9664,1.9664,1.9664,1.9664,1.9664,1.9501,1.9183,1.9183,1.9094,1.8664,1.2306,0.5935,0.0,0.0,0.0,1.5478,1.6752,1.7868,1.8476,1.9164,1.9678,1.9782,1.9413,1.9253,1.9695,1.9766,2.0031,2.0031,1.9908,2.0017,2.0102,1.9341,1.8771,1.8814,1.88,1.8959,1.9013,1.8986,1.8864,1.8788,1.8531,1.8228,1.8314,1.8233,1.8179,1.7947,1.7847,1.7793,1.7793,1.7968,1.7948,1.7948,1.788,1.7894,1.7948,1.7948,1.7948,1.7948,1.8232,1.8301,1.8179,1.7947,1.786,1.7948,1.8002,1.7982,1.7968,1.7947,1.8301,1.8879,1.8699,1.8836,1.8749,1.8871,1.8905,1.8762,1.8762,1.8762,1.8762,1.8762,1.8762,1.8762,1.8762,1.8762,1.8782,1.8884,1.9027,1.9183,1.9379,1.9556,1.9664,1.9664,1.9664,1.9664,1.9664,1.9786,1.9875,1.9875,1.9997,2.0051,1.9888,1.9875,1.982,1.9678,1.9664,1.9664,1.9664,1.9664,1.9664,1.9664,1.9664,1.9664,1.9664,1.9664,1.9664,1.9664,1.9664,1.9501,1.9203,1.9305,1.9237,1.9006,1.2578,0.5935,1.1562,0.0,0.0,0.0,1.4983,1.6488,1.7669,0.0,1.9099,1.9353,1.9125,1.8805,1.9235,1.9461,1.9468,1.9374,1.9327,1.9447,1.9312,1.9046,1.8734,1.8831,1.8818,1.8784,1.8918,1.8864,1.8728,1.872,1.8175,0.0,1.7947,1.7847,1.7793,1.7793,1.7914,1.786,1.786,1.786,1.786,1.786,1.786,1.786,1.786,1.786,1.786,1.786,1.786,1.7914,1.7793,1.7793,1.7948,1.786,1.786,1.786,1.788,1.7813,1.8158,1.8486,1.8823,1.8747,1.8436,1.8626,1.8871,1.8694,1.8687,1.8654,1.862,1.8674,1.8694,1.8694,1.8742,1.8762,1.8796,1.8959,1.9094,1.9237,1.9393,1.9556,1.9664,1.9664,1.9664,1.9664,1.9664,1.9732,1.98,1.98,1.9888,1.9922,1.982,1.98,1.9766,1.9678,1.9664,1.9664,1.9664,1.9664,1.9664,1.9664,1.9664,1.9678,1.9732,1.9678,1.9678,1.9732,1.9678,1.9535,1.9271,1.9434,1.9379,1.9372,1.4849,0.8352,0.0,0.0,0.0,0.0,0.0,0.0,1.7305,0.0,1.801,1.8586,1.8858,1.8674,1.8788,1.8754,1.8674,1.8865,1.8701,1.8885,1.8751,1.8731,1.8918,1.8762,1.8749,1.8749,1.8749,1.8857,1.8699,1.8788,1.8179,1.7793,1.786,1.786,1.786,1.786,1.786,1.786,1.786,1.786,1.786,1.786,1.786,1.786,1.786,1.786,1.786,1.786,1.786,1.786,1.786,1.786,1.786,1.786,1.786,1.786,1.788,1.7793,1.786,1.79,1.8644,1.8511,1.8073,1.8687,1.8871,1.8768,1.8295,1.8423,1.8589,1.8498,1.8531,1.8565,1.8728,1.8762,1.8796,1.8952,1.9094,1.9237,1.9393,1.9535,1.9664,1.9664,1.9664,1.9664,1.9664,1.9664,1.9664,1.9664,1.9664,1.9664,1.9664,1.9664,1.9664,1.9664,1.9664,1.9664,1.9678,1.9678,1.9664,1.9664,1.9664,1.9732,1.9854,1.9732,1.9732,1.9875,1.9732,1.959,1.9447,1.959,1.9542,1.9291,1.9468,1.2576,1.1619,0.0,0.0,0.0,0.0,0.0,0.0,0.0,1.681,1.7833,1.8236,1.8164,1.8111,1.8074,1.8188,1.8079,1.8565,1.8823,1.8891,1.8802,1.8733,1.8913,1.8913,1.8913,1.8913,1.8879,1.8555,0.0,1.788,1.7793,1.786,1.786,1.786,1.786,1.786,1.786,1.786,1.786,1.786,1.786,1.786,1.786,1.786,1.786,1.786,1.786,1.786,1.786,1.786,1.786,1.786,1.786,1.786,1.786,1.786,1.7914,1.8002,1.786,1.8057,1.8424,1.861,1.8767,1.8788,1.861,1.8141,1.8121,1.8121,1.8498,1.8531,1.8802,1.8728,1.8762,1.8782,1.8816,1.8938,1.9094,1.9237,1.9379,1.9522,1.9644,1.9664,1.9664,1.9664,1.9664,1.9664,1.9664,1.9664,1.9664,1.9664,1.9664,1.9698,1.98,1.982,1.9854,1.9976,1.9875,1.982,1.982,1.9712,1.9678,1.9712,1.9678,1.9732,1.9875,1.9732,1.9698,1.9746,1.9698,1.9576,1.9379,1.6164,0.9341,0.0,0.0,0.0,0.0,0.0,0.0,1.2441,1.3343,1.4726,0.0,1.6433,1.7653,1.7753,1.7841,1.7812,1.7935,1.8232,1.8362,1.8409,1.8375,1.8321,1.8321,1.8321,1.8321,1.8321,1.85,1.8186,1.786,1.7813,1.7948,1.786,1.786,1.786,1.786,1.786,1.7826,1.7998,1.7826,1.7826,1.7998,1.7826,1.786,1.786,1.786,1.786,1.786,1.786,1.786,1.786,1.786,1.786,1.786,1.786,1.786,1.786,1.786,1.7914,1.7982,1.7968,1.8077,1.8445,1.8431,1.8431,1.8459,1.8001,1.7947,1.7934,1.8074,1.8443,1.8802,1.8728,1.8762,1.8762,1.8762,1.8884,1.9006,1.9094,1.9237,1.9393,1.9624,1.9664,1.9664,1.9664,1.9664,1.9664,1.9664,1.9664,1.9664,1.9664,1.9664,1.9698,1.9766,1.9786,1.9841,1.9997,1.9922,1.9875,1.9875,1.98,1.9752,1.9752,1.9698,1.9732,1.9875,1.9732,1.9698,1.9786,1.9698,1.959,1.922,1.693,1.2947,0.0,0.0,0.0,0.0,0.0,0.0,1.1646,1.2095,1.2417,0.0,1.4431,1.6969,1.7523,1.7505,1.7608,1.784,1.7878,1.7978,1.7994,1.7821,1.7802,1.7802,1.7802,1.7802,1.7802,1.7914,1.7847,1.7847,1.7935,1.786,1.7846,1.7846,1.7846,1.7846,1.7826,1.7978,1.7854,1.7758,1.7758,1.7854,1.7998,1.7846,1.7846,1.7846,1.7846,1.786,1.7846,1.7846,1.786,1.786,1.786,1.786,1.786,1.786,1.786,1.786,1.786,1.788,1.7793,1.7847,1.786,1.7994,1.7947,1.7847,1.7847,1.7968,1.7901,1.7847,1.8314,1.8565,1.8728,1.8762,1.8762,1.8762,1.8871,1.8972,1.8993,1.9094,1.9271,1.9556,1.961,1.961,1.961,1.9624,1.9644,1.9644,1.9644,1.9664,1.9664,1.9664,1.9664,1.9678,1.9678,1.9752,1.9908,1.9908,1.9888,1.9888,1.9888,1.9875,1.9854,1.9732,1.9732,1.9875,1.9752,1.9678,1.9664,1.9664,1.961,1.9501,1.9488,1.9345,0.0,0.0,0.0,0.0,0.0,0.0,1.1581,1.2024,1.2429,0.0,1.4112,1.5631,1.5667,1.5689,1.5991,1.7041,1.7569,1.7926,1.7827,1.7793,1.7948,1.7948,1.7948,1.7948,1.7948,1.7935,1.7914,1.7914,1.788,1.7812,1.793,1.7909,1.7909,1.7909,1.7799,1.794,1.7912,1.7494,1.7494,1.7912,1.7847,1.7909,1.7909,1.7909,1.7978,1.786,1.7964,1.7978,1.786,1.786,1.786,1.786,1.786,1.786,1.786,1.786,1.786,1.786,1.7894,1.7914,1.7914,1.7948,1.7935,1.7914,1.7914,1.788,1.7914,1.8199,1.8389,1.8565,1.8728,1.8762,1.8762,1.8762,1.8782,1.883,1.8959,1.9006,1.9081,1.9257,1.9291,1.9291,1.9291,1.9393,1.9481,1.9481,1.959,1.9664,1.9664,1.9664,1.9698,1.982,1.9841,1.9942,2.0227,2.0119,2.0051,2.0051,1.9942,1.982,1.9712,1.9678,1.9732,1.9875,1.9841,1.9766,1.9664,1.9664,1.959,1.9447,1.9325,1.9203,0.0,0.0,0.0,1.3029,0.0,0.0,0.0,1.2223,1.2246,1.2723,1.3288,1.3992,1.4263,1.4245,1.4659,1.5856,1.5866,1.6121,1.7655,1.7792,1.7978,1.7978,1.7978,1.7978,1.7978,1.7826,1.7826,1.7978,1.7532,1.7684,1.7772,1.7982,1.7758,1.7534,1.746,1.7385,1.7525,1.7163,1.7163,1.7525,1.746,1.7541,1.7982,1.7982,1.7799,1.7411,1.7792,1.7806,1.7875,1.7944,1.7978,1.7978,1.7826,1.786,1.786,1.786,1.786,1.786,1.786,1.786,1.786,1.786,1.786,1.786,1.786,1.786,1.7914,1.8145,1.8321,1.8464,1.8599,1.8708,1.8762,1.8762,1.8762,1.8782,1.8871,1.8884,1.8905,1.8972,1.8993,1.9027,1.9183,1.9325,1.9434,1.9434,1.9556,1.9664,1.9664,1.9664,1.9698,1.9766,1.9766,1.9888,2.0187,2.0153,2.0098,2.0098,2.0031,1.9888,1.9678,1.9664,1.9698,1.9766,1.9766,1.9732,1.9664,1.9664,1.9535,1.9325,1.9305,1.9169,0.0,0.0,0.0,0.0,0.0,1.2152,0.0,0.0,0.0,1.2609,1.2834,0.0,0.0,0.0,0.0,1.4407,0.0,0.0,0.0,1.7425,0.0,1.7641,1.7655,1.7683,1.7961,1.7827,1.7847,1.7792,1.7264,1.7197,1.7607,1.7794,1.7566,1.6935,1.6908,1.7056,1.6936,1.7023,1.7023,1.6936,1.7056,1.7344,1.7815,1.7815,1.7392,1.6975,1.7607,1.7836,1.7655,1.7806,1.7875,1.7895,1.7812,1.786,1.786,1.786,1.786,1.786,1.786,1.786,1.786,1.786,1.786,1.786,1.786,1.786,1.7901,1.8057,1.8179,1.8321,1.8477,1.862,1.8728,1.8762,1.8762,1.8762,1.8762,1.8762,1.8762,1.8762,1.8762,1.885,1.9115,1.9291,1.9393,1.9434,1.9556,1.9664,1.9664,1.9664,1.9664,1.9664,1.9664,1.9766,2.0031,2.0051,2.0051,2.0051,2.0051,1.9942,1.9678,1.9664,1.9664,1.9664,1.9664,1.9664,1.9664,1.9664,1.9522,1.9257,1.9379,1.9203,0.0,0.0,0.0,0.0,1.3275,0.0,0.0,0.0,1.1562,1.1762,0.0,0.0,0.0,0.0,0.0,0.0,0.0,0.0,1.5315,1.5588,1.5857,1.7009,1.7078,1.7397,1.7896,1.7818,1.7846,1.7882,1.7308,1.703,1.7195,1.71,1.7087,1.6996,1.7093,1.7019,1.7005,1.7099,1.7099,1.7005,1.7019,1.7093,1.7003,1.7003,1.7069,1.6968,1.7056,1.7076,1.6994,1.714,1.7425,1.7895,1.7812,1.786,1.786,1.786,1.786,1.786,1.786,1.786,1.786,1.786,1.786,1.786,1.786,1.786,1.7901,1.8057,1.8111,1.8179,1.8464,1.8552,1.8586,1.8728,1.8762,1.8762,1.8762,1.8762,1.8762,1.8762,1.8762,1.8816,1.8993,1.9128,1.9271,1.9413,1.9556,1.9664,1.9664,1.9664,1.9664,1.9664,1.9664,1.9732,1.9888,1.9888,1.9888,1.9888,1.9888,1.982,1.9664,1.9664,1.9664,1.9664,1.9664,1.9664,1.9664,1.9664,1.9576,1.9413,1.9427,1.9257,0.0,0.0,0.0,0.0,0.0,0.0,0.0,0.0,1.1702,0.0,0.0,0.0,0.0,0.0,0.0,0.0,1.2204,0.0,0.0,0.0,1.5433,1.5974,0.0,0.0,1.7329,1.7394,1.6877,1.5815,1.6632,1.6842,1.6567,1.6829,1.7085,1.6937,1.7092,1.7016,1.6934,1.7071,1.7071,1.6927,1.6927,1.6962,1.7016,1.6897,1.6971,1.7032,1.7053,1.71,1.6962,1.6975,1.7297,1.7989,1.7998,1.786,1.786,1.786,1.786,1.786,1.786,1.786,1.786,1.786,1.786,1.786,1.786,1.786,1.788,1.7935,1.8023,1.8145,1.8355,1.8409,1.8443,1.8586,1.862,1.862,1.862,1.8694,1.8762,1.8762,1.8762,1.8816,1.8959,1.9115,1.9203,1.9183,1.9447,1.9624,1.9535,1.961,1.9664,1.9664,1.9664,1.9712,1.9854,1.9875,1.9875,1.9875,1.98,1.9732,1.9664,1.9664,1.9664,1.9664,1.9664,1.9664,1.9664,1.9664,1.9624,1.9556,1.9379,1.9237,1.3688,0.0,0.0,0.0,0.0,0.0,0.0,0.0,0.0,0.0,0.0,0.0,0.0,0.0,0.0,0.0,0.0,1.1615,0.0,1.3556,0.0,0.0,0.0,0.0,0.0,1.6586,1.5886,1.4113,1.5649,1.6454,1.6105,1.6653,1.6967,1.7051,1.6879,1.6845,1.6735,1.6905,1.6905,1.6946,1.6905,1.6714,1.6797,1.67,1.6775,1.703,1.6937,1.6978,1.6998,1.7029,1.7378,1.7892,1.793,1.7826,1.786,1.786,1.786,1.786,1.786,1.786,1.786,1.786,1.786,1.786,1.786,1.786,1.786,1.786,1.7948,1.8077,1.8267,1.8287,1.8301,1.8498,1.8531,1.8531,1.8531,1.8654,1.8762,1.8762,1.8762,1.8796,1.8905,1.9047,1.9115,1.9061,1.9359,1.9556,1.9447,1.9569,1.9664,1.9664,1.9664,1.9712,1.9854,1.9841,1.982,1.982,1.9712,1.9664,1.9664,1.9664,1.9664,1.9664,1.9664,1.9664,1.9664,1.9664,1.9644,1.959,1.9413,1.9291,0.0,0.0,0.0,1.3485,0.0,0.0,0.0,0.0,1.24,0.0,0.0,0.0,0.0,0.0,0.0,0.0,0.0,0.0,0.0,0.0,0.0,0.0,0.0,0.0,0.0,1.5255,1.4663,1.3608,1.4486,1.5519,1.6028,1.6686,1.7041,1.694,1.6456,1.6108,1.6101,1.68,1.701,1.6946,1.6381,1.6048,1.6106,1.6112,1.6406,1.6971,1.6978,1.6978,1.6992,1.6922,1.729,1.7885,1.782,1.7964,1.786,1.786,1.786,1.786,1.786,1.786,1.786,1.786,1.786,1.786,1.786,1.786,1.786,1.786,1.786,1.7935,1.8247,1.8213,1.8179,1.8464,1.8531,1.8531,1.8531,1.8654,1.8762,1.8762,1.8762,1.8762,1.8762,1.8905,1.904,1.9169,1.9325,1.9434,1.9434,1.9569,1.9664,1.9664,1.9664,1.9712,1.9854,1.9752,1.9664,1.9664,1.9664,1.9664,1.9664,1.9664,1.9664,1.9664,1.9664,1.9664,1.9664,1.9664,1.959,1.9447,1.9576,1.9488,0.0,0.0,1.5045,1.4143,0.0,0.0,0.0,0.0,0.0,0.0,0.0,0.0,0.0,0.0,0.0,0.0,0.0,0.0,0.0,0.0,0.0,0.0,0.0,0.0,0.0,0.0,1.4745,1.3572,1.4235,1.4759,1.4831,1.5452,1.5897,1.6404,1.6254,1.6123,1.6024,1.6289,1.6488,1.6433,1.6185,1.6058,1.6042,1.6558,1.6893,1.7044,1.6937,1.6978,1.6992,1.6915,1.7063,1.7433,1.7813,1.7964,1.786,1.786,1.786,1.786,1.786,1.786,1.786,1.786,1.786,1.786,1.786,1.786,1.786,1.786,1.786,1.7914,1.8111,1.8057,1.7989,1.8199,1.8233,1.8267,1.8375,1.8511,1.864,1.8742,1.8762,1.8762,1.8762,1.8796,1.885,1.8905,1.9203,1.9393,1.9291,1.9501,1.9664,1.9664,1.9664,1.9678,1.9732,1.9698,1.9664,1.9664,1.9664,1.9664,1.9664,1.9664,1.9664,1.9664,1.9664,1.9664,1.9664,1.9664,1.9624,1.959,1.9644,1.9501,1.4903,1.5147,0.0,1.4489,1.4122,0.0,1.2861,0.0,0.0,0.0,0.0,0.0,0.0,0.0,0.0,0.0,0.0,0.0,0.0,1.1312,0.0,0.0,0.0,0.0,0.0,1.4426,1.3431,1.2489,1.3466,1.4041,1.3998,1.4467,1.5228,1.5725,1.5897,1.6048,1.5797,1.6055,1.6083,1.6083,1.6029,1.611,1.6105,1.6666,1.703,1.6975,1.6917,1.6978,1.6985,1.708,1.7016,1.6988,1.7751,1.7909,1.786,1.786,1.786,1.786,1.786,1.786,1.786,1.786,1.786,1.786,1.786,1.786,1.788,1.8002,1.7948,1.7935,1.8253,1.8091,1.7914,1.8124,1.8179,1.8199,1.8301,1.8477,1.864,1.8742,1.8762,1.8762,1.8762,1.8762,1.8762,1.8762,1.9061,1.9257,1.9203,1.9434,1.961,1.9664,1.9664,1.9664,1.9664,1.9712,1.9712,1.9664,1.9664,1.9664,1.9664,1.9664,1.9712,1.982,1.9712,1.9712,1.982,1.9712,1.9624,1.9576,1.9576,1.9447]}]]